<?xml version="1.0" encoding="utf-8"?>
<gpx xmlns:xsi="http://www.w3.org/2001/XMLSchema-instance" xmlns:xsd="http://www.w3.org/2001/XMLSchema" version="1.1" creator="Shapelink.com" xmlns="http://www.topografix.com/GPX/1/1" xmlns:gpxtpx="http://www.garmin.com/xmlschemas/TrackPointExtension/v1">
  <metadata>
    <name>Cycling 15.93 km, 2010-11-16</name>
    <desc></desc>
    <author><name>Jojje Borssén</name></author> 
    <time>2010-11-16T12:33:52Z</time>
  </metadata>
  <trk>
    <name>Cycling 15.93 km, 2010-11-16</name>
    <trkseg>
      <trkpt lat="59.3254028514" lon="18.0258281496">
        <ele>16</ele>
        <time>2010-11-16T12:33:52Z</time>
      </trkpt>
      <trkpt lat="59.3253444295" lon="18.0258990604">
        <ele>16</ele>
        <time>2010-11-16T12:33:54Z</time>
      </trkpt>
      <trkpt lat="59.3252825711" lon="18.0259783532">
        <ele>16</ele>
        <time>2010-11-16T12:33:56Z</time>
      </trkpt>
      <trkpt lat="59.3252286755" lon="18.0260477554">
        <ele>16.6</ele>
        <time>2010-11-16T12:33:58Z</time>
      </trkpt>
      <trkpt lat="59.3251720977" lon="18.0261241983">
        <ele>16.4</ele>
        <time>2010-11-16T12:34:00Z</time>
      </trkpt>
      <trkpt lat="59.3251156037" lon="18.0261974561">
        <ele>16.4</ele>
        <time>2010-11-16T12:34:02Z</time>
      </trkpt>
      <trkpt lat="59.3250460339" lon="18.0262997153">
        <ele>16.4</ele>
        <time>2010-11-16T12:34:05Z</time>
      </trkpt>
      <trkpt lat="59.3249273462" lon="18.0264546128">
        <ele>16.6</ele>
        <time>2010-11-16T12:34:09Z</time>
      </trkpt>
      <trkpt lat="59.3248692596" lon="18.0265321454">
        <ele>17</ele>
        <time>2010-11-16T12:34:11Z</time>
      </trkpt>
      <trkpt lat="59.3248118436" lon="18.0266095941">
        <ele>17.2</ele>
        <time>2010-11-16T12:34:13Z</time>
      </trkpt>
      <trkpt lat="59.3247547629" lon="18.0266912338">
        <ele>17.4</ele>
        <time>2010-11-16T12:34:15Z</time>
      </trkpt>
      <trkpt lat="59.3246938264" lon="18.0267706942">
        <ele>17.8</ele>
        <time>2010-11-16T12:34:17Z</time>
      </trkpt>
      <trkpt lat="59.3246318004" lon="18.0268431977">
        <ele>18.4</ele>
        <time>2010-11-16T12:34:19Z</time>
      </trkpt>
      <trkpt lat="59.3245671759" lon="18.026920395">
        <ele>18.8</ele>
        <time>2010-11-16T12:34:21Z</time>
      </trkpt>
      <trkpt lat="59.3245169684" lon="18.0269827563">
        <ele>19</ele>
        <time>2010-11-16T12:34:23Z</time>
      </trkpt>
      <trkpt lat="59.3243986159" lon="18.0271365642">
        <ele>19.6</ele>
        <time>2010-11-16T12:34:27Z</time>
      </trkpt>
      <trkpt lat="59.3243332371" lon="18.0272120851">
        <ele>20.2</ele>
        <time>2010-11-16T12:34:29Z</time>
      </trkpt>
      <trkpt lat="59.3241201692" lon="18.027466811">
        <ele>21.2</ele>
        <time>2010-11-16T12:34:35Z</time>
      </trkpt>
      <trkpt lat="59.3240504318" lon="18.0275528093">
        <ele>22</ele>
        <time>2010-11-16T12:34:37Z</time>
      </trkpt>
      <trkpt lat="59.3239944407" lon="18.0276186911">
        <ele>22.4</ele>
        <time>2010-11-16T12:34:39Z</time>
      </trkpt>
      <trkpt lat="59.3239048382" lon="18.0277271528">
        <ele>22.8</ele>
        <time>2010-11-16T12:34:41Z</time>
      </trkpt>
      <trkpt lat="59.3238319995" lon="18.0278137379">
        <ele>23.2</ele>
        <time>2010-11-16T12:34:43Z</time>
      </trkpt>
      <trkpt lat="59.3237575682" lon="18.0279023345">
        <ele>23.4</ele>
        <time>2010-11-16T12:34:45Z</time>
      </trkpt>
      <trkpt lat="59.3236815444" lon="18.0279969662">
        <ele>24</ele>
        <time>2010-11-16T12:34:47Z</time>
      </trkpt>
      <trkpt lat="59.3236075322" lon="18.0280931904">
        <ele>24.4</ele>
        <time>2010-11-16T12:34:49Z</time>
      </trkpt>
      <trkpt lat="59.3235250543" lon="18.0281949467">
        <ele>24.8</ele>
        <time>2010-11-16T12:34:51Z</time>
      </trkpt>
      <trkpt lat="59.3234583344" lon="18.0282713058">
        <ele>25.2</ele>
        <time>2010-11-16T12:34:53Z</time>
      </trkpt>
      <trkpt lat="59.323354315" lon="18.0284017281">
        <ele>25.6</ele>
        <time>2010-11-16T12:34:55Z</time>
      </trkpt>
      <trkpt lat="59.3232654669" lon="18.0285068372">
        <ele>25.8</ele>
        <time>2010-11-16T12:34:57Z</time>
      </trkpt>
      <trkpt lat="59.3231793009" lon="18.0286075038">
        <ele>26</ele>
        <time>2010-11-16T12:34:59Z</time>
      </trkpt>
      <trkpt lat="59.3230864295" lon="18.028719486">
        <ele>26</ele>
        <time>2010-11-16T12:35:01Z</time>
      </trkpt>
      <trkpt lat="59.3229974137" lon="18.0288243435">
        <ele>26.2</ele>
        <time>2010-11-16T12:35:03Z</time>
      </trkpt>
      <trkpt lat="59.3229091523" lon="18.0289302908">
        <ele>26.4</ele>
        <time>2010-11-16T12:35:05Z</time>
      </trkpt>
      <trkpt lat="59.3228213938" lon="18.029039004">
        <ele>26.4</ele>
        <time>2010-11-16T12:35:07Z</time>
      </trkpt>
      <trkpt lat="59.3227337191" lon="18.0291457056">
        <ele>26.4</ele>
        <time>2010-11-16T12:35:09Z</time>
      </trkpt>
      <trkpt lat="59.3226420211" lon="18.0292526586">
        <ele>26.6</ele>
        <time>2010-11-16T12:35:11Z</time>
      </trkpt>
      <trkpt lat="59.322552251" lon="18.0293527385">
        <ele>26.6</ele>
        <time>2010-11-16T12:35:13Z</time>
      </trkpt>
      <trkpt lat="59.3224658336" lon="18.0294496333">
        <ele>26.6</ele>
        <time>2010-11-16T12:35:15Z</time>
      </trkpt>
      <trkpt lat="59.3223851159" lon="18.0295471148">
        <ele>26.6</ele>
        <time>2010-11-16T12:35:17Z</time>
      </trkpt>
      <trkpt lat="59.3223066613" lon="18.0296404891">
        <ele>26.6</ele>
        <time>2010-11-16T12:35:19Z</time>
      </trkpt>
      <trkpt lat="59.3222272847" lon="18.0297392279">
        <ele>26.6</ele>
        <time>2010-11-16T12:35:21Z</time>
      </trkpt>
      <trkpt lat="59.3222047374" lon="18.0297668882">
        <ele>26.6</ele>
        <time>2010-11-16T12:35:22Z</time>
      </trkpt>
      <trkpt lat="59.3220867203" lon="18.0299029264">
        <ele>26.6</ele>
        <time>2010-11-16T12:35:25Z</time>
      </trkpt>
      <trkpt lat="59.3220296395" lon="18.029961935">
        <ele>26.6</ele>
        <time>2010-11-16T12:35:27Z</time>
      </trkpt>
      <trkpt lat="59.3220179887" lon="18.0299608454">
        <ele>26.6</ele>
        <time>2010-11-16T12:35:28Z</time>
      </trkpt>
      <trkpt lat="59.3220045777" lon="18.0299562353">
        <ele>26.6</ele>
        <time>2010-11-16T12:35:29Z</time>
      </trkpt>
      <trkpt lat="59.321947916" lon="18.0299827221">
        <ele>26.6</ele>
        <time>2010-11-16T12:35:32Z</time>
      </trkpt>
      <trkpt lat="59.321834928" lon="18.0300040122">
        <ele>26.8</ele>
        <time>2010-11-16T12:35:34Z</time>
      </trkpt>
      <trkpt lat="59.3217205989" lon="18.0299907688">
        <ele>26.8</ele>
        <time>2010-11-16T12:35:36Z</time>
      </trkpt>
      <trkpt lat="59.3216553877" lon="18.0299007471">
        <ele>26.8</ele>
        <time>2010-11-16T12:35:38Z</time>
      </trkpt>
      <trkpt lat="59.3216041743" lon="18.0297813051">
        <ele>26.8</ele>
        <time>2010-11-16T12:35:40Z</time>
      </trkpt>
      <trkpt lat="59.321560337" lon="18.0297244758">
        <ele>26.8</ele>
        <time>2010-11-16T12:35:41Z</time>
      </trkpt>
      <trkpt lat="59.3214876659" lon="18.0296098114">
        <ele>26.6</ele>
        <time>2010-11-16T12:35:43Z</time>
      </trkpt>
      <trkpt lat="59.321480206" lon="18.0295207118">
        <ele>26.2</ele>
        <time>2010-11-16T12:35:45Z</time>
      </trkpt>
      <trkpt lat="59.3214861571" lon="18.0293839192">
        <ele>25.8</ele>
        <time>2010-11-16T12:35:48Z</time>
      </trkpt>
      <trkpt lat="59.3214869115" lon="18.0292394152">
        <ele>25.6</ele>
        <time>2010-11-16T12:35:50Z</time>
      </trkpt>
      <trkpt lat="59.321482972" lon="18.0291410117">
        <ele>25.4</ele>
        <time>2010-11-16T12:35:51Z</time>
      </trkpt>
      <trkpt lat="59.3214772723" lon="18.0288351562">
        <ele>24.8</ele>
        <time>2010-11-16T12:35:54Z</time>
      </trkpt>
      <trkpt lat="59.3214768532" lon="18.0287137863">
        <ele>24.6</ele>
        <time>2010-11-16T12:35:55Z</time>
      </trkpt>
      <trkpt lat="59.3214539706" lon="18.0283293924">
        <ele>24</ele>
        <time>2010-11-16T12:35:58Z</time>
      </trkpt>
      <trkpt lat="59.321433435" lon="18.028065111">
        <ele>23.6</ele>
        <time>2010-11-16T12:36:01Z</time>
      </trkpt>
      <trkpt lat="59.3214165874" lon="18.0279811244">
        <ele>23.4</ele>
        <time>2010-11-16T12:36:02Z</time>
      </trkpt>
      <trkpt lat="59.3212881767" lon="18.0279420648">
        <ele>22.6</ele>
        <time>2010-11-16T12:36:04Z</time>
      </trkpt>
      <trkpt lat="59.3211590116" lon="18.0279608402">
        <ele>22</ele>
        <time>2010-11-16T12:36:06Z</time>
      </trkpt>
      <trkpt lat="59.3210163516" lon="18.0280009057">
        <ele>21.4</ele>
        <time>2010-11-16T12:36:08Z</time>
      </trkpt>
      <trkpt lat="59.3208628791" lon="18.0280193459">
        <ele>20.8</ele>
        <time>2010-11-16T12:36:10Z</time>
      </trkpt>
      <trkpt lat="59.3207768808" lon="18.028038289">
        <ele>20.6</ele>
        <time>2010-11-16T12:36:11Z</time>
      </trkpt>
      <trkpt lat="59.320697588" lon="18.0280847247">
        <ele>20.4</ele>
        <time>2010-11-16T12:36:12Z</time>
      </trkpt>
      <trkpt lat="59.3205959994" lon="18.0282240319">
        <ele>19.6</ele>
        <time>2010-11-16T12:36:14Z</time>
      </trkpt>
      <trkpt lat="59.3205243341" lon="18.0284175699">
        <ele>18.8</ele>
        <time>2010-11-16T12:36:16Z</time>
      </trkpt>
      <trkpt lat="59.3204224102" lon="18.0285104414">
        <ele>18.4</ele>
        <time>2010-11-16T12:36:18Z</time>
      </trkpt>
      <trkpt lat="59.3203839373" lon="18.028521254">
        <ele>18.2</ele>
        <time>2010-11-16T12:36:19Z</time>
      </trkpt>
      <trkpt lat="59.3202658363" lon="18.0285499201">
        <ele>17</ele>
        <time>2010-11-16T12:36:22Z</time>
      </trkpt>
      <trkpt lat="59.3202191491" lon="18.0285625768">
        <ele>16.8</ele>
        <time>2010-11-16T12:36:23Z</time>
      </trkpt>
      <trkpt lat="59.3200910737" lon="18.0285857947">
        <ele>16</ele>
        <time>2010-11-16T12:36:26Z</time>
      </trkpt>
      <trkpt lat="59.3200039019" lon="18.0285790892">
        <ele>15.6</ele>
        <time>2010-11-16T12:36:28Z</time>
      </trkpt>
      <trkpt lat="59.3199599808" lon="18.0285567095">
        <ele>15.4</ele>
        <time>2010-11-16T12:36:29Z</time>
      </trkpt>
      <trkpt lat="59.3197951926" lon="18.0282879858">
        <ele>13.8</ele>
        <time>2010-11-16T12:36:35Z</time>
      </trkpt>
      <trkpt lat="59.3197515229" lon="18.0282185836">
        <ele>13.4</ele>
        <time>2010-11-16T12:36:37Z</time>
      </trkpt>
      <trkpt lat="59.3197091943" lon="18.0281496844">
        <ele>13.2</ele>
        <time>2010-11-16T12:36:39Z</time>
      </trkpt>
      <trkpt lat="59.3196567236" lon="18.0280927713">
        <ele>12.8</ele>
        <time>2010-11-16T12:36:41Z</time>
      </trkpt>
      <trkpt lat="59.3196058455" lon="18.0280631832">
        <ele>12.6</ele>
        <time>2010-11-16T12:36:43Z</time>
      </trkpt>
      <trkpt lat="59.3195506088" lon="18.028049856">
        <ele>12.6</ele>
        <time>2010-11-16T12:36:45Z</time>
      </trkpt>
      <trkpt lat="59.3194908458" lon="18.0280515324">
        <ele>12.4</ele>
        <time>2010-11-16T12:36:47Z</time>
      </trkpt>
      <trkpt lat="59.3194349386" lon="18.0280685476">
        <ele>12.4</ele>
        <time>2010-11-16T12:36:49Z</time>
      </trkpt>
      <trkpt lat="59.3193823841" lon="18.0280871554">
        <ele>12.2</ele>
        <time>2010-11-16T12:36:51Z</time>
      </trkpt>
      <trkpt lat="59.3193322603" lon="18.0280976328">
        <ele>12.2</ele>
        <time>2010-11-16T12:36:53Z</time>
      </trkpt>
      <trkpt lat="59.3192709048" lon="18.0281045898">
        <ele>12.2</ele>
        <time>2010-11-16T12:36:55Z</time>
      </trkpt>
      <trkpt lat="59.3192135726" lon="18.0281244549">
        <ele>12</ele>
        <time>2010-11-16T12:36:57Z</time>
      </trkpt>
      <trkpt lat="59.3191601799" lon="18.0281568928">
        <ele>12</ele>
        <time>2010-11-16T12:36:59Z</time>
      </trkpt>
      <trkpt lat="59.3191072901" lon="18.0281739081">
        <ele>12</ele>
        <time>2010-11-16T12:37:01Z</time>
      </trkpt>
      <trkpt lat="59.3190592618" lon="18.0282024904">
        <ele>12</ele>
        <time>2010-11-16T12:37:04Z</time>
      </trkpt>
      <trkpt lat="59.3190437553" lon="18.0281915101">
        <ele>12</ele>
        <time>2010-11-16T12:37:05Z</time>
      </trkpt>
      <trkpt lat="59.3190227167" lon="18.0281648557">
        <ele>12</ele>
        <time>2010-11-16T12:37:07Z</time>
      </trkpt>
      <trkpt lat="59.3190086351" lon="18.0280516162">
        <ele>12</ele>
        <time>2010-11-16T12:37:11Z</time>
      </trkpt>
      <trkpt lat="59.3189786279" lon="18.0279480997">
        <ele>12</ele>
        <time>2010-11-16T12:37:13Z</time>
      </trkpt>
      <trkpt lat="59.3189487045" lon="18.0278098822">
        <ele>12</ele>
        <time>2010-11-16T12:37:15Z</time>
      </trkpt>
      <trkpt lat="59.3189358802" lon="18.0277366244">
        <ele>11.8</ele>
        <time>2010-11-16T12:37:16Z</time>
      </trkpt>
      <trkpt lat="59.3189029394" lon="18.0275775359">
        <ele>11.6</ele>
        <time>2010-11-16T12:37:18Z</time>
      </trkpt>
      <trkpt lat="59.318866981" lon="18.0274489576">
        <ele>11.2</ele>
        <time>2010-11-16T12:37:20Z</time>
      </trkpt>
      <trkpt lat="59.3188130854" lon="18.0273026934">
        <ele>11</ele>
        <time>2010-11-16T12:37:22Z</time>
      </trkpt>
      <trkpt lat="59.3187772109" lon="18.0272428467">
        <ele>10.8</ele>
        <time>2010-11-16T12:37:23Z</time>
      </trkpt>
      <trkpt lat="59.3185963295" lon="18.0268654097">
        <ele>10.2</ele>
        <time>2010-11-16T12:37:31Z</time>
      </trkpt>
      <trkpt lat="59.318552995" lon="18.0267773997">
        <ele>10.2</ele>
        <time>2010-11-16T12:37:33Z</time>
      </trkpt>
      <trkpt lat="59.3185434397" lon="18.0267543495">
        <ele>10.2</ele>
        <time>2010-11-16T12:37:34Z</time>
      </trkpt>
      <trkpt lat="59.3185286875" lon="18.0267402679">
        <ele>10.2</ele>
        <time>2010-11-16T12:37:35Z</time>
      </trkpt>
      <trkpt lat="59.3185118399" lon="18.0267187264">
        <ele>10</ele>
        <time>2010-11-16T12:37:38Z</time>
      </trkpt>
      <trkpt lat="59.3184408452" lon="18.0266448819">
        <ele>10</ele>
        <time>2010-11-16T12:37:42Z</time>
      </trkpt>
      <trkpt lat="59.3183937389" lon="18.0265521781">
        <ele>10</ele>
        <time>2010-11-16T12:37:44Z</time>
      </trkpt>
      <trkpt lat="59.3183377479" lon="18.0264588037">
        <ele>10</ele>
        <time>2010-11-16T12:37:46Z</time>
      </trkpt>
      <trkpt lat="59.3182732072" lon="18.0263562093">
        <ele>10</ele>
        <time>2010-11-16T12:37:48Z</time>
      </trkpt>
      <trkpt lat="59.3182157912" lon="18.02626141">
        <ele>9.8</ele>
        <time>2010-11-16T12:37:50Z</time>
      </trkpt>
      <trkpt lat="59.3181421143" lon="18.0262101128">
        <ele>9.8</ele>
        <time>2010-11-16T12:37:52Z</time>
      </trkpt>
      <trkpt lat="59.3180540205" lon="18.0261806085">
        <ele>9.8</ele>
        <time>2010-11-16T12:37:54Z</time>
      </trkpt>
      <trkpt lat="59.3179740572" lon="18.026137777">
        <ele>9.8</ele>
        <time>2010-11-16T12:37:56Z</time>
      </trkpt>
      <trkpt lat="59.3179365901" lon="18.0261202588">
        <ele>9.8</ele>
        <time>2010-11-16T12:37:57Z</time>
      </trkpt>
      <trkpt lat="59.3178148011" lon="18.0260985497">
        <ele>9.8</ele>
        <time>2010-11-16T12:38:00Z</time>
      </trkpt>
      <trkpt lat="59.3177640068" lon="18.0260929338">
        <ele>9.8</ele>
        <time>2010-11-16T12:38:01Z</time>
      </trkpt>
      <trkpt lat="59.3176553774" lon="18.0260818697">
        <ele>9.8</ele>
        <time>2010-11-16T12:38:04Z</time>
      </trkpt>
      <trkpt lat="59.3175718098" lon="18.0261179957">
        <ele>9.8</ele>
        <time>2010-11-16T12:38:06Z</time>
      </trkpt>
      <trkpt lat="59.3174919303" lon="18.0261457398">
        <ele>9.8</ele>
        <time>2010-11-16T12:38:08Z</time>
      </trkpt>
      <trkpt lat="59.3174497694" lon="18.0261616654">
        <ele>9.8</ele>
        <time>2010-11-16T12:38:09Z</time>
      </trkpt>
      <trkpt lat="59.3173677106" lon="18.0262120406">
        <ele>9.8</ele>
        <time>2010-11-16T12:38:11Z</time>
      </trkpt>
      <trkpt lat="59.317284143" lon="18.0262726417">
        <ele>9.8</ele>
        <time>2010-11-16T12:38:13Z</time>
      </trkpt>
      <trkpt lat="59.3172453348" lon="18.0262926745">
        <ele>9.8</ele>
        <time>2010-11-16T12:38:14Z</time>
      </trkpt>
      <trkpt lat="59.3171324306" lon="18.0262882321">
        <ele>9.8</ele>
        <time>2010-11-16T12:38:16Z</time>
      </trkpt>
      <trkpt lat="59.3170913593" lon="18.0262940156">
        <ele>9.6</ele>
        <time>2010-11-16T12:38:18Z</time>
      </trkpt>
      <trkpt lat="59.3169838196" lon="18.0263178202">
        <ele>9.2</ele>
        <time>2010-11-16T12:38:21Z</time>
      </trkpt>
      <trkpt lat="59.3169161776" lon="18.0263438879">
        <ele>8.8</ele>
        <time>2010-11-16T12:38:23Z</time>
      </trkpt>
      <trkpt lat="59.3168292573" lon="18.0263903236">
        <ele>8.6</ele>
        <time>2010-11-16T12:38:25Z</time>
      </trkpt>
      <trkpt lat="59.3167778763" lon="18.026409602">
        <ele>8.6</ele>
        <time>2010-11-16T12:38:27Z</time>
      </trkpt>
      <trkpt lat="59.3167106534" lon="18.0264495836">
        <ele>8.4</ele>
        <time>2010-11-16T12:38:29Z</time>
      </trkpt>
      <trkpt lat="59.316643682" lon="18.0264783336">
        <ele>8.2</ele>
        <time>2010-11-16T12:38:31Z</time>
      </trkpt>
      <trkpt lat="59.3165778003" lon="18.0265152977">
        <ele>8.2</ele>
        <time>2010-11-16T12:38:32Z</time>
      </trkpt>
      <trkpt lat="59.3165446918" lon="18.0265183152">
        <ele>8.2</ele>
        <time>2010-11-16T12:38:34Z</time>
      </trkpt>
      <trkpt lat="59.3164586097" lon="18.0265847837">
        <ele>8</ele>
        <time>2010-11-16T12:38:37Z</time>
      </trkpt>
      <trkpt lat="59.3164084859" lon="18.0266450495">
        <ele>7.8</ele>
        <time>2010-11-16T12:38:39Z</time>
      </trkpt>
      <trkpt lat="59.3163847652" lon="18.0266826005">
        <ele>7.6</ele>
        <time>2010-11-16T12:38:40Z</time>
      </trkpt>
      <trkpt lat="59.3163260919" lon="18.0267131106">
        <ele>7.2</ele>
        <time>2010-11-16T12:38:42Z</time>
      </trkpt>
      <trkpt lat="59.3162941568" lon="18.0267223307">
        <ele>7.2</ele>
        <time>2010-11-16T12:38:43Z</time>
      </trkpt>
      <trkpt lat="59.3162128524" lon="18.0268066526">
        <ele>6.8</ele>
        <time>2010-11-16T12:38:46Z</time>
      </trkpt>
      <trkpt lat="59.3161479765" lon="18.0268359054">
        <ele>6.6</ele>
        <time>2010-11-16T12:38:48Z</time>
      </trkpt>
      <trkpt lat="59.3161161253" lon="18.0268695168">
        <ele>6.4</ele>
        <time>2010-11-16T12:38:49Z</time>
      </trkpt>
      <trkpt lat="59.3160601342" lon="18.0270171221">
        <ele>6</ele>
        <time>2010-11-16T12:38:51Z</time>
      </trkpt>
      <trkpt lat="59.3160273609" lon="18.0271846763">
        <ele>5.6</ele>
        <time>2010-11-16T12:38:52Z</time>
      </trkpt>
      <trkpt lat="59.3159866249" lon="18.0273372268">
        <ele>5.2</ele>
        <time>2010-11-16T12:38:54Z</time>
      </trkpt>
      <trkpt lat="59.3159642452" lon="18.0274171902">
        <ele>5</ele>
        <time>2010-11-16T12:38:56Z</time>
      </trkpt>
      <trkpt lat="59.31592594" lon="18.0275689026">
        <ele>4.8</ele>
        <time>2010-11-16T12:38:58Z</time>
      </trkpt>
      <trkpt lat="59.3158901492" lon="18.0277156696">
        <ele>4.2</ele>
        <time>2010-11-16T12:38:59Z</time>
      </trkpt>
      <trkpt lat="59.3158579627" lon="18.0278631911">
        <ele>3.6</ele>
        <time>2010-11-16T12:39:02Z</time>
      </trkpt>
      <trkpt lat="59.3158380138" lon="18.0279216129">
        <ele>3.4</ele>
        <time>2010-11-16T12:39:03Z</time>
      </trkpt>
      <trkpt lat="59.3158003791" lon="18.0280384566">
        <ele>3.2</ele>
        <time>2010-11-16T12:39:04Z</time>
      </trkpt>
      <trkpt lat="59.3157730541" lon="18.0281678731">
        <ele>2.8</ele>
        <time>2010-11-16T12:39:07Z</time>
      </trkpt>
      <trkpt lat="59.3157414543" lon="18.0282873152">
        <ele>2.4</ele>
        <time>2010-11-16T12:39:09Z</time>
      </trkpt>
      <trkpt lat="59.3157083458" lon="18.028404578">
        <ele>1.8</ele>
        <time>2010-11-16T12:39:10Z</time>
      </trkpt>
      <trkpt lat="59.3156707111" lon="18.0285348327">
        <ele>1.4</ele>
        <time>2010-11-16T12:39:13Z</time>
      </trkpt>
      <trkpt lat="59.3156385246" lon="18.0286574599">
        <ele>1</ele>
        <time>2010-11-16T12:39:15Z</time>
      </trkpt>
      <trkpt lat="59.3156081821" lon="18.028783859">
        <ele>0.8</ele>
        <time>2010-11-16T12:39:17Z</time>
      </trkpt>
      <trkpt lat="59.3155739002" lon="18.0289085816">
        <ele>0.2</ele>
        <time>2010-11-16T12:39:19Z</time>
      </trkpt>
      <trkpt lat="59.3155463237" lon="18.0290369923">
        <ele>0</ele>
        <time>2010-11-16T12:39:21Z</time>
      </trkpt>
      <trkpt lat="59.3155028216" lon="18.0291632238">
        <ele>0</ele>
        <time>2010-11-16T12:39:22Z</time>
      </trkpt>
      <trkpt lat="59.3154676177" lon="18.0292902095">
        <ele>0</ele>
        <time>2010-11-16T12:39:25Z</time>
      </trkpt>
      <trkpt lat="59.3154506024" lon="18.0294018565">
        <ele>0</ele>
        <time>2010-11-16T12:39:27Z</time>
      </trkpt>
      <trkpt lat="59.315453117" lon="18.0294339591">
        <ele>0</ele>
        <time>2010-11-16T12:39:28Z</time>
      </trkpt>
      <trkpt lat="59.3154112075" lon="18.0295633757">
        <ele>0</ele>
        <time>2010-11-16T12:39:31Z</time>
      </trkpt>
      <trkpt lat="59.3153770931" lon="18.0297037725">
        <ele>0</ele>
        <time>2010-11-16T12:39:32Z</time>
      </trkpt>
      <trkpt lat="59.3153471698" lon="18.029833189">
        <ele>0</ele>
        <time>2010-11-16T12:39:34Z</time>
      </trkpt>
      <trkpt lat="59.3152972136" lon="18.0299633599">
        <ele>0</ele>
        <time>2010-11-16T12:39:37Z</time>
      </trkpt>
      <trkpt lat="59.3152514485" lon="18.0300868253">
        <ele>0</ele>
        <time>2010-11-16T12:39:39Z</time>
      </trkpt>
      <trkpt lat="59.3152190943" lon="18.0302164933">
        <ele>0</ele>
        <time>2010-11-16T12:39:40Z</time>
      </trkpt>
      <trkpt lat="59.3151922722" lon="18.0303573931">
        <ele>0</ele>
        <time>2010-11-16T12:39:42Z</time>
      </trkpt>
      <trkpt lat="59.3151568168" lon="18.0304860552">
        <ele>0</ele>
        <time>2010-11-16T12:39:44Z</time>
      </trkpt>
      <trkpt lat="59.3151137338" lon="18.030598205">
        <ele>0</ele>
        <time>2010-11-16T12:39:46Z</time>
      </trkpt>
      <trkpt lat="59.3150698965" lon="18.0307265319">
        <ele>0</ele>
        <time>2010-11-16T12:39:48Z</time>
      </trkpt>
      <trkpt lat="59.3150204433" lon="18.0308467284">
        <ele>0</ele>
        <time>2010-11-16T12:39:50Z</time>
      </trkpt>
      <trkpt lat="59.3149766898" lon="18.0309656675">
        <ele>0</ele>
        <time>2010-11-16T12:39:52Z</time>
      </trkpt>
      <trkpt lat="59.3149294159" lon="18.0310872889">
        <ele>0</ele>
        <time>2010-11-16T12:39:54Z</time>
      </trkpt>
      <trkpt lat="59.3148781186" lon="18.0312178789">
        <ele>0</ele>
        <time>2010-11-16T12:39:56Z</time>
      </trkpt>
      <trkpt lat="59.314839059" lon="18.0313311184">
        <ele>0</ele>
        <time>2010-11-16T12:39:58Z</time>
      </trkpt>
      <trkpt lat="59.3147939644" lon="18.0314544999">
        <ele>0</ele>
        <time>2010-11-16T12:40:01Z</time>
      </trkpt>
      <trkpt lat="59.3147475286" lon="18.0315771271">
        <ele>0</ele>
        <time>2010-11-16T12:40:03Z</time>
      </trkpt>
      <trkpt lat="59.3147015958" lon="18.031697156">
        <ele>0</ele>
        <time>2010-11-16T12:40:04Z</time>
      </trkpt>
      <trkpt lat="59.3146570041" lon="18.0318216272">
        <ele>0</ele>
        <time>2010-11-16T12:40:06Z</time>
      </trkpt>
      <trkpt lat="59.3146144241" lon="18.0319326035">
        <ele>0</ele>
        <time>2010-11-16T12:40:09Z</time>
      </trkpt>
      <trkpt lat="59.314582489" lon="18.0320519618">
        <ele>0</ele>
        <time>2010-11-16T12:40:10Z</time>
      </trkpt>
      <trkpt lat="59.3145459439" lon="18.0321847311">
        <ele>0</ele>
        <time>2010-11-16T12:40:13Z</time>
      </trkpt>
      <trkpt lat="59.3145109914" lon="18.0322832184">
        <ele>0</ele>
        <time>2010-11-16T12:40:14Z</time>
      </trkpt>
      <trkpt lat="59.3144712612" lon="18.0323796941">
        <ele>0</ele>
        <time>2010-11-16T12:40:16Z</time>
      </trkpt>
      <trkpt lat="59.3144224785" lon="18.0324918439">
        <ele>0</ele>
        <time>2010-11-16T12:40:18Z</time>
      </trkpt>
      <trkpt lat="59.3143793118" lon="18.0325994675">
        <ele>0</ele>
        <time>2010-11-16T12:40:20Z</time>
      </trkpt>
      <trkpt lat="59.3143275116" lon="18.0326850467">
        <ele>0</ele>
        <time>2010-11-16T12:40:22Z</time>
      </trkpt>
      <trkpt lat="59.3142810759" lon="18.0327946819">
        <ele>0</ele>
        <time>2010-11-16T12:40:25Z</time>
      </trkpt>
      <trkpt lat="59.3142431897" lon="18.03287892">
        <ele>0</ele>
        <time>2010-11-16T12:40:26Z</time>
      </trkpt>
      <trkpt lat="59.3142373224" lon="18.0328841168">
        <ele>0</ele>
        <time>2010-11-16T12:40:27Z</time>
      </trkpt>
      <trkpt lat="59.3141977598" lon="18.0330095939">
        <ele>0</ele>
        <time>2010-11-16T12:40:31Z</time>
      </trkpt>
      <trkpt lat="59.3141919763" lon="18.0330363321">
        <ele>0</ele>
        <time>2010-11-16T12:40:32Z</time>
      </trkpt>
      <trkpt lat="59.3141457082" lon="18.0331387589">
        <ele>0</ele>
        <time>2010-11-16T12:40:34Z</time>
      </trkpt>
      <trkpt lat="59.3140968417" lon="18.0333347278">
        <ele>0.6</ele>
        <time>2010-11-16T12:40:39Z</time>
      </trkpt>
      <trkpt lat="59.314078653" lon="18.033429527">
        <ele>0.8</ele>
        <time>2010-11-16T12:40:40Z</time>
      </trkpt>
      <trkpt lat="59.3140517471" lon="18.0335480471">
        <ele>1</ele>
        <time>2010-11-16T12:40:43Z</time>
      </trkpt>
      <trkpt lat="59.3140396772" lon="18.0336779666">
        <ele>1.2</ele>
        <time>2010-11-16T12:40:45Z</time>
      </trkpt>
      <trkpt lat="59.3140237516" lon="18.0338062096">
        <ele>1.2</ele>
        <time>2010-11-16T12:40:46Z</time>
      </trkpt>
      <trkpt lat="59.3140030483" lon="18.0339322734">
        <ele>1.4</ele>
        <time>2010-11-16T12:40:48Z</time>
      </trkpt>
      <trkpt lat="59.313967509" lon="18.0340434174">
        <ele>1.4</ele>
        <time>2010-11-16T12:40:50Z</time>
      </trkpt>
      <trkpt lat="59.3139264377" lon="18.0341520468">
        <ele>1.6</ele>
        <time>2010-11-16T12:40:52Z</time>
      </trkpt>
      <trkpt lat="59.3138794152" lon="18.0342533002">
        <ele>1.6</ele>
        <time>2010-11-16T12:40:54Z</time>
      </trkpt>
      <trkpt lat="59.3138308002" lon="18.0343532124">
        <ele>1.6</ele>
        <time>2010-11-16T12:40:56Z</time>
      </trkpt>
      <trkpt lat="59.3137802574" lon="18.0344243748">
        <ele>1.6</ele>
        <time>2010-11-16T12:40:58Z</time>
      </trkpt>
      <trkpt lat="59.313743377" lon="18.034518252">
        <ele>1.6</ele>
        <time>2010-11-16T12:41:00Z</time>
      </trkpt>
      <trkpt lat="59.3137015513" lon="18.0346376941">
        <ele>1.6</ele>
        <time>2010-11-16T12:41:04Z</time>
      </trkpt>
      <trkpt lat="59.3136795908" lon="18.0347946033">
        <ele>1.6</ele>
        <time>2010-11-16T12:41:07Z</time>
      </trkpt>
      <trkpt lat="59.3136501703" lon="18.0348869718">
        <ele>1.8</ele>
        <time>2010-11-16T12:41:09Z</time>
      </trkpt>
      <trkpt lat="59.3136124517" lon="18.0349857944">
        <ele>1.8</ele>
        <time>2010-11-16T12:41:10Z</time>
      </trkpt>
      <trkpt lat="59.313577583" lon="18.0350928313">
        <ele>1.8</ele>
        <time>2010-11-16T12:41:13Z</time>
      </trkpt>
      <trkpt lat="59.3135431334" lon="18.0351874629">
        <ele>1.8</ele>
        <time>2010-11-16T12:41:14Z</time>
      </trkpt>
      <trkpt lat="59.313504409" lon="18.0352747185">
        <ele>1.8</ele>
        <time>2010-11-16T12:41:16Z</time>
      </trkpt>
      <trkpt lat="59.313459063" lon="18.0353741278">
        <ele>1.8</ele>
        <time>2010-11-16T12:41:18Z</time>
      </trkpt>
      <trkpt lat="59.3134167344" lon="18.035476387">
        <ele>1.8</ele>
        <time>2010-11-16T12:41:21Z</time>
      </trkpt>
      <trkpt lat="59.3133661915" lon="18.035607899">
        <ele>1.8</ele>
        <time>2010-11-16T12:41:23Z</time>
      </trkpt>
      <trkpt lat="59.3133225218" lon="18.0357545823">
        <ele>1.8</ele>
        <time>2010-11-16T12:41:26Z</time>
      </trkpt>
      <trkpt lat="59.3132765052" lon="18.0358502198">
        <ele>1.8</ele>
        <time>2010-11-16T12:41:27Z</time>
      </trkpt>
      <trkpt lat="59.3132255432" lon="18.0359586815">
        <ele>1.8</ele>
        <time>2010-11-16T12:41:29Z</time>
      </trkpt>
      <trkpt lat="59.3131763415" lon="18.0360670595">
        <ele>1.8</ele>
        <time>2010-11-16T12:41:31Z</time>
      </trkpt>
      <trkpt lat="59.3131138125" lon="18.0361740126">
        <ele>1.8</ele>
        <time>2010-11-16T12:41:34Z</time>
      </trkpt>
      <trkpt lat="59.3130536305" lon="18.0362691471">
        <ele>1.8</ele>
        <time>2010-11-16T12:41:36Z</time>
      </trkpt>
      <trkpt lat="59.312995963" lon="18.0363657904">
        <ele>1.8</ele>
        <time>2010-11-16T12:41:37Z</time>
      </trkpt>
      <trkpt lat="59.3129417321" lon="18.0364314207">
        <ele>1.8</ele>
        <time>2010-11-16T12:41:39Z</time>
      </trkpt>
      <trkpt lat="59.3128842323" lon="18.0365047623">
        <ele>1.8</ele>
        <time>2010-11-16T12:41:41Z</time>
      </trkpt>
      <trkpt lat="59.3128289117" lon="18.0366011542">
        <ele>1.8</ele>
        <time>2010-11-16T12:41:43Z</time>
      </trkpt>
      <trkpt lat="59.3127777821" lon="18.036698971">
        <ele>1.8</ele>
        <time>2010-11-16T12:41:45Z</time>
      </trkpt>
      <trkpt lat="59.3127265687" lon="18.036793435">
        <ele>1.8</ele>
        <time>2010-11-16T12:41:47Z</time>
      </trkpt>
      <trkpt lat="59.3126751877" lon="18.0368796847">
        <ele>1.8</ele>
        <time>2010-11-16T12:41:49Z</time>
      </trkpt>
      <trkpt lat="59.3126218788" lon="18.0369743164">
        <ele>1.8</ele>
        <time>2010-11-16T12:41:51Z</time>
      </trkpt>
      <trkpt lat="59.3125983257" lon="18.037022177">
        <ele>1.8</ele>
        <time>2010-11-16T12:41:52Z</time>
      </trkpt>
      <trkpt lat="59.3125765327" lon="18.0370642542">
        <ele>1.8</ele>
        <time>2010-11-16T12:41:53Z</time>
      </trkpt>
      <trkpt lat="59.3125275824" lon="18.037159724">
        <ele>1.8</ele>
        <time>2010-11-16T12:41:55Z</time>
      </trkpt>
      <trkpt lat="59.3124847509" lon="18.0372513382">
        <ele>1.8</ele>
        <time>2010-11-16T12:41:58Z</time>
      </trkpt>
      <trkpt lat="59.3124439311" lon="18.0373370012">
        <ele>1.8</ele>
        <time>2010-11-16T12:41:59Z</time>
      </trkpt>
      <trkpt lat="59.3123933044" lon="18.0374300403">
        <ele>1.8</ele>
        <time>2010-11-16T12:42:01Z</time>
      </trkpt>
      <trkpt lat="59.3123353854" lon="18.0375092492">
        <ele>1.8</ele>
        <time>2010-11-16T12:42:03Z</time>
      </trkpt>
      <trkpt lat="59.3122831662" lon="18.0375939902">
        <ele>1.8</ele>
        <time>2010-11-16T12:42:05Z</time>
      </trkpt>
      <trkpt lat="59.3122274266" lon="18.0376315412">
        <ele>1.8</ele>
        <time>2010-11-16T12:42:08Z</time>
      </trkpt>
      <trkpt lat="59.3121743691" lon="18.0376634762">
        <ele>1.8</ele>
        <time>2010-11-16T12:42:09Z</time>
      </trkpt>
      <trkpt lat="59.3121221499" lon="18.0377412602">
        <ele>1.8</ele>
        <time>2010-11-16T12:42:13Z</time>
      </trkpt>
      <trkpt lat="59.3120990997" lon="18.0378281805">
        <ele>1.8</ele>
        <time>2010-11-16T12:42:14Z</time>
      </trkpt>
      <trkpt lat="59.3120801566" lon="18.0379229798">
        <ele>1.8</ele>
        <time>2010-11-16T12:42:16Z</time>
      </trkpt>
      <trkpt lat="59.3120471319" lon="18.0380311901">
        <ele>1.8</ele>
        <time>2010-11-16T12:42:19Z</time>
      </trkpt>
      <trkpt lat="59.31202207" lon="18.0381189486">
        <ele>1.8</ele>
        <time>2010-11-16T12:42:21Z</time>
      </trkpt>
      <trkpt lat="59.3120013667" lon="18.0381787954">
        <ele>1.8</ele>
        <time>2010-11-16T12:42:22Z</time>
      </trkpt>
      <trkpt lat="59.3119988522" lon="18.038214167">
        <ele>1.8</ele>
        <time>2010-11-16T12:42:24Z</time>
      </trkpt>
      <trkpt lat="59.3119749637" lon="18.038274852">
        <ele>1.8</ele>
        <time>2010-11-16T12:42:29Z</time>
      </trkpt>
      <trkpt lat="59.311956775" lon="18.0383411528">
        <ele>1.8</ele>
        <time>2010-11-16T12:42:33Z</time>
      </trkpt>
      <trkpt lat="59.3119489799" lon="18.0383829785">
        <ele>1.8</ele>
        <time>2010-11-16T12:42:34Z</time>
      </trkpt>
      <trkpt lat="59.3119388378" lon="18.0384763529">
        <ele>1.6</ele>
        <time>2010-11-16T12:42:39Z</time>
      </trkpt>
      <trkpt lat="59.3119102555" lon="18.0385289074">
        <ele>1.2</ele>
        <time>2010-11-16T12:42:42Z</time>
      </trkpt>
      <trkpt lat="59.3118634007" lon="18.0386475951">
        <ele>0.8</ele>
        <time>2010-11-16T12:42:45Z</time>
      </trkpt>
      <trkpt lat="59.3118346507" lon="18.0387190927">
        <ele>0.4</ele>
        <time>2010-11-16T12:42:48Z</time>
      </trkpt>
      <trkpt lat="59.3117856166" lon="18.0388230282">
        <ele>0.2</ele>
        <time>2010-11-16T12:42:51Z</time>
      </trkpt>
      <trkpt lat="59.3117327268" lon="18.03895278">
        <ele>0</ele>
        <time>2010-11-16T12:42:54Z</time>
      </trkpt>
      <trkpt lat="59.3116993669" lon="18.0390557936">
        <ele>0</ele>
        <time>2010-11-16T12:42:56Z</time>
      </trkpt>
      <trkpt lat="59.3116676833" lon="18.039138523">
        <ele>0</ele>
        <time>2010-11-16T12:42:58Z</time>
      </trkpt>
      <trkpt lat="59.3116304677" lon="18.0392252756">
        <ele>0</ele>
        <time>2010-11-16T12:43:00Z</time>
      </trkpt>
      <trkpt lat="59.3115813497" lon="18.0393166383">
        <ele>0</ele>
        <time>2010-11-16T12:43:02Z</time>
      </trkpt>
      <trkpt lat="59.311546481" lon="18.0394306322">
        <ele>0</ele>
        <time>2010-11-16T12:43:04Z</time>
      </trkpt>
      <trkpt lat="59.3115184855" lon="18.0395507448">
        <ele>0</ele>
        <time>2010-11-16T12:43:06Z</time>
      </trkpt>
      <trkpt lat="59.3114846226" lon="18.0396804966">
        <ele>0</ele>
        <time>2010-11-16T12:43:08Z</time>
      </trkpt>
      <trkpt lat="59.3114496701" lon="18.0398037105">
        <ele>0</ele>
        <time>2010-11-16T12:43:09Z</time>
      </trkpt>
      <trkpt lat="59.3114027314" lon="18.0399174529">
        <ele>0</ele>
        <time>2010-11-16T12:43:11Z</time>
      </trkpt>
      <trkpt lat="59.3113536135" lon="18.0400311115">
        <ele>0</ele>
        <time>2010-11-16T12:43:14Z</time>
      </trkpt>
      <trkpt lat="59.3113016457" lon="18.0401365558">
        <ele>0</ele>
        <time>2010-11-16T12:43:16Z</time>
      </trkpt>
      <trkpt lat="59.311251019" lon="18.0402404913">
        <ele>0</ele>
        <time>2010-11-16T12:43:18Z</time>
      </trkpt>
      <trkpt lat="59.3112016497" lon="18.0403394816">
        <ele>0</ele>
        <time>2010-11-16T12:43:19Z</time>
      </trkpt>
      <trkpt lat="59.3111572256" lon="18.0404379689">
        <ele>0</ele>
        <time>2010-11-16T12:43:21Z</time>
      </trkpt>
      <trkpt lat="59.3111159866" lon="18.0405380488">
        <ele>0</ele>
        <time>2010-11-16T12:43:24Z</time>
      </trkpt>
      <trkpt lat="59.3110600794" lon="18.0406895935">
        <ele>0</ele>
        <time>2010-11-16T12:43:26Z</time>
      </trkpt>
      <trkpt lat="59.3110269709" lon="18.0407693054">
        <ele>0</ele>
        <time>2010-11-16T12:43:28Z</time>
      </trkpt>
      <trkpt lat="59.310989839" lon="18.0408858138">
        <ele>0</ele>
        <time>2010-11-16T12:43:31Z</time>
      </trkpt>
      <trkpt lat="59.310962095" lon="18.0409869834">
        <ele>0</ele>
        <time>2010-11-16T12:43:32Z</time>
      </trkpt>
      <trkpt lat="59.3109436548" lon="18.0410787652">
        <ele>0</ele>
        <time>2010-11-16T12:43:34Z</time>
      </trkpt>
      <trkpt lat="59.3109045951" lon="18.0412067568">
        <ele>0</ele>
        <time>2010-11-16T12:43:38Z</time>
      </trkpt>
      <trkpt lat="59.3108527112" lon="18.0412818586">
        <ele>0</ele>
        <time>2010-11-16T12:43:40Z</time>
      </trkpt>
      <trkpt lat="59.3108086224" lon="18.0413565413">
        <ele>0</ele>
        <time>2010-11-16T12:43:43Z</time>
      </trkpt>
      <trkpt lat="59.3107543077" lon="18.0414898974">
        <ele>0</ele>
        <time>2010-11-16T12:43:45Z</time>
      </trkpt>
      <trkpt lat="59.3107247195" lon="18.0415676814">
        <ele>0</ele>
        <time>2010-11-16T12:43:46Z</time>
      </trkpt>
      <trkpt lat="59.3106651242" lon="18.0417100899">
        <ele>0</ele>
        <time>2010-11-16T12:43:49Z</time>
      </trkpt>
      <trkpt lat="59.310616593" lon="18.0418338905">
        <ele>0</ele>
        <time>2010-11-16T12:43:51Z</time>
      </trkpt>
      <trkpt lat="59.3105687324" lon="18.0419652349">
        <ele>0</ele>
        <time>2010-11-16T12:43:52Z</time>
      </trkpt>
      <trkpt lat="59.31052632" lon="18.0421002673">
        <ele>0</ele>
        <time>2010-11-16T12:43:54Z</time>
      </trkpt>
      <trkpt lat="59.3105067063" lon="18.0421762912">
        <ele>0</ele>
        <time>2010-11-16T12:43:56Z</time>
      </trkpt>
      <trkpt lat="59.310455912" lon="18.0423911192">
        <ele>0</ele>
        <time>2010-11-16T12:43:58Z</time>
      </trkpt>
      <trkpt lat="59.3104074646" lon="18.0425217931">
        <ele>0</ele>
        <time>2010-11-16T12:44:01Z</time>
      </trkpt>
      <trkpt lat="59.3103731827" lon="18.0426595915">
        <ele>0</ele>
        <time>2010-11-16T12:44:03Z</time>
      </trkpt>
      <trkpt lat="59.3103147608" lon="18.0428595836">
        <ele>0</ele>
        <time>2010-11-16T12:44:05Z</time>
      </trkpt>
      <trkpt lat="59.3103011821" lon="18.0428957096">
        <ele>0</ele>
        <time>2010-11-16T12:44:06Z</time>
      </trkpt>
      <trkpt lat="59.3102788863" lon="18.0429777684">
        <ele>0</ele>
        <time>2010-11-16T12:44:07Z</time>
      </trkpt>
      <trkpt lat="59.3102441014" lon="18.0431485916">
        <ele>0</ele>
        <time>2010-11-16T12:44:09Z</time>
      </trkpt>
      <trkpt lat="59.3102159382" lon="18.0432874796">
        <ele>0</ele>
        <time>2010-11-16T12:44:10Z</time>
      </trkpt>
      <trkpt lat="59.3102088974" lon="18.0433567979">
        <ele>0</ele>
        <time>2010-11-16T12:44:12Z</time>
      </trkpt>
      <trkpt lat="59.3101720171" lon="18.0435112764">
        <ele>0</ele>
        <time>2010-11-16T12:44:14Z</time>
      </trkpt>
      <trkpt lat="59.3101121703" lon="18.0437373362">
        <ele>0</ele>
        <time>2010-11-16T12:44:16Z</time>
      </trkpt>
      <trkpt lat="59.3100927243" lon="18.0438185568">
        <ele>0</ele>
        <time>2010-11-16T12:44:18Z</time>
      </trkpt>
      <trkpt lat="59.3100756252" lon="18.044018968">
        <ele>0</ele>
        <time>2010-11-16T12:44:21Z</time>
      </trkpt>
      <trkpt lat="59.310110913" lon="18.0442206366">
        <ele>0</ele>
        <time>2010-11-16T12:44:23Z</time>
      </trkpt>
      <trkpt lat="59.3101554209" lon="18.0443845027">
        <ele>0</ele>
        <time>2010-11-16T12:44:26Z</time>
      </trkpt>
      <trkpt lat="59.3101721009" lon="18.0444754463">
        <ele>0</ele>
        <time>2010-11-16T12:44:28Z</time>
      </trkpt>
      <trkpt lat="59.3101806504" lon="18.04455893">
        <ele>0</ele>
        <time>2010-11-16T12:44:29Z</time>
      </trkpt>
      <trkpt lat="59.3102088974" lon="18.044612658">
        <ele>0</ele>
        <time>2010-11-16T12:44:32Z</time>
      </trkpt>
      <trkpt lat="59.3102184528" lon="18.0447760213">
        <ele>0</ele>
        <time>2010-11-16T12:44:34Z</time>
      </trkpt>
      <trkpt lat="59.3101748669" lon="18.0448982294">
        <ele>0</ele>
        <time>2010-11-16T12:44:37Z</time>
      </trkpt>
      <trkpt lat="59.3101115836" lon="18.0449598363">
        <ele>0</ele>
        <time>2010-11-16T12:44:39Z</time>
      </trkpt>
      <trkpt lat="59.3100308659" lon="18.0450795299">
        <ele>0</ele>
        <time>2010-11-16T12:44:40Z</time>
      </trkpt>
      <trkpt lat="59.3099467116" lon="18.0451221099">
        <ele>0</ele>
        <time>2010-11-16T12:44:42Z</time>
      </trkpt>
      <trkpt lat="59.3098455421" lon="18.0450583236">
        <ele>0</ele>
        <time>2010-11-16T12:44:45Z</time>
      </trkpt>
      <trkpt lat="59.3098015371" lon="18.0450357763">
        <ele>0</ele>
        <time>2010-11-16T12:44:46Z</time>
      </trkpt>
      <trkpt lat="59.309741355" lon="18.0451140633">
        <ele>0</ele>
        <time>2010-11-16T12:44:49Z</time>
      </trkpt>
      <trkpt lat="59.3096774011" lon="18.0452241176">
        <ele>0</ele>
        <time>2010-11-16T12:44:51Z</time>
      </trkpt>
      <trkpt lat="59.3096509143" lon="18.0452781809">
        <ele>0</ele>
        <time>2010-11-16T12:44:52Z</time>
      </trkpt>
      <trkpt lat="59.309594588" lon="18.0454075974">
        <ele>0</ele>
        <time>2010-11-16T12:44:54Z</time>
      </trkpt>
      <trkpt lat="59.3095531814" lon="18.0455350023">
        <ele>0</ele>
        <time>2010-11-16T12:44:56Z</time>
      </trkpt>
      <trkpt lat="59.3095169716" lon="18.0456513431">
        <ele>0</ele>
        <time>2010-11-16T12:44:58Z</time>
      </trkpt>
      <trkpt lat="59.3094909039" lon="18.0457553625">
        <ele>0</ele>
        <time>2010-11-16T12:45:00Z</time>
      </trkpt>
      <trkpt lat="59.3094505869" lon="18.0458660873">
        <ele>0</ele>
        <time>2010-11-16T12:45:02Z</time>
      </trkpt>
      <trkpt lat="59.3094105214" lon="18.0459878764">
        <ele>0</ele>
        <time>2010-11-16T12:45:04Z</time>
      </trkpt>
      <trkpt lat="59.3093612359" lon="18.0460980983">
        <ele>0</ele>
        <time>2010-11-16T12:45:06Z</time>
      </trkpt>
      <trkpt lat="59.3093162251" lon="18.0462186301">
        <ele>0</ele>
        <time>2010-11-16T12:45:08Z</time>
      </trkpt>
      <trkpt lat="59.3092723039" lon="18.046329355">
        <ele>0</ele>
        <time>2010-11-16T12:45:10Z</time>
      </trkpt>
      <trkpt lat="59.3092274607" lon="18.0464543291">
        <ele>0</ele>
        <time>2010-11-16T12:45:12Z</time>
      </trkpt>
      <trkpt lat="59.3091897422" lon="18.0465742741">
        <ele>0</ele>
        <time>2010-11-16T12:45:14Z</time>
      </trkpt>
      <trkpt lat="59.3091653509" lon="18.046700254">
        <ele>0</ele>
        <time>2010-11-16T12:45:16Z</time>
      </trkpt>
      <trkpt lat="59.3091363495" lon="18.0467727575">
        <ele>0</ele>
        <time>2010-11-16T12:45:18Z</time>
      </trkpt>
      <trkpt lat="59.3091328291" lon="18.0468109789">
        <ele>0</ele>
        <time>2010-11-16T12:45:19Z</time>
      </trkpt>
      <trkpt lat="59.3091171549" lon="18.046951711">
        <ele>0</ele>
        <time>2010-11-16T12:45:22Z</time>
      </trkpt>
      <trkpt lat="59.3091091921" lon="18.0470271481">
        <ele>0</ele>
        <time>2010-11-16T12:45:23Z</time>
      </trkpt>
      <trkpt lat="59.3090843817" lon="18.047217082">
        <ele>0</ele>
        <time>2010-11-16T12:45:25Z</time>
      </trkpt>
      <trkpt lat="59.3090683723" lon="18.0473226101">
        <ele>0</ele>
        <time>2010-11-16T12:45:27Z</time>
      </trkpt>
      <trkpt lat="59.3090417178" lon="18.0474273">
        <ele>0</ele>
        <time>2010-11-16T12:45:29Z</time>
      </trkpt>
      <trkpt lat="59.3090071006" lon="18.0475446466">
        <ele>0</ele>
        <time>2010-11-16T12:45:31Z</time>
      </trkpt>
      <trkpt lat="59.308979608" lon="18.0476632505">
        <ele>0</ele>
        <time>2010-11-16T12:45:33Z</time>
      </trkpt>
      <trkpt lat="59.3089594914" lon="18.0477857101">
        <ele>0</ele>
        <time>2010-11-16T12:45:35Z</time>
      </trkpt>
      <trkpt lat="59.3089407998" lon="18.0479049845">
        <ele>0</ele>
        <time>2010-11-16T12:45:37Z</time>
      </trkpt>
      <trkpt lat="59.3089233654" lon="18.0480505781">
        <ele>0</ele>
        <time>2010-11-16T12:45:39Z</time>
      </trkpt>
      <trkpt lat="59.3089047576" lon="18.0481978481">
        <ele>0</ele>
        <time>2010-11-16T12:45:41Z</time>
      </trkpt>
      <trkpt lat="59.3088734093" lon="18.0483461239">
        <ele>0</ele>
        <time>2010-11-16T12:45:43Z</time>
      </trkpt>
      <trkpt lat="59.3088451623" lon="18.0485061344">
        <ele>0</ele>
        <time>2010-11-16T12:45:45Z</time>
      </trkpt>
      <trkpt lat="59.3088234532" lon="18.0486059628">
        <ele>0</ele>
        <time>2010-11-16T12:45:47Z</time>
      </trkpt>
      <trkpt lat="59.3087895065" lon="18.0487623691">
        <ele>0</ele>
        <time>2010-11-16T12:45:49Z</time>
      </trkpt>
      <trkpt lat="59.3087629358" lon="18.0489133271">
        <ele>0</ele>
        <time>2010-11-16T12:45:51Z</time>
      </trkpt>
      <trkpt lat="59.308756398" lon="18.0490578311">
        <ele>0</ele>
        <time>2010-11-16T12:45:53Z</time>
      </trkpt>
      <trkpt lat="59.3087476808" lon="18.049171322">
        <ele>0</ele>
        <time>2010-11-16T12:45:55Z</time>
      </trkpt>
      <trkpt lat="59.3087411429" lon="18.0492200208">
        <ele>0</ele>
        <time>2010-11-16T12:45:56Z</time>
      </trkpt>
      <trkpt lat="59.3087552245" lon="18.049318089">
        <ele>0</ele>
        <time>2010-11-16T12:46:00Z</time>
      </trkpt>
      <trkpt lat="59.3087632711" lon="18.0493938614">
        <ele>0</ele>
        <time>2010-11-16T12:46:02Z</time>
      </trkpt>
      <trkpt lat="59.3087245467" lon="18.0495313246">
        <ele>0</ele>
        <time>2010-11-16T12:46:05Z</time>
      </trkpt>
      <trkpt lat="59.308689678" lon="18.0496457375">
        <ele>0</ele>
        <time>2010-11-16T12:46:08Z</time>
      </trkpt>
      <trkpt lat="59.3086542226" lon="18.0497816919">
        <ele>0</ele>
        <time>2010-11-16T12:46:10Z</time>
      </trkpt>
      <trkpt lat="59.3086438291" lon="18.0499467315">
        <ele>0</ele>
        <time>2010-11-16T12:46:12Z</time>
      </trkpt>
      <trkpt lat="59.3086367883" lon="18.0500764834">
        <ele>0</ele>
        <time>2010-11-16T12:46:14Z</time>
      </trkpt>
      <trkpt lat="59.3086226228" lon="18.050220652">
        <ele>0</ele>
        <time>2010-11-16T12:46:16Z</time>
      </trkpt>
      <trkpt lat="59.3086027577" lon="18.0503540081">
        <ele>0</ele>
        <time>2010-11-16T12:46:18Z</time>
      </trkpt>
      <trkpt lat="59.3085854072" lon="18.0504815806">
        <ele>0</ele>
        <time>2010-11-16T12:46:20Z</time>
      </trkpt>
      <trkpt lat="59.308552634" lon="18.0506009388">
        <ele>0</ele>
        <time>2010-11-16T12:46:22Z</time>
      </trkpt>
      <trkpt lat="59.3085145802" lon="18.0507157709">
        <ele>0</ele>
        <time>2010-11-16T12:46:24Z</time>
      </trkpt>
      <trkpt lat="59.308474347" lon="18.0508480373">
        <ele>0</ele>
        <time>2010-11-16T12:46:26Z</time>
      </trkpt>
      <trkpt lat="59.3084401489" lon="18.0509549065">
        <ele>0</ele>
        <time>2010-11-16T12:46:28Z</time>
      </trkpt>
      <trkpt lat="59.3083998319" lon="18.0510726722">
        <ele>0</ele>
        <time>2010-11-16T12:46:30Z</time>
      </trkpt>
      <trkpt lat="59.3083566652" lon="18.0512019211">
        <ele>0</ele>
        <time>2010-11-16T12:46:32Z</time>
      </trkpt>
      <trkpt lat="59.3083309327" lon="18.0512623546">
        <ele>0</ele>
        <time>2010-11-16T12:46:33Z</time>
      </trkpt>
      <trkpt lat="59.3083083854" lon="18.0513237101">
        <ele>0</ele>
        <time>2010-11-16T12:46:34Z</time>
      </trkpt>
      <trkpt lat="59.3082697449" lon="18.0514196828">
        <ele>0</ele>
        <time>2010-11-16T12:46:36Z</time>
      </trkpt>
      <trkpt lat="59.3082463594" lon="18.0514962096">
        <ele>0</ele>
        <time>2010-11-16T12:46:37Z</time>
      </trkpt>
      <trkpt lat="59.3082004265" lon="18.0516220219">
        <ele>0</ele>
        <time>2010-11-16T12:46:41Z</time>
      </trkpt>
      <trkpt lat="59.3081580979" lon="18.0517324953">
        <ele>0</ele>
        <time>2010-11-16T12:46:43Z</time>
      </trkpt>
      <trkpt lat="59.3081132548" lon="18.0518743171">
        <ele>0</ele>
        <time>2010-11-16T12:46:45Z</time>
      </trkpt>
      <trkpt lat="59.3080793081" lon="18.0519693678">
        <ele>0</ele>
        <time>2010-11-16T12:46:47Z</time>
      </trkpt>
      <trkpt lat="59.3080320342" lon="18.0520972756">
        <ele>0</ele>
        <time>2010-11-16T12:46:49Z</time>
      </trkpt>
      <trkpt lat="59.3079891188" lon="18.0522306317">
        <ele>0</ele>
        <time>2010-11-16T12:46:51Z</time>
      </trkpt>
      <trkpt lat="59.3079674097" lon="18.0523456313">
        <ele>0</ele>
        <time>2010-11-16T12:46:53Z</time>
      </trkpt>
      <trkpt lat="59.3079550045" lon="18.0524501536">
        <ele>0</ele>
        <time>2010-11-16T12:46:55Z</time>
      </trkpt>
      <trkpt lat="59.3079393304" lon="18.0525626387">
        <ele>0</ele>
        <time>2010-11-16T12:46:57Z</time>
      </trkpt>
      <trkpt lat="59.3079319543" lon="18.0526825837">
        <ele>0</ele>
        <time>2010-11-16T12:46:59Z</time>
      </trkpt>
      <trkpt lat="59.3079203873" lon="18.0528194601">
        <ele>0</ele>
        <time>2010-11-16T12:47:01Z</time>
      </trkpt>
      <trkpt lat="59.3079066409" lon="18.0529383993">
        <ele>0</ele>
        <time>2010-11-16T12:47:03Z</time>
      </trkpt>
      <trkpt lat="59.3078761308" lon="18.0530613618">
        <ele>0</ele>
        <time>2010-11-16T12:47:05Z</time>
      </trkpt>
      <trkpt lat="59.307861211" lon="18.0531361283">
        <ele>0</ele>
        <time>2010-11-16T12:47:07Z</time>
      </trkpt>
      <trkpt lat="59.3078466265" lon="18.0532373817">
        <ele>0</ele>
        <time>2010-11-16T12:47:10Z</time>
      </trkpt>
      <trkpt lat="59.3078386637" lon="18.0533071191">
        <ele>0</ele>
        <time>2010-11-16T12:47:13Z</time>
      </trkpt>
      <trkpt lat="59.307821397" lon="18.0533709892">
        <ele>0</ele>
        <time>2010-11-16T12:47:16Z</time>
      </trkpt>
      <trkpt lat="59.3078156973" lon="18.0533815503">
        <ele>0</ele>
        <time>2010-11-16T12:47:17Z</time>
      </trkpt>
      <trkpt lat="59.3078129313" lon="18.05339932">
        <ele>0</ele>
        <time>2010-11-16T12:47:19Z</time>
      </trkpt>
      <trkpt lat="59.3078056391" lon="18.0533983141">
        <ele>0</ele>
        <time>2010-11-16T12:47:21Z</time>
      </trkpt>
      <trkpt lat="59.3077837623" lon="18.0535352744">
        <ele>0</ele>
        <time>2010-11-16T12:47:25Z</time>
      </trkpt>
      <trkpt lat="59.3077838461" lon="18.0535619288">
        <ele>0</ele>
        <time>2010-11-16T12:47:26Z</time>
      </trkpt>
      <trkpt lat="59.3077747098" lon="18.0536604162">
        <ele>0</ele>
        <time>2010-11-16T12:47:28Z</time>
      </trkpt>
      <trkpt lat="59.3077569402" lon="18.0537579815">
        <ele>0</ele>
        <time>2010-11-16T12:47:30Z</time>
      </trkpt>
      <trkpt lat="59.3077519111" lon="18.0538678682">
        <ele>0</ele>
        <time>2010-11-16T12:47:32Z</time>
      </trkpt>
      <trkpt lat="59.3077318783" lon="18.0539799342">
        <ele>0</ele>
        <time>2010-11-16T12:47:34Z</time>
      </trkpt>
      <trkpt lat="59.3076980993" lon="18.0540935928">
        <ele>0</ele>
        <time>2010-11-16T12:47:36Z</time>
      </trkpt>
      <trkpt lat="59.3076699361" lon="18.0542066646">
        <ele>0</ele>
        <time>2010-11-16T12:47:38Z</time>
      </trkpt>
      <trkpt lat="59.3076471373" lon="18.0543098458">
        <ele>0</ele>
        <time>2010-11-16T12:47:40Z</time>
      </trkpt>
      <trkpt lat="59.3076152861" lon="18.0544225823">
        <ele>0</ele>
        <time>2010-11-16T12:47:42Z</time>
      </trkpt>
      <trkpt lat="59.3075865362" lon="18.0545415215">
        <ele>0</ele>
        <time>2010-11-16T12:47:44Z</time>
      </trkpt>
      <trkpt lat="59.307560217" lon="18.0546597063">
        <ele>0</ele>
        <time>2010-11-16T12:47:46Z</time>
      </trkpt>
      <trkpt lat="59.3075344846" lon="18.0547722752">
        <ele>0</ele>
        <time>2010-11-16T12:47:48Z</time>
      </trkpt>
      <trkpt lat="59.3075144518" lon="18.0548866881">
        <ele>0</ele>
        <time>2010-11-16T12:47:49Z</time>
      </trkpt>
      <trkpt lat="59.3074917369" lon="18.055003448">
        <ele>0</ele>
        <time>2010-11-16T12:47:52Z</time>
      </trkpt>
      <trkpt lat="59.3074629032" lon="18.0551384804">
        <ele>0</ele>
        <time>2010-11-16T12:47:54Z</time>
      </trkpt>
      <trkpt lat="59.3074357458" lon="18.0552694057">
        <ele>0</ele>
        <time>2010-11-16T12:47:56Z</time>
      </trkpt>
      <trkpt lat="59.3074081694" lon="18.0553945475">
        <ele>0</ele>
        <time>2010-11-16T12:47:58Z</time>
      </trkpt>
      <trkpt lat="59.3073801738" lon="18.0555140733">
        <ele>0</ele>
        <time>2010-11-16T12:48:00Z</time>
      </trkpt>
      <trkpt lat="59.3073524297" lon="18.0556438252">
        <ele>0</ele>
        <time>2010-11-16T12:48:02Z</time>
      </trkpt>
      <trkpt lat="59.3073234283" lon="18.0557724873">
        <ele>0</ele>
        <time>2010-11-16T12:48:04Z</time>
      </trkpt>
      <trkpt lat="59.3072915771" lon="18.055906011">
        <ele>0</ele>
        <time>2010-11-16T12:48:06Z</time>
      </trkpt>
      <trkpt lat="59.3072597259" lon="18.0560365172">
        <ele>0</ele>
        <time>2010-11-16T12:48:08Z</time>
      </trkpt>
      <trkpt lat="59.3072298863" lon="18.0561594796">
        <ele>0</ele>
        <time>2010-11-16T12:48:10Z</time>
      </trkpt>
      <trkpt lat="59.3072067523" lon="18.0562841185">
        <ele>0</ele>
        <time>2010-11-16T12:48:12Z</time>
      </trkpt>
      <trkpt lat="59.3071780862" lon="18.0564115234">
        <ele>0</ele>
        <time>2010-11-16T12:48:14Z</time>
      </trkpt>
      <trkpt lat="59.3071518509" lon="18.0565445441">
        <ele>0</ele>
        <time>2010-11-16T12:48:16Z</time>
      </trkpt>
      <trkpt lat="59.30712352" lon="18.0566702726">
        <ele>0</ele>
        <time>2010-11-16T12:48:18Z</time>
      </trkpt>
      <trkpt lat="59.3070957759" lon="18.0567980128">
        <ele>0</ele>
        <time>2010-11-16T12:48:19Z</time>
      </trkpt>
      <trkpt lat="59.3070674451" lon="18.0569296086">
        <ele>0</ele>
        <time>2010-11-16T12:48:22Z</time>
      </trkpt>
      <trkpt lat="59.3070336661" lon="18.0571083107">
        <ele>0</ele>
        <time>2010-11-16T12:48:25Z</time>
      </trkpt>
      <trkpt lat="59.3070074307" lon="18.0572321952">
        <ele>0</ele>
        <time>2010-11-16T12:48:27Z</time>
      </trkpt>
      <trkpt lat="59.3069809439" lon="18.0573580913">
        <ele>0</ele>
        <time>2010-11-16T12:48:29Z</time>
      </trkpt>
      <trkpt lat="59.3069524454" lon="18.0574905254">
        <ele>0</ele>
        <time>2010-11-16T12:48:31Z</time>
      </trkpt>
      <trkpt lat="59.3069217677" lon="18.0576191037">
        <ele>0</ele>
        <time>2010-11-16T12:48:33Z</time>
      </trkpt>
      <trkpt lat="59.3068949456" lon="18.0577411442">
        <ele>0</ele>
        <time>2010-11-16T12:48:34Z</time>
      </trkpt>
      <trkpt lat="59.3068637649" lon="18.0578715665">
        <ele>0</ele>
        <time>2010-11-16T12:48:37Z</time>
      </trkpt>
      <trkpt lat="59.3068438998" lon="18.0579863986">
        <ele>0</ele>
        <time>2010-11-16T12:48:39Z</time>
      </trkpt>
      <trkpt lat="59.306822526" lon="18.0581195031">
        <ele>0</ele>
        <time>2010-11-16T12:48:40Z</time>
      </trkpt>
      <trkpt lat="59.3067983023" lon="18.0582561281">
        <ele>0</ele>
        <time>2010-11-16T12:48:43Z</time>
      </trkpt>
      <trkpt lat="59.3067646909" lon="18.0584221735">
        <ele>0</ele>
        <time>2010-11-16T12:48:45Z</time>
      </trkpt>
      <trkpt lat="59.3067468374" lon="18.0585074175">
        <ele>0</ele>
        <time>2010-11-16T12:48:46Z</time>
      </trkpt>
      <trkpt lat="59.3067195124" lon="18.0586180586">
        <ele>0</ele>
        <time>2010-11-16T12:48:49Z</time>
      </trkpt>
      <trkpt lat="59.3066677123" lon="18.0586966808">
        <ele>0</ele>
        <time>2010-11-16T12:48:51Z</time>
      </trkpt>
      <trkpt lat="59.3066154931" lon="18.0587582877">
        <ele>0</ele>
        <time>2010-11-16T12:48:52Z</time>
      </trkpt>
      <trkpt lat="59.3065670457" lon="18.0588427773">
        <ele>0</ele>
        <time>2010-11-16T12:48:54Z</time>
      </trkpt>
      <trkpt lat="59.3065301653" lon="18.0589504847">
        <ele>0</ele>
        <time>2010-11-16T12:48:57Z</time>
      </trkpt>
      <trkpt lat="59.3064942908" lon="18.0590607067">
        <ele>0</ele>
        <time>2010-11-16T12:48:58Z</time>
      </trkpt>
      <trkpt lat="59.3064538062" lon="18.0591708449">
        <ele>0</ele>
        <time>2010-11-16T12:49:01Z</time>
      </trkpt>
      <trkpt lat="59.3064183508" lon="18.0592875209">
        <ele>0</ele>
        <time>2010-11-16T12:49:03Z</time>
      </trkpt>
      <trkpt lat="59.3063882598" lon="18.0593918756">
        <ele>0</ele>
        <time>2010-11-16T12:49:04Z</time>
      </trkpt>
      <trkpt lat="59.3063510441" lon="18.059504193">
        <ele>0</ele>
        <time>2010-11-16T12:49:07Z</time>
      </trkpt>
      <trkpt lat="59.3063124036" lon="18.0596047758">
        <ele>0</ele>
        <time>2010-11-16T12:49:09Z</time>
      </trkpt>
      <trkpt lat="59.3062766129" lon="18.0597058615">
        <ele>0</ele>
        <time>2010-11-16T12:49:10Z</time>
      </trkpt>
      <trkpt lat="59.3062433367" lon="18.0598125631">
        <ele>0</ele>
        <time>2010-11-16T12:49:13Z</time>
      </trkpt>
      <trkpt lat="59.3062134133" lon="18.0599143194">
        <ele>0</ele>
        <time>2010-11-16T12:49:14Z</time>
      </trkpt>
      <trkpt lat="59.3061818136" lon="18.0600232841">
        <ele>0</ele>
        <time>2010-11-16T12:49:16Z</time>
      </trkpt>
      <trkpt lat="59.3061491242" lon="18.0601347634">
        <ele>0</ele>
        <time>2010-11-16T12:49:19Z</time>
      </trkpt>
      <trkpt lat="59.3061202066" lon="18.060240962">
        <ele>0</ele>
        <time>2010-11-16T12:49:21Z</time>
      </trkpt>
      <trkpt lat="59.3060572585" lon="18.0604500904">
        <ele>0</ele>
        <time>2010-11-16T12:49:25Z</time>
      </trkpt>
      <trkpt lat="59.3060169416" lon="18.0605440515">
        <ele>0</ele>
        <time>2010-11-16T12:49:27Z</time>
      </trkpt>
      <trkpt lat="59.3059720984" lon="18.0606162197">
        <ele>0</ele>
        <time>2010-11-16T12:49:28Z</time>
      </trkpt>
      <trkpt lat="59.3059307757" lon="18.0607202391">
        <ele>0</ele>
        <time>2010-11-16T12:49:31Z</time>
      </trkpt>
      <trkpt lat="59.3058943982" lon="18.0608182235">
        <ele>0</ele>
        <time>2010-11-16T12:49:33Z</time>
      </trkpt>
      <trkpt lat="59.3058595295" lon="18.060908748">
        <ele>0</ele>
        <time>2010-11-16T12:49:34Z</time>
      </trkpt>
      <trkpt lat="59.3058251637" lon="18.0610110072">
        <ele>0</ele>
        <time>2010-11-16T12:49:37Z</time>
      </trkpt>
      <trkpt lat="59.3057952403" lon="18.0611078181">
        <ele>0</ele>
        <time>2010-11-16T12:49:39Z</time>
      </trkpt>
      <trkpt lat="59.3057645626" lon="18.061196331">
        <ele>0</ele>
        <time>2010-11-16T12:49:40Z</time>
      </trkpt>
      <trkpt lat="59.305742602" lon="18.0613048766">
        <ele>0</ele>
        <time>2010-11-16T12:49:43Z</time>
      </trkpt>
      <trkpt lat="59.3057016983" lon="18.0614427589">
        <ele>0</ele>
        <time>2010-11-16T12:49:45Z</time>
      </trkpt>
      <trkpt lat="59.3056778099" lon="18.0615187827">
        <ele>0</ele>
        <time>2010-11-16T12:49:46Z</time>
      </trkpt>
      <trkpt lat="59.3056491438" lon="18.061602434">
        <ele>0</ele>
        <time>2010-11-16T12:49:48Z</time>
      </trkpt>
      <trkpt lat="59.3056119282" lon="18.061687678">
        <ele>0</ele>
        <time>2010-11-16T12:49:51Z</time>
      </trkpt>
      <trkpt lat="59.3055556856" lon="18.0617937928">
        <ele>0</ele>
        <time>2010-11-16T12:49:54Z</time>
      </trkpt>
      <trkpt lat="59.3055177994" lon="18.0618750973">
        <ele>0</ele>
        <time>2010-11-16T12:49:56Z</time>
      </trkpt>
      <trkpt lat="59.3054882113" lon="18.0619774403">
        <ele>0</ele>
        <time>2010-11-16T12:49:58Z</time>
      </trkpt>
      <trkpt lat="59.3054537617" lon="18.062094703">
        <ele>0</ele>
        <time>2010-11-16T12:50:02Z</time>
      </trkpt>
      <trkpt lat="59.3054131933" lon="18.0621986386">
        <ele>0</ele>
        <time>2010-11-16T12:50:05Z</time>
      </trkpt>
      <trkpt lat="59.3053815098" lon="18.0623003949">
        <ele>0</ele>
        <time>2010-11-16T12:50:08Z</time>
      </trkpt>
      <trkpt lat="59.3053572022" lon="18.0624082699">
        <ele>0</ele>
        <time>2010-11-16T12:50:09Z</time>
      </trkpt>
      <trkpt lat="59.3053489042" lon="18.0625174023">
        <ele>0</ele>
        <time>2010-11-16T12:50:12Z</time>
      </trkpt>
      <trkpt lat="59.3053307993" lon="18.0626150514">
        <ele>0</ele>
        <time>2010-11-16T12:50:14Z</time>
      </trkpt>
      <trkpt lat="59.3053185617" lon="18.062757879">
        <ele>0</ele>
        <time>2010-11-16T12:50:16Z</time>
      </trkpt>
      <trkpt lat="59.305287381" lon="18.062888469">
        <ele>0</ele>
        <time>2010-11-16T12:50:19Z</time>
      </trkpt>
      <trkpt lat="59.3052635764" lon="18.0630045583">
        <ele>0</ele>
        <time>2010-11-16T12:50:21Z</time>
      </trkpt>
      <trkpt lat="59.3052485728" lon="18.0630875391">
        <ele>0</ele>
        <time>2010-11-16T12:50:22Z</time>
      </trkpt>
      <trkpt lat="59.305215632" lon="18.0632735335">
        <ele>0</ele>
        <time>2010-11-16T12:50:26Z</time>
      </trkpt>
      <trkpt lat="59.3051907377" lon="18.0633779719">
        <ele>0</ele>
        <time>2010-11-16T12:50:28Z</time>
      </trkpt>
      <trkpt lat="59.3051686095" lon="18.0634871881">
        <ele>0</ele>
        <time>2010-11-16T12:50:30Z</time>
      </trkpt>
      <trkpt lat="59.3051367583" lon="18.0636601067">
        <ele>0</ele>
        <time>2010-11-16T12:50:33Z</time>
      </trkpt>
      <trkpt lat="59.3051225929" lon="18.0637605218">
        <ele>0</ele>
        <time>2010-11-16T12:50:34Z</time>
      </trkpt>
      <trkpt lat="59.305106332" lon="18.0638664691">
        <ele>0</ele>
        <time>2010-11-16T12:50:37Z</time>
      </trkpt>
      <trkpt lat="59.3050906578" lon="18.06395867">
        <ele>0</ele>
        <time>2010-11-16T12:50:39Z</time>
      </trkpt>
      <trkpt lat="59.3050785879" lon="18.0640644495">
        <ele>0</ele>
        <time>2010-11-16T12:50:42Z</time>
      </trkpt>
      <trkpt lat="59.3050743969" lon="18.0642462529">
        <ele>0</ele>
        <time>2010-11-16T12:50:45Z</time>
      </trkpt>
      <trkpt lat="59.3050737264" lon="18.0643220253">
        <ele>0</ele>
        <time>2010-11-16T12:50:46Z</time>
      </trkpt>
      <trkpt lat="59.3050849581" lon="18.0644575606">
        <ele>0</ele>
        <time>2010-11-16T12:50:49Z</time>
      </trkpt>
      <trkpt lat="59.3050736426" lon="18.0645750749">
        <ele>0</ele>
        <time>2010-11-16T12:50:51Z</time>
      </trkpt>
      <trkpt lat="59.3050784202" lon="18.0646822794">
        <ele>0</ele>
        <time>2010-11-16T12:50:53Z</time>
      </trkpt>
      <trkpt lat="59.3050801804" lon="18.0648089299">
        <ele>0</ele>
        <time>2010-11-16T12:50:55Z</time>
      </trkpt>
      <trkpt lat="59.3050763248" lon="18.0649489076">
        <ele>0</ele>
        <time>2010-11-16T12:50:57Z</time>
      </trkpt>
      <trkpt lat="59.3050700383" lon="18.0650824313">
        <ele>0</ele>
        <time>2010-11-16T12:50:59Z</time>
      </trkpt>
      <trkpt lat="59.3050716309" lon="18.0652207326">
        <ele>0</ele>
        <time>2010-11-16T12:51:01Z</time>
      </trkpt>
      <trkpt lat="59.3050676914" lon="18.0653407614">
        <ele>0</ele>
        <time>2010-11-16T12:51:03Z</time>
      </trkpt>
      <trkpt lat="59.3050646739" lon="18.0654623828">
        <ele>0</ele>
        <time>2010-11-16T12:51:05Z</time>
      </trkpt>
      <trkpt lat="59.3050547833" lon="18.0655876084">
        <ele>0</ele>
        <time>2010-11-16T12:51:08Z</time>
      </trkpt>
      <trkpt lat="59.3050525202" lon="18.0657068828">
        <ele>0</ele>
        <time>2010-11-16T12:51:10Z</time>
      </trkpt>
      <trkpt lat="59.3050520173" lon="18.0658344554">
        <ele>0</ele>
        <time>2010-11-16T12:51:12Z</time>
      </trkpt>
      <trkpt lat="59.305047994" lon="18.0659465214">
        <ele>0</ele>
        <time>2010-11-16T12:51:14Z</time>
      </trkpt>
      <trkpt lat="59.3050383548" lon="18.0660706573">
        <ele>0</ele>
        <time>2010-11-16T12:51:16Z</time>
      </trkpt>
      <trkpt lat="59.305019244" lon="18.0662034266">
        <ele>0</ele>
        <time>2010-11-16T12:51:18Z</time>
      </trkpt>
      <trkpt lat="59.3050005524" lon="18.0663187615">
        <ele>0</ele>
        <time>2010-11-16T12:51:20Z</time>
      </trkpt>
      <trkpt lat="59.3049873928" lon="18.0664450768">
        <ele>0</ele>
        <time>2010-11-16T12:51:22Z</time>
      </trkpt>
      <trkpt lat="59.3049652646" lon="18.0665703024">
        <ele>0</ele>
        <time>2010-11-16T12:51:24Z</time>
      </trkpt>
      <trkpt lat="59.3049371014" lon="18.0667459032">
        <ele>0</ele>
        <time>2010-11-16T12:51:27Z</time>
      </trkpt>
      <trkpt lat="59.3049217625" lon="18.0668914968">
        <ele>0</ele>
        <time>2010-11-16T12:51:29Z</time>
      </trkpt>
      <trkpt lat="59.3049185774" lon="18.0670446341">
        <ele>0</ele>
        <time>2010-11-16T12:51:30Z</time>
      </trkpt>
      <trkpt lat="59.3049189965" lon="18.0671321411">
        <ele>0</ele>
        <time>2010-11-16T12:51:32Z</time>
      </trkpt>
      <trkpt lat="59.3049184936" lon="18.0671990287">
        <ele>0</ele>
        <time>2010-11-16T12:51:33Z</time>
      </trkpt>
      <trkpt lat="59.3049171525" lon="18.0673038862">
        <ele>0</ele>
        <time>2010-11-16T12:51:34Z</time>
      </trkpt>
      <trkpt lat="59.3049100279" lon="18.0674404274">
        <ele>0</ele>
        <time>2010-11-16T12:51:37Z</time>
      </trkpt>
      <trkpt lat="59.3048878997" lon="18.0675434409">
        <ele>0</ele>
        <time>2010-11-16T12:51:39Z</time>
      </trkpt>
      <trkpt lat="59.3048510193" lon="18.0676538306">
        <ele>0</ele>
        <time>2010-11-16T12:51:41Z</time>
      </trkpt>
      <trkpt lat="59.3047937709" lon="18.067774949">
        <ele>0</ele>
        <time>2010-11-16T12:51:43Z</time>
      </trkpt>
      <trkpt lat="59.3047301523" lon="18.0679316067">
        <ele>0</ele>
        <time>2010-11-16T12:51:45Z</time>
      </trkpt>
      <trkpt lat="59.3046964571" lon="18.0680248973">
        <ele>0</ele>
        <time>2010-11-16T12:51:47Z</time>
      </trkpt>
      <trkpt lat="59.3046584871" lon="18.0681521345">
        <ele>0</ele>
        <time>2010-11-16T12:51:49Z</time>
      </trkpt>
      <trkpt lat="59.3046304077" lon="18.068274175">
        <ele>0</ele>
        <time>2010-11-16T12:51:51Z</time>
      </trkpt>
      <trkpt lat="59.3046118837" lon="18.0683955449">
        <ele>0</ele>
        <time>2010-11-16T12:51:53Z</time>
      </trkpt>
      <trkpt lat="59.3045957066" lon="18.0685190941">
        <ele>0</ele>
        <time>2010-11-16T12:51:55Z</time>
      </trkpt>
      <trkpt lat="59.3045758415" lon="18.0686453255">
        <ele>0</ele>
        <time>2010-11-16T12:51:57Z</time>
      </trkpt>
      <trkpt lat="59.3045543" lon="18.0687708026">
        <ele>0</ele>
        <time>2010-11-16T12:51:59Z</time>
      </trkpt>
      <trkpt lat="59.3045303278" lon="18.0689000515">
        <ele>0</ele>
        <time>2010-11-16T12:52:01Z</time>
      </trkpt>
      <trkpt lat="59.3044967164" lon="18.0690239359">
        <ele>0</ele>
        <time>2010-11-16T12:52:03Z</time>
      </trkpt>
      <trkpt lat="59.3044653681" lon="18.0691784144">
        <ele>0</ele>
        <time>2010-11-16T12:52:05Z</time>
      </trkpt>
      <trkpt lat="59.3044496939" lon="18.0692732975">
        <ele>0</ele>
        <time>2010-11-16T12:52:07Z</time>
      </trkpt>
      <trkpt lat="59.304430667" lon="18.0693806696">
        <ele>0</ele>
        <time>2010-11-16T12:52:09Z</time>
      </trkpt>
      <trkpt lat="59.3044092932" lon="18.0694773129">
        <ele>0</ele>
        <time>2010-11-16T12:52:10Z</time>
      </trkpt>
      <trkpt lat="59.3043862429" lon="18.0695900495">
        <ele>0</ele>
        <time>2010-11-16T12:52:13Z</time>
      </trkpt>
      <trkpt lat="59.3043662102" lon="18.0697063902">
        <ele>0</ele>
        <time>2010-11-16T12:52:15Z</time>
      </trkpt>
      <trkpt lat="59.304340813" lon="18.0698370641">
        <ele>0</ele>
        <time>2010-11-16T12:52:17Z</time>
      </trkpt>
      <trkpt lat="59.3043043518" lon="18.0699664806">
        <ele>0</ele>
        <time>2010-11-16T12:52:19Z</time>
      </trkpt>
      <trkpt lat="59.3042702374" lon="18.0700983279">
        <ele>0</ele>
        <time>2010-11-16T12:52:21Z</time>
      </trkpt>
      <trkpt lat="59.3042497018" lon="18.0702082146">
        <ele>0</ele>
        <time>2010-11-16T12:52:22Z</time>
      </trkpt>
      <trkpt lat="59.3042161742" lon="18.0703995734">
        <ele>0</ele>
        <time>2010-11-16T12:52:25Z</time>
      </trkpt>
      <trkpt lat="59.3041994104" lon="18.0705004915">
        <ele>0</ele>
        <time>2010-11-16T12:52:27Z</time>
      </trkpt>
      <trkpt lat="59.3041794615" lon="18.0706228672">
        <ele>0</ele>
        <time>2010-11-16T12:52:29Z</time>
      </trkpt>
      <trkpt lat="59.304169487" lon="18.0707534572">
        <ele>0</ele>
        <time>2010-11-16T12:52:31Z</time>
      </trkpt>
      <trkpt lat="59.3041657152" lon="18.0708779284">
        <ele>0</ele>
        <time>2010-11-16T12:52:33Z</time>
      </trkpt>
      <trkpt lat="59.3041565789" lon="18.0710095242">
        <ele>0</ele>
        <time>2010-11-16T12:52:34Z</time>
      </trkpt>
      <trkpt lat="59.3041479455" lon="18.0711520165">
        <ele>0</ele>
        <time>2010-11-16T12:52:37Z</time>
      </trkpt>
      <trkpt lat="59.3041378872" lon="18.0712833609">
        <ele>0</ele>
        <time>2010-11-16T12:52:39Z</time>
      </trkpt>
      <trkpt lat="59.3041246438" lon="18.0714126098">
        <ele>0</ele>
        <time>2010-11-16T12:52:41Z</time>
      </trkpt>
      <trkpt lat="59.3041114843" lon="18.0715637355">
        <ele>0</ele>
        <time>2010-11-16T12:52:43Z</time>
      </trkpt>
      <trkpt lat="59.3040940499" lon="18.0717430243">
        <ele>0</ele>
        <time>2010-11-16T12:52:45Z</time>
      </trkpt>
      <trkpt lat="59.3040851651" lon="18.0718570181">
        <ele>0</ele>
        <time>2010-11-16T12:52:47Z</time>
      </trkpt>
      <trkpt lat="59.3040736819" lon="18.0720094011">
        <ele>0</ele>
        <time>2010-11-16T12:52:49Z</time>
      </trkpt>
      <trkpt lat="59.3040687366" lon="18.0721549109">
        <ele>0</ele>
        <time>2010-11-16T12:52:51Z</time>
      </trkpt>
      <trkpt lat="59.304079633" lon="18.0722997501">
        <ele>0</ele>
        <time>2010-11-16T12:52:53Z</time>
      </trkpt>
      <trkpt lat="59.3041005878" lon="18.0724401469">
        <ele>0</ele>
        <time>2010-11-16T12:52:55Z</time>
      </trkpt>
      <trkpt lat="59.3041382225" lon="18.0725813819">
        <ele>0</ele>
        <time>2010-11-16T12:52:57Z</time>
      </trkpt>
      <trkpt lat="59.3041749352" lon="18.0727220302">
        <ele>0</ele>
        <time>2010-11-16T12:52:59Z</time>
      </trkpt>
      <trkpt lat="59.3042130729" lon="18.0728632652">
        <ele>0</ele>
        <time>2010-11-16T12:53:01Z</time>
      </trkpt>
      <trkpt lat="59.3042501209" lon="18.0729723138">
        <ele>0</ele>
        <time>2010-11-16T12:53:03Z</time>
      </trkpt>
      <trkpt lat="59.3042942097" lon="18.0731218469">
        <ele>0</ele>
        <time>2010-11-16T12:53:05Z</time>
      </trkpt>
      <trkpt lat="59.3043210318" lon="18.0732111979">
        <ele>0</ele>
        <time>2010-11-16T12:53:07Z</time>
      </trkpt>
      <trkpt lat="59.3043429085" lon="18.0733344957">
        <ele>0</ele>
        <time>2010-11-16T12:53:09Z</time>
      </trkpt>
      <trkpt lat="59.3043476024" lon="18.0734645827">
        <ele>0</ele>
        <time>2010-11-16T12:53:11Z</time>
      </trkpt>
      <trkpt lat="59.3043594209" lon="18.0736002857">
        <ele>0</ele>
        <time>2010-11-16T12:53:13Z</time>
      </trkpt>
      <trkpt lat="59.3043864944" lon="18.0737122679">
        <ele>0</ele>
        <time>2010-11-16T12:53:15Z</time>
      </trkpt>
      <trkpt lat="59.3044021686" lon="18.0738390022">
        <ele>0</ele>
        <time>2010-11-16T12:53:17Z</time>
      </trkpt>
      <trkpt lat="59.3044058566" lon="18.0739669938">
        <ele>0</ele>
        <time>2010-11-16T12:53:19Z</time>
      </trkpt>
      <trkpt lat="59.3043884222" lon="18.0740825802">
        <ele>0</ele>
        <time>2010-11-16T12:53:21Z</time>
      </trkpt>
      <trkpt lat="59.3043711555" lon="18.0741948977">
        <ele>0</ele>
        <time>2010-11-16T12:53:23Z</time>
      </trkpt>
      <trkpt lat="59.3043491111" lon="18.0743482026">
        <ele>0</ele>
        <time>2010-11-16T12:53:25Z</time>
      </trkpt>
      <trkpt lat="59.3043319282" lon="18.074457335">
        <ele>0</ele>
        <time>2010-11-16T12:53:27Z</time>
      </trkpt>
      <trkpt lat="59.3042952155" lon="18.0745646233">
        <ele>0</ele>
        <time>2010-11-16T12:53:29Z</time>
      </trkpt>
      <trkpt lat="59.3042579999" lon="18.0746761026">
        <ele>0</ele>
        <time>2010-11-16T12:53:31Z</time>
      </trkpt>
      <trkpt lat="59.3042217901" lon="18.0747817145">
        <ele>0</ele>
        <time>2010-11-16T12:53:33Z</time>
      </trkpt>
      <trkpt lat="59.3041829819" lon="18.0748621808">
        <ele>0</ele>
        <time>2010-11-16T12:53:34Z</time>
      </trkpt>
      <trkpt lat="59.3041285833" lon="18.074941725">
        <ele>0</ele>
        <time>2010-11-16T12:53:37Z</time>
      </trkpt>
      <trkpt lat="59.3040800521" lon="18.0750011527">
        <ele>0</ele>
        <time>2010-11-16T12:53:39Z</time>
      </trkpt>
      <trkpt lat="59.3040325268" lon="18.0750726503">
        <ele>0</ele>
        <time>2010-11-16T12:53:41Z</time>
      </trkpt>
      <trkpt lat="59.303984247" lon="18.0751402084">
        <ele>0</ele>
        <time>2010-11-16T12:53:43Z</time>
      </trkpt>
      <trkpt lat="59.3039296809" lon="18.0752288889">
        <ele>0</ele>
        <time>2010-11-16T12:53:45Z</time>
      </trkpt>
      <trkpt lat="59.3038969914" lon="18.075278845">
        <ele>0</ele>
        <time>2010-11-16T12:53:47Z</time>
      </trkpt>
      <trkpt lat="59.3038492984" lon="18.0753527734">
        <ele>0</ele>
        <time>2010-11-16T12:53:49Z</time>
      </trkpt>
      <trkpt lat="59.303806886" lon="18.075433994">
        <ele>0</ele>
        <time>2010-11-16T12:53:51Z</time>
      </trkpt>
      <trkpt lat="59.3037626296" lon="18.0755262787">
        <ele>0</ele>
        <time>2010-11-16T12:53:53Z</time>
      </trkpt>
      <trkpt lat="59.3037228994" lon="18.0756204912">
        <ele>0</ele>
        <time>2010-11-16T12:53:55Z</time>
      </trkpt>
      <trkpt lat="59.3036876116" lon="18.0757324734">
        <ele>0</ele>
        <time>2010-11-16T12:53:57Z</time>
      </trkpt>
      <trkpt lat="59.3036628012" lon="18.0758423601">
        <ele>0</ele>
        <time>2010-11-16T12:53:59Z</time>
      </trkpt>
      <trkpt lat="59.3036441933" lon="18.0759560187">
        <ele>0</ele>
        <time>2010-11-16T12:54:01Z</time>
      </trkpt>
      <trkpt lat="59.3036265913" lon="18.0760643129">
        <ele>0</ele>
        <time>2010-11-16T12:54:03Z</time>
      </trkpt>
      <trkpt lat="59.3036151081" lon="18.0761988423">
        <ele>0</ele>
        <time>2010-11-16T12:54:05Z</time>
      </trkpt>
      <trkpt lat="59.3036116716" lon="18.0762859303">
        <ele>0</ele>
        <time>2010-11-16T12:54:07Z</time>
      </trkpt>
      <trkpt lat="59.3036157787" lon="18.0763907879">
        <ele>0</ele>
        <time>2010-11-16T12:54:09Z</time>
      </trkpt>
      <trkpt lat="59.3036242444" lon="18.0764931309">
        <ele>0</ele>
        <time>2010-11-16T12:54:11Z</time>
      </trkpt>
      <trkpt lat="59.3036388289" lon="18.0766046939">
        <ele>0</ele>
        <time>2010-11-16T12:54:13Z</time>
      </trkpt>
      <trkpt lat="59.3036576044" lon="18.076717179">
        <ele>0</ele>
        <time>2010-11-16T12:54:15Z</time>
      </trkpt>
      <trkpt lat="59.3036842588" lon="18.0768236292">
        <ele>0</ele>
        <time>2010-11-16T12:54:17Z</time>
      </trkpt>
      <trkpt lat="59.3037102427" lon="18.0769442447">
        <ele>0</ele>
        <time>2010-11-16T12:54:19Z</time>
      </trkpt>
      <trkpt lat="59.3037326224" lon="18.0770497728">
        <ele>0</ele>
        <time>2010-11-16T12:54:21Z</time>
      </trkpt>
      <trkpt lat="59.3037483804" lon="18.0771426443">
        <ele>0</ele>
        <time>2010-11-16T12:54:23Z</time>
      </trkpt>
      <trkpt lat="59.303753661" lon="18.0772430594">
        <ele>0</ele>
        <time>2010-11-16T12:54:25Z</time>
      </trkpt>
      <trkpt lat="59.3037641383" lon="18.0773894074">
        <ele>0</ele>
        <time>2010-11-16T12:54:28Z</time>
      </trkpt>
      <trkpt lat="59.3037858474" lon="18.0775386891">
        <ele>0</ele>
        <time>2010-11-16T12:54:31Z</time>
      </trkpt>
      <trkpt lat="59.3038076404" lon="18.0776562871">
        <ele>0</ele>
        <time>2010-11-16T12:54:33Z</time>
      </trkpt>
      <trkpt lat="59.3038277569" lon="18.0777636593">
        <ele>0</ele>
        <time>2010-11-16T12:54:36Z</time>
      </trkpt>
      <trkpt lat="59.3038382343" lon="18.0778618113">
        <ele>0</ele>
        <time>2010-11-16T12:54:39Z</time>
      </trkpt>
      <trkpt lat="59.3038428444" lon="18.0779428643">
        <ele>0</ele>
        <time>2010-11-16T12:54:42Z</time>
      </trkpt>
      <trkpt lat="59.3038386534" lon="18.0779847738">
        <ele>0</ele>
        <time>2010-11-16T12:54:45Z</time>
      </trkpt>
      <trkpt lat="59.3038476221" lon="18.0780082431">
        <ele>0.6</ele>
        <time>2010-11-16T12:54:52Z</time>
      </trkpt>
      <trkpt lat="59.3038580994" lon="18.0780777291">
        <ele>1</ele>
        <time>2010-11-16T12:54:56Z</time>
      </trkpt>
      <trkpt lat="59.303885173" lon="18.0781462092">
        <ele>1.2</ele>
        <time>2010-11-16T12:54:59Z</time>
      </trkpt>
      <trkpt lat="59.3039229753" lon="18.0782386615">
        <ele>1.2</ele>
        <time>2010-11-16T12:55:02Z</time>
      </trkpt>
      <trkpt lat="59.3039503003" lon="18.0783083989">
        <ele>1.4</ele>
        <time>2010-11-16T12:55:04Z</time>
      </trkpt>
      <trkpt lat="59.3040110691" lon="18.0783761247">
        <ele>1.4</ele>
        <time>2010-11-16T12:55:08Z</time>
      </trkpt>
      <trkpt lat="59.304055577" lon="18.0784052937">
        <ele>1.4</ele>
        <time>2010-11-16T12:55:11Z</time>
      </trkpt>
      <trkpt lat="59.3041086344" lon="18.0784554175">
        <ele>1.6</ele>
        <time>2010-11-16T12:55:14Z</time>
      </trkpt>
      <trkpt lat="59.3041383902" lon="18.0785066309">
        <ele>1.6</ele>
        <time>2010-11-16T12:55:17Z</time>
      </trkpt>
      <trkpt lat="59.3041431678" lon="18.0785361352">
        <ele>1.6</ele>
        <time>2010-11-16T12:55:18Z</time>
      </trkpt>
      <trkpt lat="59.3041653799" lon="18.0786337843">
        <ele>1.6</ele>
        <time>2010-11-16T12:55:21Z</time>
      </trkpt>
      <trkpt lat="59.3041714148" lon="18.078754316">
        <ele>1.6</ele>
        <time>2010-11-16T12:55:24Z</time>
      </trkpt>
      <trkpt lat="59.3041715825" lon="18.078793208">
        <ele>1.6</ele>
        <time>2010-11-16T12:55:25Z</time>
      </trkpt>
      <trkpt lat="59.3041337801" lon="18.0789548111">
        <ele>1.6</ele>
        <time>2010-11-16T12:55:29Z</time>
      </trkpt>
      <trkpt lat="59.3040766994" lon="18.0790538013">
        <ele>1.6</ele>
        <time>2010-11-16T12:55:33Z</time>
      </trkpt>
      <trkpt lat="59.3040181099" lon="18.079134519">
        <ele>1.6</ele>
        <time>2010-11-16T12:55:36Z</time>
      </trkpt>
      <trkpt lat="59.3038949798" lon="18.0792340122">
        <ele>1.6</ele>
        <time>2010-11-16T12:55:41Z</time>
      </trkpt>
      <trkpt lat="59.3038469515" lon="18.079269719">
        <ele>1.6</ele>
        <time>2010-11-16T12:55:43Z</time>
      </trkpt>
      <trkpt lat="59.3037918824" lon="18.0793052583">
        <ele>1.6</ele>
        <time>2010-11-16T12:55:45Z</time>
      </trkpt>
      <trkpt lat="59.3037358913" lon="18.0793387859">
        <ele>1.6</ele>
        <time>2010-11-16T12:55:48Z</time>
      </trkpt>
      <trkpt lat="59.3036822472" lon="18.0793766721">
        <ele>1.6</ele>
        <time>2010-11-16T12:55:51Z</time>
      </trkpt>
      <trkpt lat="59.3036245797" lon="18.0794156479">
        <ele>1.6</ele>
        <time>2010-11-16T12:55:54Z</time>
      </trkpt>
      <trkpt lat="59.3035638109" lon="18.0794465771">
        <ele>1.6</ele>
        <time>2010-11-16T12:55:57Z</time>
      </trkpt>
      <trkpt lat="59.3034995217" lon="18.0794809429">
        <ele>1.6</ele>
        <time>2010-11-16T12:56:00Z</time>
      </trkpt>
      <trkpt lat="59.3034499847" lon="18.0794993831">
        <ele>1.6</ele>
        <time>2010-11-16T12:56:02Z</time>
      </trkpt>
      <trkpt lat="59.3033988551" lon="18.0795204217">
        <ele>1.6</ele>
        <time>2010-11-16T12:56:04Z</time>
      </trkpt>
      <trkpt lat="59.3033216578" lon="18.0795590622">
        <ele>1.6</ele>
        <time>2010-11-16T12:56:07Z</time>
      </trkpt>
      <trkpt lat="59.3032691033" lon="18.0795718027">
        <ele>1.6</ele>
        <time>2010-11-16T12:56:09Z</time>
      </trkpt>
      <trkpt lat="59.3032233381" lon="18.0795845432">
        <ele>1.6</ele>
        <time>2010-11-16T12:56:11Z</time>
      </trkpt>
      <trkpt lat="59.3031711189" lon="18.0796056656">
        <ele>1.6</ele>
        <time>2010-11-16T12:56:13Z</time>
      </trkpt>
      <trkpt lat="59.3031198217" lon="18.0795883989">
        <ele>1.6</ele>
        <time>2010-11-16T12:56:16Z</time>
      </trkpt>
      <trkpt lat="59.3031115236" lon="18.0795789273">
        <ele>1.6</ele>
        <time>2010-11-16T12:56:17Z</time>
      </trkpt>
      <trkpt lat="59.3030678539" lon="18.0794986287">
        <ele>1.6</ele>
        <time>2010-11-16T12:56:21Z</time>
      </trkpt>
      <trkpt lat="59.3030390202" lon="18.0794173243">
        <ele>1.6</ele>
        <time>2010-11-16T12:56:23Z</time>
      </trkpt>
      <trkpt lat="59.3030204962" lon="18.0793131373">
        <ele>1.6</ele>
        <time>2010-11-16T12:56:25Z</time>
      </trkpt>
      <trkpt lat="59.3030022236" lon="18.0792078606">
        <ele>1.6</ele>
        <time>2010-11-16T12:56:26Z</time>
      </trkpt>
      <trkpt lat="59.3029916624" lon="18.0791161626">
        <ele>1.6</ele>
        <time>2010-11-16T12:56:28Z</time>
      </trkpt>
      <trkpt lat="59.302952938" lon="18.0789714072">
        <ele>1.6</ele>
        <time>2010-11-16T12:56:30Z</time>
      </trkpt>
      <trkpt lat="59.3028840388" lon="18.0788625263">
        <ele>1.6</ele>
        <time>2010-11-16T12:56:32Z</time>
      </trkpt>
      <trkpt lat="59.3028553727" lon="18.0788595927">
        <ele>1.6</ele>
        <time>2010-11-16T12:56:33Z</time>
      </trkpt>
      <trkpt lat="59.3027770858" lon="18.078895551">
        <ele>1.6</ele>
        <time>2010-11-16T12:56:34Z</time>
      </trkpt>
      <trkpt lat="59.3026521117" lon="18.0789419029">
        <ele>1.6</ele>
        <time>2010-11-16T12:56:37Z</time>
      </trkpt>
      <trkpt lat="59.3025904209" lon="18.0789639473">
        <ele>1.6</ele>
        <time>2010-11-16T12:56:38Z</time>
      </trkpt>
      <trkpt lat="59.3024622616" lon="18.0788498697">
        <ele>1.6</ele>
        <time>2010-11-16T12:56:41Z</time>
      </trkpt>
      <trkpt lat="59.3023887524" lon="18.0786625342">
        <ele>1.4</ele>
        <time>2010-11-16T12:56:43Z</time>
      </trkpt>
      <trkpt lat="59.3023630199" lon="18.0785554135">
        <ele>1.2</ele>
        <time>2010-11-16T12:56:44Z</time>
      </trkpt>
      <trkpt lat="59.3023598348" lon="18.0784260808">
        <ele>1</ele>
        <time>2010-11-16T12:56:45Z</time>
      </trkpt>
      <trkpt lat="59.302361595" lon="18.0783945649">
        <ele>0.8</ele>
        <time>2010-11-16T12:56:46Z</time>
      </trkpt>
      <trkpt lat="59.3023776882" lon="18.0783347181">
        <ele>0.6</ele>
        <time>2010-11-16T12:56:47Z</time>
      </trkpt>
      <trkpt lat="59.302429656" lon="18.0782369013">
        <ele>0.4</ele>
        <time>2010-11-16T12:56:49Z</time>
      </trkpt>
      <trkpt lat="59.3024838031" lon="18.0781327981">
        <ele>0</ele>
        <time>2010-11-16T12:56:51Z</time>
      </trkpt>
      <trkpt lat="59.3025229466" lon="18.0780841831">
        <ele>0</ele>
        <time>2010-11-16T12:56:52Z</time>
      </trkpt>
      <trkpt lat="59.302562593" lon="18.0780377474">
        <ele>0</ele>
        <time>2010-11-16T12:56:53Z</time>
      </trkpt>
      <trkpt lat="59.3026797719" lon="18.0779454627">
        <ele>0</ele>
        <time>2010-11-16T12:56:56Z</time>
      </trkpt>
      <trkpt lat="59.3027132995" lon="18.0779134438">
        <ele>0</ele>
        <time>2010-11-16T12:56:57Z</time>
      </trkpt>
      <trkpt lat="59.3027886528" lon="18.0778580395">
        <ele>0</ele>
        <time>2010-11-16T12:56:59Z</time>
      </trkpt>
      <trkpt lat="59.3028976175" lon="18.0778601349">
        <ele>0</ele>
        <time>2010-11-16T12:57:02Z</time>
      </trkpt>
      <trkpt lat="59.3029480765" lon="18.0778845263">
        <ele>0</ele>
        <time>2010-11-16T12:57:04Z</time>
      </trkpt>
      <trkpt lat="59.3029800116" lon="18.0779026312">
        <ele>0</ele>
        <time>2010-11-16T12:57:05Z</time>
      </trkpt>
      <trkpt lat="59.3030402774" lon="18.0779986039">
        <ele>0</ele>
        <time>2010-11-16T12:57:08Z</time>
      </trkpt>
      <trkpt lat="59.3030677701" lon="18.0781030424">
        <ele>0</ele>
        <time>2010-11-16T12:57:10Z</time>
      </trkpt>
      <trkpt lat="59.3030871323" lon="18.078227346">
        <ele>0</ele>
        <time>2010-11-16T12:57:12Z</time>
      </trkpt>
      <trkpt lat="59.303121079" lon="18.0783552538">
        <ele>0</ele>
        <time>2010-11-16T12:57:14Z</time>
      </trkpt>
      <trkpt lat="59.3031413632" lon="18.0784839159">
        <ele>0</ele>
        <time>2010-11-16T12:57:16Z</time>
      </trkpt>
      <trkpt lat="59.303152092" lon="18.0785892764">
        <ele>0</ele>
        <time>2010-11-16T12:57:18Z</time>
      </trkpt>
      <trkpt lat="59.3031628208" lon="18.0786919547">
        <ele>0</ele>
        <time>2010-11-16T12:57:20Z</time>
      </trkpt>
      <trkpt lat="59.3031717056" lon="18.0787991592">
        <ele>0</ele>
        <time>2010-11-16T12:57:22Z</time>
      </trkpt>
      <trkpt lat="59.3031991983" lon="18.0788950481">
        <ele>0</ele>
        <time>2010-11-16T12:57:24Z</time>
      </trkpt>
      <trkpt lat="59.3032126093" lon="18.0790451679">
        <ele>0</ele>
        <time>2010-11-16T12:57:27Z</time>
      </trkpt>
      <trkpt lat="59.30323172" lon="18.0791604191">
        <ele>0</ele>
        <time>2010-11-16T12:57:29Z</time>
      </trkpt>
      <trkpt lat="59.3032338993" lon="18.0792819566">
        <ele>0</ele>
        <time>2010-11-16T12:57:31Z</time>
      </trkpt>
      <trkpt lat="59.3032375874" lon="18.0794080204">
        <ele>0</ele>
        <time>2010-11-16T12:57:33Z</time>
      </trkpt>
      <trkpt lat="59.3032583745" lon="18.0795104472">
        <ele>0</ele>
        <time>2010-11-16T12:57:35Z</time>
      </trkpt>
      <trkpt lat="59.303274803" lon="18.0796396961">
        <ele>0</ele>
        <time>2010-11-16T12:57:37Z</time>
      </trkpt>
      <trkpt lat="59.3032946681" lon="18.079761066">
        <ele>0</ele>
        <time>2010-11-16T12:57:39Z</time>
      </trkpt>
      <trkpt lat="59.3033095879" lon="18.0798966014">
        <ele>0</ele>
        <time>2010-11-16T12:57:41Z</time>
      </trkpt>
      <trkpt lat="59.303307241" lon="18.0800357409">
        <ele>0</ele>
        <time>2010-11-16T12:57:43Z</time>
      </trkpt>
      <trkpt lat="59.303287292" lon="18.0802090786">
        <ele>0</ele>
        <time>2010-11-16T12:57:45Z</time>
      </trkpt>
      <trkpt lat="59.3032483162" lon="18.0803224019">
        <ele>0</ele>
        <time>2010-11-16T12:57:48Z</time>
      </trkpt>
      <trkpt lat="59.3032088375" lon="18.080412172">
        <ele>0</ele>
        <time>2010-11-16T12:57:50Z</time>
      </trkpt>
      <trkpt lat="59.3031629885" lon="18.0804753715">
        <ele>0</ele>
        <time>2010-11-16T12:57:52Z</time>
      </trkpt>
      <trkpt lat="59.3031146249" lon="18.0805229807">
        <ele>0</ele>
        <time>2010-11-16T12:57:54Z</time>
      </trkpt>
      <trkpt lat="59.3030717096" lon="18.0805727692">
        <ele>0</ele>
        <time>2010-11-16T12:57:56Z</time>
      </trkpt>
      <trkpt lat="59.3030159699" lon="18.0806306882">
        <ele>0</ele>
        <time>2010-11-16T12:57:59Z</time>
      </trkpt>
      <trkpt lat="59.303004822" lon="18.0806527325">
        <ele>0</ele>
        <time>2010-11-16T12:58:00Z</time>
      </trkpt>
      <trkpt lat="59.3029808498" lon="18.080679387">
        <ele>0</ele>
        <time>2010-11-16T12:58:09Z</time>
      </trkpt>
      <trkpt lat="59.3029671035" lon="18.080706712">
        <ele>0</ele>
        <time>2010-11-16T12:58:16Z</time>
      </trkpt>
      <trkpt lat="59.3029644212" lon="18.0808747691">
        <ele>0</ele>
        <time>2010-11-16T12:58:20Z</time>
      </trkpt>
      <trkpt lat="59.3029883935" lon="18.0809740108">
        <ele>0</ele>
        <time>2010-11-16T12:58:22Z</time>
      </trkpt>
      <trkpt lat="59.3030095997" lon="18.0810865797">
        <ele>0</ele>
        <time>2010-11-16T12:58:24Z</time>
      </trkpt>
      <trkpt lat="59.3030475697" lon="18.0812462549">
        <ele>0</ele>
        <time>2010-11-16T12:58:27Z</time>
      </trkpt>
      <trkpt lat="59.3030860426" lon="18.0813489332">
        <ele>0</ele>
        <time>2010-11-16T12:58:29Z</time>
      </trkpt>
      <trkpt lat="59.3031245994" lon="18.0814530364">
        <ele>0</ele>
        <time>2010-11-16T12:58:31Z</time>
      </trkpt>
      <trkpt lat="59.3031426204" lon="18.0815094465">
        <ele>0</ele>
        <time>2010-11-16T12:58:32Z</time>
      </trkpt>
      <trkpt lat="59.3031663412" lon="18.0816262064">
        <ele>0</ele>
        <time>2010-11-16T12:58:34Z</time>
      </trkpt>
      <trkpt lat="59.3031789141" lon="18.0817282141">
        <ele>0</ele>
        <time>2010-11-16T12:58:37Z</time>
      </trkpt>
      <trkpt lat="59.3031976895" lon="18.081816727">
        <ele>0</ele>
        <time>2010-11-16T12:58:39Z</time>
      </trkpt>
      <trkpt lat="59.3032132799" lon="18.0819059942">
        <ele>0</ele>
        <time>2010-11-16T12:58:41Z</time>
      </trkpt>
      <trkpt lat="59.3032337317" lon="18.0820021346">
        <ele>0</ele>
        <time>2010-11-16T12:58:43Z</time>
      </trkpt>
      <trkpt lat="59.303253513" lon="18.0821282822">
        <ele>0.2</ele>
        <time>2010-11-16T12:58:45Z</time>
      </trkpt>
      <trkpt lat="59.3032676784" lon="18.0822135261">
        <ele>0.4</ele>
        <time>2010-11-16T12:58:47Z</time>
      </trkpt>
      <trkpt lat="59.303292405" lon="18.08232752">
        <ele>0.4</ele>
        <time>2010-11-16T12:58:49Z</time>
      </trkpt>
      <trkpt lat="59.3033231666" lon="18.0824461239">
        <ele>0.6</ele>
        <time>2010-11-16T12:58:51Z</time>
      </trkpt>
      <trkpt lat="59.3033533414" lon="18.082556765">
        <ele>0.6</ele>
        <time>2010-11-16T12:58:53Z</time>
      </trkpt>
      <trkpt lat="59.3033884616" lon="18.0826603652">
        <ele>0.8</ele>
        <time>2010-11-16T12:58:55Z</time>
      </trkpt>
      <trkpt lat="59.3034360708" lon="18.0827817351">
        <ele>0.8</ele>
        <time>2010-11-16T12:58:57Z</time>
      </trkpt>
      <trkpt lat="59.3034737055" lon="18.0829007581">
        <ele>0.8</ele>
        <time>2010-11-16T12:58:59Z</time>
      </trkpt>
      <trkpt lat="59.3035041318" lon="18.0830308452">
        <ele>0.8</ele>
        <time>2010-11-16T12:59:01Z</time>
      </trkpt>
      <trkpt lat="59.3035177105" lon="18.0831603456">
        <ele>0.8</ele>
        <time>2010-11-16T12:59:03Z</time>
      </trkpt>
      <trkpt lat="59.3035214823" lon="18.0832227907">
        <ele>0.8</ele>
        <time>2010-11-16T12:59:04Z</time>
      </trkpt>
      <trkpt lat="59.3035601229" lon="18.0833983077">
        <ele>0.8</ele>
        <time>2010-11-16T12:59:07Z</time>
      </trkpt>
      <trkpt lat="59.3035902139" lon="18.0834960407">
        <ele>1</ele>
        <time>2010-11-16T12:59:09Z</time>
      </trkpt>
      <trkpt lat="59.3036214784" lon="18.0836101183">
        <ele>1</ele>
        <time>2010-11-16T12:59:11Z</time>
      </trkpt>
      <trkpt lat="59.3036612924" lon="18.0837220167">
        <ele>1</ele>
        <time>2010-11-16T12:59:13Z</time>
      </trkpt>
      <trkpt lat="59.3036959097" lon="18.0838206717">
        <ele>1</ele>
        <time>2010-11-16T12:59:15Z</time>
      </trkpt>
      <trkpt lat="59.3037240728" lon="18.083935336">
        <ele>1</ele>
        <time>2010-11-16T12:59:17Z</time>
      </trkpt>
      <trkpt lat="59.3037543315" lon="18.0840302192">
        <ele>1</ele>
        <time>2010-11-16T12:59:19Z</time>
      </trkpt>
      <trkpt lat="59.3037701733" lon="18.0841300476">
        <ele>1</ele>
        <time>2010-11-16T12:59:21Z</time>
      </trkpt>
      <trkpt lat="59.3037872724" lon="18.0842675107">
        <ele>1</ele>
        <time>2010-11-16T12:59:23Z</time>
      </trkpt>
      <trkpt lat="59.3038338757" lon="18.0844157027">
        <ele>1</ele>
        <time>2010-11-16T12:59:25Z</time>
      </trkpt>
      <trkpt lat="59.3038575127" lon="18.0845104182">
        <ele>1</ele>
        <time>2010-11-16T12:59:27Z</time>
      </trkpt>
      <trkpt lat="59.3039141743" lon="18.0847541639">
        <ele>1</ele>
        <time>2010-11-16T12:59:30Z</time>
      </trkpt>
      <trkpt lat="59.3039445168" lon="18.0848913756">
        <ele>1</ele>
        <time>2010-11-16T12:59:33Z</time>
      </trkpt>
      <trkpt lat="59.3039677347" lon="18.0849797208">
        <ele>1</ele>
        <time>2010-11-16T12:59:34Z</time>
      </trkpt>
      <trkpt lat="59.3040006755" lon="18.0851477779">
        <ele>1</ele>
        <time>2010-11-16T12:59:37Z</time>
      </trkpt>
      <trkpt lat="59.3040223847" lon="18.0852654598">
        <ele>1</ele>
        <time>2010-11-16T12:59:38Z</time>
      </trkpt>
      <trkpt lat="59.3040557446" lon="18.0854067786">
        <ele>1</ele>
        <time>2010-11-16T12:59:41Z</time>
      </trkpt>
      <trkpt lat="59.3040549064" lon="18.0854530467">
        <ele>1</ele>
        <time>2010-11-16T12:59:42Z</time>
      </trkpt>
      <trkpt lat="59.3040870929" lon="18.0856310782">
        <ele>1</ele>
        <time>2010-11-16T12:59:45Z</time>
      </trkpt>
      <trkpt lat="59.3040945528" lon="18.0856597443">
        <ele>1</ele>
        <time>2010-11-16T12:59:46Z</time>
      </trkpt>
      <trkpt lat="59.3041409047" lon="18.0857667812">
        <ele>1</ele>
        <time>2010-11-16T12:59:48Z</time>
      </trkpt>
      <trkpt lat="59.3041734265" lon="18.0858844631">
        <ele>1</ele>
        <time>2010-11-16T12:59:50Z</time>
      </trkpt>
      <trkpt lat="59.3042114803" lon="18.0860051624">
        <ele>1</ele>
        <time>2010-11-16T12:59:52Z</time>
      </trkpt>
      <trkpt lat="59.3042460976" lon="18.0861136242">
        <ele>1</ele>
        <time>2010-11-16T12:59:54Z</time>
      </trkpt>
      <trkpt lat="59.3042851572" lon="18.0862244329">
        <ele>1</ele>
        <time>2010-11-16T12:59:56Z</time>
      </trkpt>
      <trkpt lat="59.3043174275" lon="18.0863468925">
        <ele>1</ele>
        <time>2010-11-16T12:59:58Z</time>
      </trkpt>
      <trkpt lat="59.3043506199" lon="18.0864679271">
        <ele>1</ele>
        <time>2010-11-16T13:00:00Z</time>
      </trkpt>
      <trkpt lat="59.3043699821" lon="18.0866100842">
        <ele>1</ele>
        <time>2010-11-16T13:00:02Z</time>
      </trkpt>
      <trkpt lat="59.3043966365" lon="18.0867360641">
        <ele>1</ele>
        <time>2010-11-16T13:00:04Z</time>
      </trkpt>
      <trkpt lat="59.304432511" lon="18.0868684981">
        <ele>1</ele>
        <time>2010-11-16T13:00:06Z</time>
      </trkpt>
      <trkpt lat="59.3044650328" lon="18.0869980823">
        <ele>1</ele>
        <time>2010-11-16T13:00:08Z</time>
      </trkpt>
      <trkpt lat="59.3045057688" lon="18.087118614">
        <ele>1.4</ele>
        <time>2010-11-16T13:00:10Z</time>
      </trkpt>
      <trkpt lat="59.3045425654" lon="18.0872445102">
        <ele>1.6</ele>
        <time>2010-11-16T13:00:12Z</time>
      </trkpt>
      <trkpt lat="59.3045783561" lon="18.087364539">
        <ele>2</ele>
        <time>2010-11-16T13:00:14Z</time>
      </trkpt>
      <trkpt lat="59.3046195112" lon="18.0874776946">
        <ele>2.2</ele>
        <time>2010-11-16T13:00:16Z</time>
      </trkpt>
      <trkpt lat="59.3046479259" lon="18.087604429">
        <ele>2.2</ele>
        <time>2010-11-16T13:00:18Z</time>
      </trkpt>
      <trkpt lat="59.304671479" lon="18.087735438">
        <ele>2.4</ele>
        <time>2010-11-16T13:00:20Z</time>
      </trkpt>
      <trkpt lat="59.30470157" lon="18.0878642679">
        <ele>2.6</ele>
        <time>2010-11-16T13:00:22Z</time>
      </trkpt>
      <trkpt lat="59.3047273025" lon="18.0879846319">
        <ele>2.8</ele>
        <time>2010-11-16T13:00:24Z</time>
      </trkpt>
      <trkpt lat="59.3047536216" lon="18.0880829516">
        <ele>3.2</ele>
        <time>2010-11-16T13:00:25Z</time>
      </trkpt>
      <trkpt lat="59.304730739" lon="18.0882401961">
        <ele>3.8</ele>
        <time>2010-11-16T13:00:29Z</time>
      </trkpt>
      <trkpt lat="59.3046905897" lon="18.0882401122">
        <ele>4.2</ele>
        <time>2010-11-16T13:00:33Z</time>
      </trkpt>
      <trkpt lat="59.3046970438" lon="18.0881987895">
        <ele>4.4</ele>
        <time>2010-11-16T13:00:37Z</time>
      </trkpt>
      <trkpt lat="59.304656643" lon="18.0882509249">
        <ele>4.6</ele>
        <time>2010-11-16T13:00:41Z</time>
      </trkpt>
      <trkpt lat="59.3046266358" lon="18.0883795871">
        <ele>4.8</ele>
        <time>2010-11-16T13:00:44Z</time>
      </trkpt>
      <trkpt lat="59.3045929406" lon="18.0884261904">
        <ele>4.8</ele>
        <time>2010-11-16T13:00:45Z</time>
      </trkpt>
      <trkpt lat="59.3045295734" lon="18.0885022981">
        <ele>4.8</ele>
        <time>2010-11-16T13:00:48Z</time>
      </trkpt>
      <trkpt lat="59.3044726603" lon="18.0885314671">
        <ele>5</ele>
        <time>2010-11-16T13:00:50Z</time>
      </trkpt>
      <trkpt lat="59.3044128136" lon="18.0885664196">
        <ele>5</ele>
        <time>2010-11-16T13:00:52Z</time>
      </trkpt>
      <trkpt lat="59.3043560681" lon="18.0885997796">
        <ele>5</ele>
        <time>2010-11-16T13:00:54Z</time>
      </trkpt>
      <trkpt lat="59.3043072016" lon="18.0886268531">
        <ele>5</ele>
        <time>2010-11-16T13:00:56Z</time>
      </trkpt>
      <trkpt lat="59.3042642863" lon="18.0886826766">
        <ele>5</ele>
        <time>2010-11-16T13:00:58Z</time>
      </trkpt>
      <trkpt lat="59.3041974826" lon="18.0887644839">
        <ele>5</ele>
        <time>2010-11-16T13:01:01Z</time>
      </trkpt>
      <trkpt lat="59.3041730912" lon="18.0887969219">
        <ele>5</ele>
        <time>2010-11-16T13:01:02Z</time>
      </trkpt>
      <trkpt lat="59.304060187" lon="18.0888452016">
        <ele>5</ele>
        <time>2010-11-16T13:01:05Z</time>
      </trkpt>
      <trkpt lat="59.3040159306" lon="18.0888856024">
        <ele>5</ele>
        <time>2010-11-16T13:01:07Z</time>
      </trkpt>
      <trkpt lat="59.3039879351" lon="18.0889204711">
        <ele>5</ele>
        <time>2010-11-16T13:01:08Z</time>
      </trkpt>
      <trkpt lat="59.3039901144" lon="18.0890790566">
        <ele>5</ele>
        <time>2010-11-16T13:01:10Z</time>
      </trkpt>
      <trkpt lat="59.3040254022" lon="18.0892305176">
        <ele>5</ele>
        <time>2010-11-16T13:01:13Z</time>
      </trkpt>
      <trkpt lat="59.3040041959" lon="18.0892737682">
        <ele>5</ele>
        <time>2010-11-16T13:01:16Z</time>
      </trkpt>
      <trkpt lat="59.3039809781" lon="18.0893143366">
        <ele>5.4</ele>
        <time>2010-11-16T13:01:18Z</time>
      </trkpt>
      <trkpt lat="59.3039503003" lon="18.0893582577">
        <ele>5.8</ele>
        <time>2010-11-16T13:01:20Z</time>
      </trkpt>
      <trkpt lat="59.3039069659" lon="18.0894119019">
        <ele>6.2</ele>
        <time>2010-11-16T13:01:24Z</time>
      </trkpt>
      <trkpt lat="59.3039259928" lon="18.0895865807">
        <ele>7.4</ele>
        <time>2010-11-16T13:01:28Z</time>
      </trkpt>
      <trkpt lat="59.3039389848" lon="18.0896844813">
        <ele>7.8</ele>
        <time>2010-11-16T13:01:30Z</time>
      </trkpt>
      <trkpt lat="59.3039386495" lon="18.0897155781">
        <ele>8.2</ele>
        <time>2010-11-16T13:01:31Z</time>
      </trkpt>
      <trkpt lat="59.3038901183" lon="18.0897491057">
        <ele>9.8</ele>
        <time>2010-11-16T13:01:37Z</time>
      </trkpt>
      <trkpt lat="59.3039068821" lon="18.0896652867">
        <ele>14.6</ele>
        <time>2010-11-16T13:01:54Z</time>
      </trkpt>
      <trkpt lat="59.3039484563" lon="18.0896087089">
        <ele>22.4</ele>
        <time>2010-11-16T13:02:29Z</time>
      </trkpt>
      <trkpt lat="59.3039534016" lon="18.0896205274">
        <ele>23.2</ele>
        <time>2010-11-16T13:02:34Z</time>
      </trkpt>
      <trkpt lat="59.3039387333" lon="18.0894740117">
        <ele>24.2</ele>
        <time>2010-11-16T13:03:50Z</time>
      </trkpt>
      <trkpt lat="59.2936018389" lon="18.1426717518">
        <ele>55</ele>
        <time>2010-11-16T13:49:32Z</time>
      </trkpt>
      <trkpt lat="59.2935942952" lon="18.1427087159">
        <ele>59.4</ele>
        <time>2010-11-16T13:49:46Z</time>
      </trkpt>
      <trkpt lat="59.293616172" lon="18.1426990767">
        <ele>60.2</ele>
        <time>2010-11-16T13:49:56Z</time>
      </trkpt>
      <trkpt lat="59.2936111429" lon="18.1426909463">
        <ele>60.6</ele>
        <time>2010-11-16T13:50:01Z</time>
      </trkpt>
      <trkpt lat="59.2936020066" lon="18.1426536468">
        <ele>59.2</ele>
        <time>2010-11-16T13:51:09Z</time>
      </trkpt>
      <trkpt lat="59.293611059" lon="18.1427016751">
        <ele>58.6</ele>
        <time>2010-11-16T13:51:13Z</time>
      </trkpt>
      <trkpt lat="59.2936843168" lon="18.1427994919">
        <ele>58</ele>
        <time>2010-11-16T13:51:16Z</time>
      </trkpt>
      <trkpt lat="59.2937418167" lon="18.1428867475">
        <ele>57.8</ele>
        <time>2010-11-16T13:51:18Z</time>
      </trkpt>
      <trkpt lat="59.2937993165" lon="18.1430118054">
        <ele>57.4</ele>
        <time>2010-11-16T13:51:20Z</time>
      </trkpt>
      <trkpt lat="59.2938600015" lon="18.1431540463">
        <ele>57.4</ele>
        <time>2010-11-16T13:51:22Z</time>
      </trkpt>
      <trkpt lat="59.293883387" lon="18.1432108756">
        <ele>57.2</ele>
        <time>2010-11-16T13:51:23Z</time>
      </trkpt>
      <trkpt lat="59.2939030006" lon="18.1432595744">
        <ele>57</ele>
        <time>2010-11-16T13:51:24Z</time>
      </trkpt>
      <trkpt lat="59.2939212732" lon="18.1433230254">
        <ele>56.6</ele>
        <time>2010-11-16T13:51:25Z</time>
      </trkpt>
      <trkpt lat="59.2940072715" lon="18.1435815232">
        <ele>56</ele>
        <time>2010-11-16T13:51:28Z</time>
      </trkpt>
      <trkpt lat="59.2940524499" lon="18.1436734726">
        <ele>55.8</ele>
        <time>2010-11-16T13:51:29Z</time>
      </trkpt>
      <trkpt lat="59.2941591515" lon="18.1438037273">
        <ele>55.6</ele>
        <time>2010-11-16T13:51:31Z</time>
      </trkpt>
      <trkpt lat="59.2942759113" lon="18.1438757279">
        <ele>55.4</ele>
        <time>2010-11-16T13:51:33Z</time>
      </trkpt>
      <trkpt lat="59.2943340817" lon="18.143903472">
        <ele>55</ele>
        <time>2010-11-16T13:51:34Z</time>
      </trkpt>
      <trkpt lat="59.2944467345" lon="18.1439531766">
        <ele>54.6</ele>
        <time>2010-11-16T13:51:36Z</time>
      </trkpt>
      <trkpt lat="59.2944896498" lon="18.1439993609">
        <ele>54.4</ele>
        <time>2010-11-16T13:51:37Z</time>
      </trkpt>
      <trkpt lat="59.2945665956" lon="18.1440767258">
        <ele>54</ele>
        <time>2010-11-16T13:51:39Z</time>
      </trkpt>
      <trkpt lat="59.2946073317" lon="18.1440987702">
        <ele>53.8</ele>
        <time>2010-11-16T13:51:40Z</time>
      </trkpt>
      <trkpt lat="59.2946833555" lon="18.1441446192">
        <ele>53.4</ele>
        <time>2010-11-16T13:51:42Z</time>
      </trkpt>
      <trkpt lat="59.2947416097" lon="18.1442040469">
        <ele>53.2</ele>
        <time>2010-11-16T13:51:44Z</time>
      </trkpt>
      <trkpt lat="59.2947663363" lon="18.144238748">
        <ele>53.2</ele>
        <time>2010-11-16T13:51:45Z</time>
      </trkpt>
      <trkpt lat="59.2948122691" lon="18.1443170349">
        <ele>52.6</ele>
        <time>2010-11-16T13:51:47Z</time>
      </trkpt>
      <trkpt lat="59.294838253" lon="18.1443444437">
        <ele>52.4</ele>
        <time>2010-11-16T13:51:48Z</time>
      </trkpt>
      <trkpt lat="59.2949230778" lon="18.1443855988">
        <ele>51.8</ele>
        <time>2010-11-16T13:51:51Z</time>
      </trkpt>
      <trkpt lat="59.294973034" lon="18.1443956571">
        <ele>51.4</ele>
        <time>2010-11-16T13:51:53Z</time>
      </trkpt>
      <trkpt lat="59.2950367364" lon="18.1444020274">
        <ele>51.2</ele>
        <time>2010-11-16T13:51:55Z</time>
      </trkpt>
      <trkpt lat="59.2951032887" lon="18.1444175339">
        <ele>51</ele>
        <time>2010-11-16T13:51:57Z</time>
      </trkpt>
      <trkpt lat="59.2951593636" lon="18.144443434">
        <ele>50.6</ele>
        <time>2010-11-16T13:51:59Z</time>
      </trkpt>
      <trkpt lat="59.2952239042" lon="18.144470256">
        <ele>50.2</ele>
        <time>2010-11-16T13:52:01Z</time>
      </trkpt>
      <trkpt lat="59.2952970782" lon="18.1444719324">
        <ele>49.8</ele>
        <time>2010-11-16T13:52:03Z</time>
      </trkpt>
      <trkpt lat="59.2953733535" lon="18.1444617903">
        <ele>49.4</ele>
        <time>2010-11-16T13:52:05Z</time>
      </trkpt>
      <trkpt lat="59.2954517243" lon="18.1444865169">
        <ele>49.2</ele>
        <time>2010-11-16T13:52:07Z</time>
      </trkpt>
      <trkpt lat="59.2955269937" lon="18.14451753">
        <ele>49</ele>
        <time>2010-11-16T13:52:09Z</time>
      </trkpt>
      <trkpt lat="59.295614417" lon="18.1445428433">
        <ele>48.8</ele>
        <time>2010-11-16T13:52:11Z</time>
      </trkpt>
      <trkpt lat="59.2957016725" lon="18.1445444359">
        <ele>48.6</ele>
        <time>2010-11-16T13:52:13Z</time>
      </trkpt>
      <trkpt lat="59.2957509581" lon="18.1445430109">
        <ele>48.4</ele>
        <time>2010-11-16T13:52:14Z</time>
      </trkpt>
      <trkpt lat="59.2958003275" lon="18.1445471181">
        <ele>48.2</ele>
        <time>2010-11-16T13:52:15Z</time>
      </trkpt>
      <trkpt lat="59.2958815481" lon="18.1446751097">
        <ele>47.8</ele>
        <time>2010-11-16T13:52:17Z</time>
      </trkpt>
      <trkpt lat="59.2960282314" lon="18.144781476">
        <ele>47.2</ele>
        <time>2010-11-16T13:52:20Z</time>
      </trkpt>
      <trkpt lat="59.2961385372" lon="18.1448266544">
        <ele>47</ele>
        <time>2010-11-16T13:52:22Z</time>
      </trkpt>
      <trkpt lat="59.2962482562" lon="18.1448791251">
        <ele>46.8</ele>
        <time>2010-11-16T13:52:24Z</time>
      </trkpt>
      <trkpt lat="59.2963542035" lon="18.1449315958">
        <ele>46.6</ele>
        <time>2010-11-16T13:52:26Z</time>
      </trkpt>
      <trkpt lat="59.2964587257" lon="18.1449802108">
        <ele>46.4</ele>
        <time>2010-11-16T13:52:28Z</time>
      </trkpt>
      <trkpt lat="59.296568361" lon="18.1450264789">
        <ele>46.2</ele>
        <time>2010-11-16T13:52:30Z</time>
      </trkpt>
      <trkpt lat="59.2966729671" lon="18.1450733337">
        <ele>45.8</ele>
        <time>2010-11-16T13:52:32Z</time>
      </trkpt>
      <trkpt lat="59.2967731308" lon="18.1451093759">
        <ele>45.4</ele>
        <time>2010-11-16T13:52:34Z</time>
      </trkpt>
      <trkpt lat="59.2968710314" lon="18.1451454181">
        <ele>45</ele>
        <time>2010-11-16T13:52:36Z</time>
      </trkpt>
      <trkpt lat="59.2969709437" lon="18.1451888363">
        <ele>44.8</ele>
        <time>2010-11-16T13:52:38Z</time>
      </trkpt>
      <trkpt lat="59.2970649886" lon="18.1452415585">
        <ele>44.6</ele>
        <time>2010-11-16T13:52:40Z</time>
      </trkpt>
      <trkpt lat="59.2971618833" lon="18.1453188396">
        <ele>44.4</ele>
        <time>2010-11-16T13:52:42Z</time>
      </trkpt>
      <trkpt lat="59.2972560959" lon="18.1453962883">
        <ele>44.4</ele>
        <time>2010-11-16T13:52:44Z</time>
      </trkpt>
      <trkpt lat="59.2973550861" lon="18.1454879863">
        <ele>43.8</ele>
        <time>2010-11-16T13:52:46Z</time>
      </trkpt>
      <trkpt lat="59.2974915435" lon="18.1456300595">
        <ele>43.4</ele>
        <time>2010-11-16T13:52:48Z</time>
      </trkpt>
      <trkpt lat="59.2976371371" lon="18.1458018047">
        <ele>43.2</ele>
        <time>2010-11-16T13:52:50Z</time>
      </trkpt>
      <trkpt lat="59.2977527235" lon="18.1459440455">
        <ele>42.8</ele>
        <time>2010-11-16T13:52:52Z</time>
      </trkpt>
      <trkpt lat="59.2978576649" lon="18.1460577879">
        <ele>42.6</ele>
        <time>2010-11-16T13:52:54Z</time>
      </trkpt>
      <trkpt lat="59.2979475188" lon="18.1461594603">
        <ele>42.6</ele>
        <time>2010-11-16T13:52:56Z</time>
      </trkpt>
      <trkpt lat="59.2980260572" lon="18.1462580315">
        <ele>42.4</ele>
        <time>2010-11-16T13:52:58Z</time>
      </trkpt>
      <trkpt lat="59.298101159" lon="18.1463642302">
        <ele>42.2</ele>
        <time>2010-11-16T13:53:00Z</time>
      </trkpt>
      <trkpt lat="59.2981736625" lon="18.1464630528">
        <ele>42.2</ele>
        <time>2010-11-16T13:53:02Z</time>
      </trkpt>
      <trkpt lat="59.2982449925" lon="18.1465658987">
        <ele>41.8</ele>
        <time>2010-11-16T13:53:04Z</time>
      </trkpt>
      <trkpt lat="59.2983107904" lon="18.1466818204">
        <ele>41.4</ele>
        <time>2010-11-16T13:53:06Z</time>
      </trkpt>
      <trkpt lat="59.2983463296" lon="18.1467425891">
        <ele>41.2</ele>
        <time>2010-11-16T13:53:07Z</time>
      </trkpt>
      <trkpt lat="59.29844247" lon="18.146951047">
        <ele>40.8</ele>
        <time>2010-11-16T13:53:10Z</time>
      </trkpt>
      <trkpt lat="59.298507765" lon="18.1470933716">
        <ele>40.6</ele>
        <time>2010-11-16T13:53:12Z</time>
      </trkpt>
      <trkpt lat="59.2985414603" lon="18.1471580799">
        <ele>40.4</ele>
        <time>2010-11-16T13:53:13Z</time>
      </trkpt>
      <trkpt lat="59.2986324039" lon="18.1473688009">
        <ele>40.2</ele>
        <time>2010-11-16T13:53:16Z</time>
      </trkpt>
      <trkpt lat="59.2986982018" lon="18.1475236146">
        <ele>40.2</ele>
        <time>2010-11-16T13:53:18Z</time>
      </trkpt>
      <trkpt lat="59.298766179" lon="18.1476837927">
        <ele>40</ele>
        <time>2010-11-16T13:53:20Z</time>
      </trkpt>
      <trkpt lat="59.2988060768" lon="18.1477750716">
        <ele>39.8</ele>
        <time>2010-11-16T13:53:21Z</time>
      </trkpt>
      <trkpt lat="59.2989195678" lon="18.1480778258">
        <ele>39.2</ele>
        <time>2010-11-16T13:53:24Z</time>
      </trkpt>
      <trkpt lat="59.2989667579" lon="18.1481762293">
        <ele>39</ele>
        <time>2010-11-16T13:53:25Z</time>
      </trkpt>
      <trkpt lat="59.2990675921" lon="18.1483714438">
        <ele>38.8</ele>
        <time>2010-11-16T13:53:27Z</time>
      </trkpt>
      <trkpt lat="59.2991166262" lon="18.1484726971">
        <ele>38.6</ele>
        <time>2010-11-16T13:53:28Z</time>
      </trkpt>
      <trkpt lat="59.2992331346" lon="18.1488653053">
        <ele>37.8</ele>
        <time>2010-11-16T13:53:31Z</time>
      </trkpt>
      <trkpt lat="59.2992414327" lon="18.1491222944">
        <ele>37.4</ele>
        <time>2010-11-16T13:53:33Z</time>
      </trkpt>
      <trkpt lat="59.2992416004" lon="18.1492463465">
        <ele>37.2</ele>
        <time>2010-11-16T13:53:34Z</time>
      </trkpt>
      <trkpt lat="59.2992447017" lon="18.1493589154">
        <ele>37</ele>
        <time>2010-11-16T13:53:35Z</time>
      </trkpt>
      <trkpt lat="59.2992586994" lon="18.1495661998">
        <ele>36.8</ele>
        <time>2010-11-16T13:53:37Z</time>
      </trkpt>
      <trkpt lat="59.2992668299" lon="18.1497813632">
        <ele>36.4</ele>
        <time>2010-11-16T13:53:39Z</time>
      </trkpt>
      <trkpt lat="59.2992934005" lon="18.1501194052">
        <ele>35.6</ele>
        <time>2010-11-16T13:53:42Z</time>
      </trkpt>
      <trkpt lat="59.2993055543" lon="18.1502252686">
        <ele>35.4</ele>
        <time>2010-11-16T13:53:43Z</time>
      </trkpt>
      <trkpt lat="59.2993359806" lon="18.1504114306">
        <ele>35</ele>
        <time>2010-11-16T13:53:45Z</time>
      </trkpt>
      <trkpt lat="59.2993467932" lon="18.1505012007">
        <ele>34.8</ele>
        <time>2010-11-16T13:53:46Z</time>
      </trkpt>
      <trkpt lat="59.2993653172" lon="18.1506751251">
        <ele>34.6</ele>
        <time>2010-11-16T13:53:48Z</time>
      </trkpt>
      <trkpt lat="59.2993027882" lon="18.1509197928">
        <ele>34.4</ele>
        <time>2010-11-16T13:53:52Z</time>
      </trkpt>
      <trkpt lat="59.2992456237" lon="18.1509098183">
        <ele>34.2</ele>
        <time>2010-11-16T13:53:54Z</time>
      </trkpt>
      <trkpt lat="59.2991932368" lon="18.1508319505">
        <ele>34</ele>
        <time>2010-11-16T13:53:57Z</time>
      </trkpt>
      <trkpt lat="59.299191309" lon="18.1507310324">
        <ele>34</ele>
        <time>2010-11-16T13:53:59Z</time>
      </trkpt>
      <trkpt lat="59.2991665824" lon="18.1505943236">
        <ele>33.8</ele>
        <time>2010-11-16T13:54:01Z</time>
      </trkpt>
      <trkpt lat="59.2991561888" lon="18.1504491491">
        <ele>33.4</ele>
        <time>2010-11-16T13:54:03Z</time>
      </trkpt>
      <trkpt lat="59.2991497347" lon="18.1503188944">
        <ele>33</ele>
        <time>2010-11-16T13:54:05Z</time>
      </trkpt>
      <trkpt lat="59.2991459629" lon="18.1502644959">
        <ele>32.8</ele>
        <time>2010-11-16T13:54:06Z</time>
      </trkpt>
      <trkpt lat="59.2991421072" lon="18.1500931698">
        <ele>32.4</ele>
        <time>2010-11-16T13:54:09Z</time>
      </trkpt>
      <trkpt lat="59.2991338929" lon="18.1499836184">
        <ele>32.2</ele>
        <time>2010-11-16T13:54:11Z</time>
      </trkpt>
      <trkpt lat="59.2991011197" lon="18.149845317">
        <ele>32</ele>
        <time>2010-11-16T13:54:14Z</time>
      </trkpt>
      <trkpt lat="59.299076896" lon="18.1497639288">
        <ele>32</ele>
        <time>2010-11-16T13:54:16Z</time>
      </trkpt>
      <trkpt lat="59.2990345674" lon="18.1496566405">
        <ele>31.8</ele>
        <time>2010-11-16T13:54:19Z</time>
      </trkpt>
      <trkpt lat="59.2990126907" lon="18.1496127193">
        <ele>31.8</ele>
        <time>2010-11-16T13:54:21Z</time>
      </trkpt>
      <trkpt lat="59.2989940829" lon="18.1495527049">
        <ele>31.6</ele>
        <time>2010-11-16T13:54:27Z</time>
      </trkpt>
      <trkpt lat="59.2989524248" lon="18.1494677125">
        <ele>31.6</ele>
        <time>2010-11-16T13:54:30Z</time>
      </trkpt>
      <trkpt lat="59.2989099286" lon="18.1493494438">
        <ele>31.6</ele>
        <time>2010-11-16T13:54:33Z</time>
      </trkpt>
      <trkpt lat="59.2988812625" lon="18.1492702349">
        <ele>31.4</ele>
        <time>2010-11-16T13:54:35Z</time>
      </trkpt>
      <trkpt lat="59.2988535184" lon="18.1492163393">
        <ele>31.4</ele>
        <time>2010-11-16T13:54:37Z</time>
      </trkpt>
      <trkpt lat="59.2987963538" lon="18.1491499546">
        <ele>32</ele>
        <time>2010-11-16T13:54:41Z</time>
      </trkpt>
      <trkpt lat="59.298730975" lon="18.1491098891">
        <ele>32.4</ele>
        <time>2010-11-16T13:54:44Z</time>
      </trkpt>
      <trkpt lat="59.2986867186" lon="18.1490783732">
        <ele>32.6</ele>
        <time>2010-11-16T13:54:46Z</time>
      </trkpt>
      <trkpt lat="59.2986166459" lon="18.1490387268">
        <ele>33.2</ele>
        <time>2010-11-16T13:54:49Z</time>
      </trkpt>
      <trkpt lat="59.2985616606" lon="18.1490116533">
        <ele>33.8</ele>
        <time>2010-11-16T13:54:52Z</time>
      </trkpt>
      <trkpt lat="59.2985377722" lon="18.1489949733">
        <ele>34</ele>
        <time>2010-11-16T13:54:53Z</time>
      </trkpt>
      <trkpt lat="59.2984836251" lon="18.1489640441">
        <ele>34.2</ele>
        <time>2010-11-16T13:54:55Z</time>
      </trkpt>
      <trkpt lat="59.2984590662" lon="18.1489470288">
        <ele>34.4</ele>
        <time>2010-11-16T13:54:56Z</time>
      </trkpt>
      <trkpt lat="59.2984352616" lon="18.1489291754">
        <ele>34.6</ele>
        <time>2010-11-16T13:54:57Z</time>
      </trkpt>
      <trkpt lat="59.2983864789" lon="18.1489031915">
        <ele>35.2</ele>
        <time>2010-11-16T13:54:59Z</time>
      </trkpt>
      <trkpt lat="59.2983333377" lon="18.1489115734">
        <ele>35.6</ele>
        <time>2010-11-16T13:55:01Z</time>
      </trkpt>
      <trkpt lat="59.2982762569" lon="18.1489428379">
        <ele>36.2</ele>
        <time>2010-11-16T13:55:04Z</time>
      </trkpt>
      <trkpt lat="59.2982203497" lon="18.1489868429">
        <ele>36.6</ele>
        <time>2010-11-16T13:55:07Z</time>
      </trkpt>
      <trkpt lat="59.2981997302" lon="18.1490046125">
        <ele>36.6</ele>
        <time>2010-11-16T13:55:08Z</time>
      </trkpt>
      <trkpt lat="59.2981025002" lon="18.1490552392">
        <ele>37</ele>
        <time>2010-11-16T13:55:11Z</time>
      </trkpt>
      <trkpt lat="59.2980231236" lon="18.1491163432">
        <ele>37.4</ele>
        <time>2010-11-16T13:55:13Z</time>
      </trkpt>
      <trkpt lat="59.297992362" lon="18.1491407345">
        <ele>37.6</ele>
        <time>2010-11-16T13:55:14Z</time>
      </trkpt>
      <trkpt lat="59.2979728322" lon="18.1492901">
        <ele>38.4</ele>
        <time>2010-11-16T13:55:18Z</time>
      </trkpt>
      <trkpt lat="59.2979790348" lon="18.1493265613">
        <ele>38.4</ele>
        <time>2010-11-16T13:55:19Z</time>
      </trkpt>
      <trkpt lat="59.2979988999" lon="18.1494562293">
        <ele>39</ele>
        <time>2010-11-16T13:55:23Z</time>
      </trkpt>
      <trkpt lat="59.29801273" lon="18.1495820416">
        <ele>39.2</ele>
        <time>2010-11-16T13:55:26Z</time>
      </trkpt>
      <trkpt lat="59.2980230397" lon="18.1496959516">
        <ele>39.4</ele>
        <time>2010-11-16T13:55:28Z</time>
      </trkpt>
      <trkpt lat="59.2980279851" lon="18.149810616">
        <ele>39.8</ele>
        <time>2010-11-16T13:55:30Z</time>
      </trkpt>
      <trkpt lat="59.2980265601" lon="18.1499207541">
        <ele>40.2</ele>
        <time>2010-11-16T13:55:32Z</time>
      </trkpt>
      <trkpt lat="59.2980279012" lon="18.1500302218">
        <ele>40.4</ele>
        <time>2010-11-16T13:55:34Z</time>
      </trkpt>
      <trkpt lat="59.2980317569" lon="18.1501464787">
        <ele>40.8</ele>
        <time>2010-11-16T13:55:36Z</time>
      </trkpt>
      <trkpt lat="59.2980395521" lon="18.1502623166">
        <ele>41</ele>
        <time>2010-11-16T13:55:38Z</time>
      </trkpt>
      <trkpt lat="59.2980444136" lon="18.1503149549">
        <ele>41</ele>
        <time>2010-11-16T13:55:39Z</time>
      </trkpt>
      <trkpt lat="59.298101159" lon="18.1504608">
        <ele>41.6</ele>
        <time>2010-11-16T13:55:43Z</time>
      </trkpt>
      <trkpt lat="59.2981398834" lon="18.1505374105">
        <ele>42</ele>
        <time>2010-11-16T13:55:45Z</time>
      </trkpt>
      <trkpt lat="59.2981827149" lon="18.1506147755">
        <ele>42.4</ele>
        <time>2010-11-16T13:55:47Z</time>
      </trkpt>
      <trkpt lat="59.2982299889" lon="18.1507366483">
        <ele>42.6</ele>
        <time>2010-11-16T13:55:49Z</time>
      </trkpt>
      <trkpt lat="59.2982677912" lon="18.1508904562">
        <ele>42.8</ele>
        <time>2010-11-16T13:55:51Z</time>
      </trkpt>
      <trkpt lat="59.2982811184" lon="18.1510157656">
        <ele>43</ele>
        <time>2010-11-16T13:55:53Z</time>
      </trkpt>
      <trkpt lat="59.2983116286" lon="18.1511514685">
        <ele>43.2</ele>
        <time>2010-11-16T13:55:55Z</time>
      </trkpt>
      <trkpt lat="59.2983311584" lon="18.1512983194">
        <ele>43.6</ele>
        <time>2010-11-16T13:55:57Z</time>
      </trkpt>
      <trkpt lat="59.2983171606" lon="18.1514606768">
        <ele>44</ele>
        <time>2010-11-16T13:55:59Z</time>
      </trkpt>
      <trkpt lat="59.2983053421" lon="18.1515247984">
        <ele>44.2</ele>
        <time>2010-11-16T13:56:00Z</time>
      </trkpt>
      <trkpt lat="59.298229905" lon="18.1516571486">
        <ele>44.8</ele>
        <time>2010-11-16T13:56:04Z</time>
      </trkpt>
      <trkpt lat="59.2981844751" lon="18.1517135587">
        <ele>45</ele>
        <time>2010-11-16T13:56:06Z</time>
      </trkpt>
      <trkpt lat="59.2981389614" lon="18.1517617547">
        <ele>45.2</ele>
        <time>2010-11-16T13:56:08Z</time>
      </trkpt>
      <trkpt lat="59.2980920228" lon="18.1518191707">
        <ele>45.2</ele>
        <time>2010-11-16T13:56:10Z</time>
      </trkpt>
      <trkpt lat="59.2980617641" lon="18.1518600744">
        <ele>45.4</ele>
        <time>2010-11-16T13:56:12Z</time>
      </trkpt>
      <trkpt lat="59.2980091258" lon="18.1519132994">
        <ele>46</ele>
        <time>2010-11-16T13:56:15Z</time>
      </trkpt>
      <trkpt lat="59.2979414839" lon="18.1519635908">
        <ele>46.6</ele>
        <time>2010-11-16T13:56:18Z</time>
      </trkpt>
      <trkpt lat="59.2978781167" lon="18.1519982081">
        <ele>46.8</ele>
        <time>2010-11-16T13:56:20Z</time>
      </trkpt>
      <trkpt lat="59.2978144981" lon="18.1520204201">
        <ele>47</ele>
        <time>2010-11-16T13:56:22Z</time>
      </trkpt>
      <trkpt lat="59.2977456827" lon="18.1520416263">
        <ele>47.2</ele>
        <time>2010-11-16T13:56:24Z</time>
      </trkpt>
      <trkpt lat="59.2976767835" lon="18.1520837873">
        <ele>47.4</ele>
        <time>2010-11-16T13:56:26Z</time>
      </trkpt>
      <trkpt lat="59.2976143383" lon="18.1521341625">
        <ele>47.4</ele>
        <time>2010-11-16T13:56:28Z</time>
      </trkpt>
      <trkpt lat="59.2975634602" lon="18.1521593082">
        <ele>47.6</ele>
        <time>2010-11-16T13:56:30Z</time>
      </trkpt>
      <trkpt lat="59.2974767075" lon="18.1521787542">
        <ele>47.8</ele>
        <time>2010-11-16T13:56:34Z</time>
      </trkpt>
      <trkpt lat="59.2974052937" lon="18.1522489945">
        <ele>48.4</ele>
        <time>2010-11-16T13:56:37Z</time>
      </trkpt>
      <trkpt lat="59.2973846742" lon="18.1522836956">
        <ele>48.6</ele>
        <time>2010-11-16T13:56:38Z</time>
      </trkpt>
      <trkpt lat="59.2973211394" lon="18.1523944205">
        <ele>49</ele>
        <time>2010-11-16T13:56:41Z</time>
      </trkpt>
      <trkpt lat="59.2972561797" lon="18.1525385053">
        <ele>49.2</ele>
        <time>2010-11-16T13:56:43Z</time>
      </trkpt>
      <trkpt lat="59.2971756297" lon="18.1526686762">
        <ele>49.2</ele>
        <time>2010-11-16T13:56:45Z</time>
      </trkpt>
      <trkpt lat="59.2971121787" lon="18.1527747911">
        <ele>49.8</ele>
        <time>2010-11-16T13:56:47Z</time>
      </trkpt>
      <trkpt lat="59.2970839317" lon="18.1528382421">
        <ele>50</ele>
        <time>2010-11-16T13:56:48Z</time>
      </trkpt>
      <trkpt lat="59.2969537608" lon="18.1529891163">
        <ele>50.6</ele>
        <time>2010-11-16T13:56:51Z</time>
      </trkpt>
      <trkpt lat="59.2969091691" lon="18.1530305229">
        <ele>50.6</ele>
        <time>2010-11-16T13:56:52Z</time>
      </trkpt>
      <trkpt lat="59.2968083348" lon="18.1531425051">
        <ele>51</ele>
        <time>2010-11-16T13:56:54Z</time>
      </trkpt>
      <trkpt lat="59.2967003759" lon="18.1532856679">
        <ele>51.2</ele>
        <time>2010-11-16T13:56:56Z</time>
      </trkpt>
      <trkpt lat="59.2965750665" lon="18.1534603467">
        <ele>51.4</ele>
        <time>2010-11-16T13:56:58Z</time>
      </trkpt>
      <trkpt lat="59.2965157227" lon="18.1535556489">
        <ele>51.4</ele>
        <time>2010-11-16T13:56:59Z</time>
      </trkpt>
      <trkpt lat="59.2964030699" lon="18.1539490953">
        <ele>51.6</ele>
        <time>2010-11-16T13:57:02Z</time>
      </trkpt>
      <trkpt lat="59.2963455701" lon="18.1541922542">
        <ele>51.6</ele>
        <time>2010-11-16T13:57:04Z</time>
      </trkpt>
      <trkpt lat="59.2962647686" lon="18.1543759016">
        <ele>51.8</ele>
        <time>2010-11-16T13:57:06Z</time>
      </trkpt>
      <trkpt lat="59.2962147286" lon="18.1544608103">
        <ele>51.8</ele>
        <time>2010-11-16T13:57:07Z</time>
      </trkpt>
      <trkpt lat="59.2961535408" lon="18.1545411927">
        <ele>51.8</ele>
        <time>2010-11-16T13:57:08Z</time>
      </trkpt>
      <trkpt lat="59.2960847254" lon="18.1546185576">
        <ele>51.8</ele>
        <time>2010-11-16T13:57:09Z</time>
      </trkpt>
      <trkpt lat="59.2958548937" lon="18.154760547">
        <ele>51.8</ele>
        <time>2010-11-16T13:57:12Z</time>
      </trkpt>
      <trkpt lat="59.2957091324" lon="18.1548130177">
        <ele>51.8</ele>
        <time>2010-11-16T13:57:14Z</time>
      </trkpt>
      <trkpt lat="59.2956400656" lon="18.1548234113">
        <ele>51.8</ele>
        <time>2010-11-16T13:57:15Z</time>
      </trkpt>
      <trkpt lat="59.2955811408" lon="18.1548250038">
        <ele>51.8</ele>
        <time>2010-11-16T13:57:16Z</time>
      </trkpt>
      <trkpt lat="59.2953668156" lon="18.1549232397">
        <ele>52</ele>
        <time>2010-11-16T13:57:19Z</time>
      </trkpt>
      <trkpt lat="59.2952119181" lon="18.1549929771">
        <ele>52</ele>
        <time>2010-11-16T13:57:21Z</time>
      </trkpt>
      <trkpt lat="59.2951270095" lon="18.1550297737">
        <ele>52</ele>
        <time>2010-11-16T13:57:22Z</time>
      </trkpt>
      <trkpt lat="59.29492115" lon="18.1551031991">
        <ele>51.4</ele>
        <time>2010-11-16T13:57:25Z</time>
      </trkpt>
      <trkpt lat="59.2947151229" lon="18.1551985013">
        <ele>51</ele>
        <time>2010-11-16T13:57:27Z</time>
      </trkpt>
      <trkpt lat="59.2946382609" lon="18.1552368066">
        <ele>50.6</ele>
        <time>2010-11-16T13:57:28Z</time>
      </trkpt>
      <trkpt lat="59.2944443875" lon="18.155416766">
        <ele>50</ele>
        <time>2010-11-16T13:57:30Z</time>
      </trkpt>
      <trkpt lat="59.2943486662" lon="18.155503351">
        <ele>49.8</ele>
        <time>2010-11-16T13:57:31Z</time>
      </trkpt>
      <trkpt lat="59.294250598" lon="18.1555772794">
        <ele>49.4</ele>
        <time>2010-11-16T13:57:32Z</time>
      </trkpt>
      <trkpt lat="59.2940650227" lon="18.1557002418">
        <ele>48.6</ele>
        <time>2010-11-16T13:57:34Z</time>
      </trkpt>
      <trkpt lat="59.2939682118" lon="18.1557723262">
        <ele>48.2</ele>
        <time>2010-11-16T13:57:35Z</time>
      </trkpt>
      <trkpt lat="59.2937274836" lon="18.1560496832">
        <ele>47.4</ele>
        <time>2010-11-16T13:57:38Z</time>
      </trkpt>
      <trkpt lat="59.2935990729" lon="18.156279934">
        <ele>46.6</ele>
        <time>2010-11-16T13:57:40Z</time>
      </trkpt>
      <trkpt lat="59.2935455126" lon="18.1563992085">
        <ele>46.4</ele>
        <time>2010-11-16T13:57:41Z</time>
      </trkpt>
      <trkpt lat="59.2934086362" lon="18.1567346521">
        <ele>45.4</ele>
        <time>2010-11-16T13:57:44Z</time>
      </trkpt>
      <trkpt lat="59.2933694089" lon="18.1568216562">
        <ele>45.2</ele>
        <time>2010-11-16T13:57:45Z</time>
      </trkpt>
      <trkpt lat="59.2932228094" lon="18.1570381607">
        <ele>44.8</ele>
        <time>2010-11-16T13:57:48Z</time>
      </trkpt>
      <trkpt lat="59.2931777148" lon="18.1570836744">
        <ele>44.6</ele>
        <time>2010-11-16T13:57:49Z</time>
      </trkpt>
      <trkpt lat="59.2930554229" lon="18.1572317826">
        <ele>43.6</ele>
        <time>2010-11-16T13:57:52Z</time>
      </trkpt>
      <trkpt lat="59.2929375734" lon="18.1573261628">
        <ele>43.2</ele>
        <time>2010-11-16T13:57:54Z</time>
      </trkpt>
      <trkpt lat="59.2928265132" lon="18.157337646">
        <ele>42.8</ele>
        <time>2010-11-16T13:57:56Z</time>
      </trkpt>
      <trkpt lat="59.2927076579" lon="18.1572691659">
        <ele>42.4</ele>
        <time>2010-11-16T13:57:58Z</time>
      </trkpt>
      <trkpt lat="59.2926442907" lon="18.1572406674">
        <ele>42.2</ele>
        <time>2010-11-16T13:57:59Z</time>
      </trkpt>
      <trkpt lat="59.2925279499" lon="18.157213091">
        <ele>41.6</ele>
        <time>2010-11-16T13:58:01Z</time>
      </trkpt>
      <trkpt lat="59.2924003774" lon="18.1571893702">
        <ele>41.2</ele>
        <time>2010-11-16T13:58:03Z</time>
      </trkpt>
      <trkpt lat="59.2923497507" lon="18.1571475445">
        <ele>41</ele>
        <time>2010-11-16T13:58:04Z</time>
      </trkpt>
      <trkpt lat="59.2922754871" lon="18.1569925632">
        <ele>40.6</ele>
        <time>2010-11-16T13:58:06Z</time>
      </trkpt>
      <trkpt lat="59.29223802" lon="18.1568970095">
        <ele>40.4</ele>
        <time>2010-11-16T13:58:07Z</time>
      </trkpt>
      <trkpt lat="59.2921512673" lon="18.156650414">
        <ele>40</ele>
        <time>2010-11-16T13:58:10Z</time>
      </trkpt>
      <trkpt lat="59.2920985452" lon="18.1565052395">
        <ele>39.4</ele>
        <time>2010-11-16T13:58:12Z</time>
      </trkpt>
      <trkpt lat="59.2920732318" lon="18.1564459795">
        <ele>39.2</ele>
        <time>2010-11-16T13:58:13Z</time>
      </trkpt>
      <trkpt lat="59.292008775" lon="18.1563049959">
        <ele>37.4</ele>
        <time>2010-11-16T13:58:28Z</time>
      </trkpt>
      <trkpt lat="59.2919969566" lon="18.1562640923">
        <ele>37.4</ele>
        <time>2010-11-16T13:58:29Z</time>
      </trkpt>
      <trkpt lat="59.2919500179" lon="18.1561505175">
        <ele>37.2</ele>
        <time>2010-11-16T13:58:32Z</time>
      </trkpt>
      <trkpt lat="59.2919341761" lon="18.1560077737">
        <ele>37.2</ele>
        <time>2010-11-16T13:58:34Z</time>
      </trkpt>
      <trkpt lat="59.2919330865" lon="18.155788168">
        <ele>37.2</ele>
        <time>2010-11-16T13:58:36Z</time>
      </trkpt>
      <trkpt lat="59.2919302366" lon="18.1556665466">
        <ele>37.2</ele>
        <time>2010-11-16T13:58:37Z</time>
      </trkpt>
      <trkpt lat="59.2919207651" lon="18.1555755192">
        <ele>37.2</ele>
        <time>2010-11-16T13:58:38Z</time>
      </trkpt>
      <trkpt lat="59.2918369461" lon="18.1554115692">
        <ele>37</ele>
        <time>2010-11-16T13:58:41Z</time>
      </trkpt>
      <trkpt lat="59.2917785242" lon="18.1553486211">
        <ele>37</ele>
        <time>2010-11-16T13:58:42Z</time>
      </trkpt>
      <trkpt lat="59.2915904344" lon="18.1551016065">
        <ele>37</ele>
        <time>2010-11-16T13:58:45Z</time>
      </trkpt>
      <trkpt lat="59.2915406459" lon="18.1550280973">
        <ele>37</ele>
        <time>2010-11-16T13:58:46Z</time>
      </trkpt>
      <trkpt lat="59.2914356207" lon="18.1547676716">
        <ele>36.4</ele>
        <time>2010-11-16T13:58:49Z</time>
      </trkpt>
      <trkpt lat="59.2914113132" lon="18.1546970122">
        <ele>36.2</ele>
        <time>2010-11-16T13:58:50Z</time>
      </trkpt>
      <trkpt lat="59.2913604351" lon="18.1545636562">
        <ele>36</ele>
        <time>2010-11-16T13:58:52Z</time>
      </trkpt>
      <trkpt lat="59.2913079644" lon="18.1544545239">
        <ele>35.8</ele>
        <time>2010-11-16T13:58:54Z</time>
      </trkpt>
      <trkpt lat="59.2912819805" lon="18.1543888098">
        <ele>35.8</ele>
        <time>2010-11-16T13:58:55Z</time>
      </trkpt>
      <trkpt lat="59.2911966527" lon="18.1542314815">
        <ele>35.6</ele>
        <time>2010-11-16T13:58:58Z</time>
      </trkpt>
      <trkpt lat="59.2911640472" lon="18.1541817768">
        <ele>35.4</ele>
        <time>2010-11-16T13:58:59Z</time>
      </trkpt>
      <trkpt lat="59.2911051224" lon="18.1541142187">
        <ele>35.4</ele>
        <time>2010-11-16T13:59:01Z</time>
      </trkpt>
      <trkpt lat="59.2910433478" lon="18.1540616642">
        <ele>35.2</ele>
        <time>2010-11-16T13:59:03Z</time>
      </trkpt>
      <trkpt lat="59.2909708444" lon="18.1540054217">
        <ele>35.2</ele>
        <time>2010-11-16T13:59:06Z</time>
      </trkpt>
      <trkpt lat="59.2909314494" lon="18.1539771747">
        <ele>35.2</ele>
        <time>2010-11-16T13:59:08Z</time>
      </trkpt>
      <trkpt lat="59.2908643942" lon="18.1539561361">
        <ele>35</ele>
        <time>2010-11-16T13:59:12Z</time>
      </trkpt>
      <trkpt lat="59.2908447806" lon="18.1539843831">
        <ele>35</ele>
        <time>2010-11-16T13:59:13Z</time>
      </trkpt>
      <trkpt lat="59.2908038769" lon="18.1540935154">
        <ele>35</ele>
        <time>2010-11-16T13:59:15Z</time>
      </trkpt>
      <trkpt lat="59.290758447" lon="18.1541977863">
        <ele>35</ele>
        <time>2010-11-16T13:59:17Z</time>
      </trkpt>
      <trkpt lat="59.2907215667" lon="18.1542966927">
        <ele>35</ele>
        <time>2010-11-16T13:59:19Z</time>
      </trkpt>
      <trkpt lat="59.2906815012" lon="18.1544036457">
        <ele>35</ele>
        <time>2010-11-16T13:59:21Z</time>
      </trkpt>
      <trkpt lat="59.2906547629" lon="18.1544927453">
        <ele>35</ele>
        <time>2010-11-16T13:59:23Z</time>
      </trkpt>
      <trkpt lat="59.2906436988" lon="18.1545397678">
        <ele>35.2</ele>
        <time>2010-11-16T13:59:24Z</time>
      </trkpt>
      <trkpt lat="59.2906483088" lon="18.1547211521">
        <ele>35.8</ele>
        <time>2010-11-16T13:59:28Z</time>
      </trkpt>
      <trkpt lat="59.2906424415" lon="18.1548298653">
        <ele>36</ele>
        <time>2010-11-16T13:59:30Z</time>
      </trkpt>
      <trkpt lat="59.290641268" lon="18.1549804881">
        <ele>36.2</ele>
        <time>2010-11-16T13:59:32Z</time>
      </trkpt>
      <trkpt lat="59.2906303716" lon="18.1551590226">
        <ele>36.4</ele>
        <time>2010-11-16T13:59:34Z</time>
      </trkpt>
      <trkpt lat="59.2906295334" lon="18.1553398201">
        <ele>36.4</ele>
        <time>2010-11-16T13:59:36Z</time>
      </trkpt>
      <trkpt lat="59.2906240852" lon="18.1554290036">
        <ele>36.4</ele>
        <time>2010-11-16T13:59:37Z</time>
      </trkpt>
      <trkpt lat="59.2906156194" lon="18.1555964739">
        <ele>36.6</ele>
        <time>2010-11-16T13:59:39Z</time>
      </trkpt>
      <trkpt lat="59.2906126858" lon="18.1556806282">
        <ele>36.6</ele>
        <time>2010-11-16T13:59:40Z</time>
      </trkpt>
      <trkpt lat="59.29058293" lon="18.1559644393">
        <ele>36.8</ele>
        <time>2010-11-16T13:59:43Z</time>
      </trkpt>
      <trkpt lat="59.2905775656" lon="18.1560702189">
        <ele>36.8</ele>
        <time>2010-11-16T13:59:44Z</time>
      </trkpt>
      <trkpt lat="59.2905736261" lon="18.1563448938">
        <ele>36.8</ele>
        <time>2010-11-16T13:59:47Z</time>
      </trkpt>
      <trkpt lat="59.2905751349" lon="18.15642536">
        <ele>36.8</ele>
        <time>2010-11-16T13:59:48Z</time>
      </trkpt>
      <trkpt lat="59.2905550183" lon="18.1566479833">
        <ele>36.8</ele>
        <time>2010-11-16T13:59:51Z</time>
      </trkpt>
      <trkpt lat="59.2905450438" lon="18.1567934931">
        <ele>36.8</ele>
        <time>2010-11-16T13:59:53Z</time>
      </trkpt>
      <trkpt lat="59.2905376678" lon="18.1568768091">
        <ele>36.8</ele>
        <time>2010-11-16T13:59:54Z</time>
      </trkpt>
      <trkpt lat="59.2905348179" lon="18.1569647353">
        <ele>36.8</ele>
        <time>2010-11-16T13:59:55Z</time>
      </trkpt>
      <trkpt lat="59.2905281962" lon="18.157171852">
        <ele>36.8</ele>
        <time>2010-11-16T13:59:57Z</time>
      </trkpt>
      <trkpt lat="59.290510678" lon="18.15737746">
        <ele>36.8</ele>
        <time>2010-11-16T13:59:59Z</time>
      </trkpt>
      <trkpt lat="59.2905045593" lon="18.1574689066">
        <ele>37</ele>
        <time>2010-11-16T14:00:00Z</time>
      </trkpt>
      <trkpt lat="59.2905255978" lon="18.1576938768">
        <ele>37</ele>
        <time>2010-11-16T14:00:03Z</time>
      </trkpt>
      <trkpt lat="59.2905471393" lon="18.1578429069">
        <ele>37</ele>
        <time>2010-11-16T14:00:05Z</time>
      </trkpt>
      <trkpt lat="59.290529705" lon="18.1579620137">
        <ele>37</ele>
        <time>2010-11-16T14:00:07Z</time>
      </trkpt>
      <trkpt lat="59.2905162939" lon="18.158005432">
        <ele>37</ele>
        <time>2010-11-16T14:00:08Z</time>
      </trkpt>
      <trkpt lat="59.2904930761" lon="18.158089251">
        <ele>37</ele>
        <time>2010-11-16T14:00:10Z</time>
      </trkpt>
      <trkpt lat="59.2904566148" lon="18.1581791049">
        <ele>37</ele>
        <time>2010-11-16T14:00:12Z</time>
      </trkpt>
      <trkpt lat="59.2904026354" lon="18.1582542906">
        <ele>37</ele>
        <time>2010-11-16T14:00:14Z</time>
      </trkpt>
      <trkpt lat="59.2903531821" lon="18.1583750738">
        <ele>37</ele>
        <time>2010-11-16T14:00:16Z</time>
      </trkpt>
      <trkpt lat="59.2903024717" lon="18.158483787">
        <ele>37</ele>
        <time>2010-11-16T14:00:18Z</time>
      </trkpt>
      <trkpt lat="59.2902506715" lon="18.1585846213">
        <ele>37</ele>
        <time>2010-11-16T14:00:20Z</time>
      </trkpt>
      <trkpt lat="59.2902020565" lon="18.1586810131">
        <ele>37</ele>
        <time>2010-11-16T14:00:22Z</time>
      </trkpt>
      <trkpt lat="59.2901536091" lon="18.1587896425">
        <ele>37</ele>
        <time>2010-11-16T14:00:24Z</time>
      </trkpt>
      <trkpt lat="59.2901051617" lon="18.1589548498">
        <ele>37</ele>
        <time>2010-11-16T14:00:26Z</time>
      </trkpt>
      <trkpt lat="59.2900506794" lon="18.1591125133">
        <ele>37</ele>
        <time>2010-11-16T14:00:28Z</time>
      </trkpt>
      <trkpt lat="59.2900062553" lon="18.1592373198">
        <ele>37</ele>
        <time>2010-11-16T14:00:30Z</time>
      </trkpt>
      <trkpt lat="59.2899728115" lon="18.1593436861">
        <ele>37</ele>
        <time>2010-11-16T14:00:32Z</time>
      </trkpt>
      <trkpt lat="59.289940625" lon="18.159447035">
        <ele>37</ele>
        <time>2010-11-16T14:00:34Z</time>
      </trkpt>
      <trkpt lat="59.2899138868" lon="18.1595421695">
        <ele>37</ele>
        <time>2010-11-16T14:00:36Z</time>
      </trkpt>
      <trkpt lat="59.2898933511" lon="18.159629006">
        <ele>37</ele>
        <time>2010-11-16T14:00:38Z</time>
      </trkpt>
      <trkpt lat="59.2898689598" lon="18.1597455144">
        <ele>37</ele>
        <time>2010-11-16T14:00:41Z</time>
      </trkpt>
      <trkpt lat="59.2898432274" lon="18.1598676387">
        <ele>37</ele>
        <time>2010-11-16T14:00:44Z</time>
      </trkpt>
      <trkpt lat="59.2898157347" lon="18.1599763519">
        <ele>37</ele>
        <time>2010-11-16T14:00:47Z</time>
      </trkpt>
      <trkpt lat="59.28979478" lon="18.1600476819">
        <ele>37</ele>
        <time>2010-11-16T14:00:50Z</time>
      </trkpt>
      <trkpt lat="59.2897798602" lon="18.1601149047">
        <ele>37</ele>
        <time>2010-11-16T14:00:54Z</time>
      </trkpt>
      <trkpt lat="59.2897755016" lon="18.1601314171">
        <ele>37</ele>
        <time>2010-11-16T14:00:55Z</time>
      </trkpt>
      <trkpt lat="59.2897488472" lon="18.1601803674">
        <ele>37</ele>
        <time>2010-11-16T14:00:59Z</time>
      </trkpt>
      <trkpt lat="59.2897044231" lon="18.1602997256">
        <ele>37</ele>
        <time>2010-11-16T14:01:41Z</time>
      </trkpt>
      <trkpt lat="59.2897092008" lon="18.1603244522">
        <ele>37</ele>
        <time>2010-11-16T14:01:48Z</time>
      </trkpt>
      <trkpt lat="59.2897232824" lon="18.1603863945">
        <ele>37</ele>
        <time>2010-11-16T14:02:02Z</time>
      </trkpt>
      <trkpt lat="59.2897396271" lon="18.160436183">
        <ele>37</ele>
        <time>2010-11-16T14:02:06Z</time>
      </trkpt>
      <trkpt lat="59.2897378669" lon="18.1604817805">
        <ele>37</ele>
        <time>2010-11-16T14:02:10Z</time>
      </trkpt>
      <trkpt lat="59.2897527028" lon="18.1605182418">
        <ele>37.8</ele>
        <time>2010-11-16T14:02:16Z</time>
      </trkpt>
      <trkpt lat="59.2897710592" lon="18.1605531943">
        <ele>38.2</ele>
        <time>2010-11-16T14:02:20Z</time>
      </trkpt>
      <trkpt lat="59.2897851408" lon="18.1605915834">
        <ele>38.8</ele>
        <time>2010-11-16T14:02:30Z</time>
      </trkpt>
      <trkpt lat="59.2897724841" lon="18.1606372648">
        <ele>38.8</ele>
        <time>2010-11-16T14:02:34Z</time>
      </trkpt>
      <trkpt lat="59.2897692152" lon="18.1606506758">
        <ele>38.8</ele>
        <time>2010-11-16T14:02:35Z</time>
      </trkpt>
      <trkpt lat="59.2897635993" lon="18.1606956028">
        <ele>38.8</ele>
        <time>2010-11-16T14:02:44Z</time>
      </trkpt>
      <trkpt lat="59.289752619" lon="18.1606853769">
        <ele>39</ele>
        <time>2010-11-16T14:02:49Z</time>
      </trkpt>
      <trkpt lat="59.2897473384" lon="18.1606821079">
        <ele>39</ele>
        <time>2010-11-16T14:02:59Z</time>
      </trkpt>
      <trkpt lat="59.2897848893" lon="18.1606730555">
        <ele>39</ele>
        <time>2010-11-16T14:03:09Z</time>
      </trkpt>
      <trkpt lat="59.2897755854" lon="18.1607062478">
        <ele>39</ele>
        <time>2010-11-16T14:03:18Z</time>
      </trkpt>
      <trkpt lat="59.2897527866" lon="18.1607444693">
        <ele>39</ele>
        <time>2010-11-16T14:03:22Z</time>
      </trkpt>
      <trkpt lat="59.2897138108" lon="18.1607515939">
        <ele>39</ele>
        <time>2010-11-16T14:03:27Z</time>
      </trkpt>
      <trkpt lat="59.2897286468" lon="18.160739943">
        <ele>39.6</ele>
        <time>2010-11-16T14:03:31Z</time>
      </trkpt>
      <trkpt lat="59.2897384536" lon="18.1607388534">
        <ele>40.4</ele>
        <time>2010-11-16T14:03:39Z</time>
      </trkpt>
      <trkpt lat="59.2897393756" lon="18.1607132048">
        <ele>40.8</ele>
        <time>2010-11-16T14:03:50Z</time>
      </trkpt>
      <trkpt lat="59.2897857275" lon="18.160702895">
        <ele>41</ele>
        <time>2010-11-16T14:04:07Z</time>
      </trkpt>
      <trkpt lat="59.2897608333" lon="18.1607360035">
        <ele>42.2</ele>
        <time>2010-11-16T14:04:16Z</time>
      </trkpt>
      <trkpt lat="59.2897524514" lon="18.1607415356">
        <ele>42.6</ele>
        <time>2010-11-16T14:04:22Z</time>
      </trkpt>
      <trkpt lat="59.2897548821" lon="18.1607174795">
        <ele>42.8</ele>
        <time>2010-11-16T14:04:28Z</time>
      </trkpt>
      <trkpt lat="59.289777178" lon="18.1607464809">
        <ele>43.8</ele>
        <time>2010-11-16T14:04:34Z</time>
      </trkpt>
      <trkpt lat="59.2898027428" lon="18.1607514262">
        <ele>44.8</ele>
        <time>2010-11-16T14:04:46Z</time>
      </trkpt>
      <trkpt lat="59.2898083586" lon="18.1607070022">
        <ele>44.8</ele>
        <time>2010-11-16T14:04:50Z</time>
      </trkpt>
      <trkpt lat="59.289786901" lon="18.1606600635">
        <ele>45</ele>
        <time>2010-11-16T14:04:55Z</time>
      </trkpt>
      <trkpt lat="59.2897719812" lon="18.1606432997">
        <ele>45</ele>
        <time>2010-11-16T14:05:08Z</time>
      </trkpt>
      <trkpt lat="59.289748931" lon="18.1606674396">
        <ele>45.8</ele>
        <time>2010-11-16T14:05:17Z</time>
      </trkpt>
      <trkpt lat="59.2897307423" lon="18.1606586386">
        <ele>46.4</ele>
        <time>2010-11-16T14:05:22Z</time>
      </trkpt>
      <trkpt lat="59.2897168283" lon="18.1606316489">
        <ele>46.6</ele>
        <time>2010-11-16T14:05:25Z</time>
      </trkpt>
      <trkpt lat="59.2904960935" lon="18.1578514565">
        <ele>35.4</ele>
        <time>2010-11-16T14:17:32Z</time>
      </trkpt>
      <trkpt lat="59.2904686009" lon="18.1577121493">
        <ele>35.4</ele>
        <time>2010-11-16T14:17:34Z</time>
      </trkpt>
      <trkpt lat="59.2904542679" lon="18.1576308449">
        <ele>35.4</ele>
        <time>2010-11-16T14:17:35Z</time>
      </trkpt>
      <trkpt lat="59.2904660025" lon="18.1573720118">
        <ele>35.4</ele>
        <time>2010-11-16T14:17:38Z</time>
      </trkpt>
      <trkpt lat="59.2904751388" lon="18.1571996799">
        <ele>35.4</ele>
        <time>2010-11-16T14:17:40Z</time>
      </trkpt>
      <trkpt lat="59.2904794974" lon="18.1571090716">
        <ele>35.2</ele>
        <time>2010-11-16T14:17:41Z</time>
      </trkpt>
      <trkpt lat="59.2904968479" lon="18.1568643201">
        <ele>35.6</ele>
        <time>2010-11-16T14:17:44Z</time>
      </trkpt>
      <trkpt lat="59.2905059842" lon="18.1567788247">
        <ele>35.6</ele>
        <time>2010-11-16T14:17:45Z</time>
      </trkpt>
      <trkpt lat="59.2905127735" lon="18.1565166389">
        <ele>35.8</ele>
        <time>2010-11-16T14:17:48Z</time>
      </trkpt>
      <trkpt lat="59.2905067386" lon="18.1564209176">
        <ele>36</ele>
        <time>2010-11-16T14:17:49Z</time>
      </trkpt>
      <trkpt lat="59.290497267" lon="18.1563187422">
        <ele>36</ele>
        <time>2010-11-16T14:17:50Z</time>
      </trkpt>
      <trkpt lat="59.2905046431" lon="18.1560063488">
        <ele>36</ele>
        <time>2010-11-16T14:17:53Z</time>
      </trkpt>
      <trkpt lat="59.2905129412" lon="18.155911801">
        <ele>36.2</ele>
        <time>2010-11-16T14:17:54Z</time>
      </trkpt>
      <trkpt lat="59.2905211554" lon="18.1557514552">
        <ele>36.2</ele>
        <time>2010-11-16T14:17:56Z</time>
      </trkpt>
      <trkpt lat="59.2905234185" lon="18.1556156685">
        <ele>36.2</ele>
        <time>2010-11-16T14:17:58Z</time>
      </trkpt>
      <trkpt lat="59.2905237538" lon="18.1554429175">
        <ele>36.2</ele>
        <time>2010-11-16T14:18:00Z</time>
      </trkpt>
      <trkpt lat="59.2905182218" lon="18.1552691607">
        <ele>36.4</ele>
        <time>2010-11-16T14:18:02Z</time>
      </trkpt>
      <trkpt lat="59.2905166292" lon="18.1551346312">
        <ele>36.4</ele>
        <time>2010-11-16T14:18:04Z</time>
      </trkpt>
      <trkpt lat="59.2905188085" lon="18.1550096571">
        <ele>36.4</ele>
        <time>2010-11-16T14:18:06Z</time>
      </trkpt>
      <trkpt lat="59.2905152043" lon="18.1549168695">
        <ele>36.4</ele>
        <time>2010-11-16T14:18:08Z</time>
      </trkpt>
      <trkpt lat="59.2905153719" lon="18.1548724454">
        <ele>36.4</ele>
        <time>2010-11-16T14:18:09Z</time>
      </trkpt>
      <trkpt lat="59.2905061518" lon="18.1546794102">
        <ele>36.4</ele>
        <time>2010-11-16T14:18:12Z</time>
      </trkpt>
      <trkpt lat="59.29054035" lon="18.1545765643">
        <ele>36.4</ele>
        <time>2010-11-16T14:18:14Z</time>
      </trkpt>
      <trkpt lat="59.2905664177" lon="18.1544830223">
        <ele>36.4</ele>
        <time>2010-11-16T14:18:16Z</time>
      </trkpt>
      <trkpt lat="59.2905966763" lon="18.1543856246">
        <ele>36.4</ele>
        <time>2010-11-16T14:18:18Z</time>
      </trkpt>
      <trkpt lat="59.2906198942" lon="18.1543285439">
        <ele>36.4</ele>
        <time>2010-11-16T14:18:19Z</time>
      </trkpt>
      <trkpt lat="59.2906665814" lon="18.1541819445">
        <ele>36.4</ele>
        <time>2010-11-16T14:18:21Z</time>
      </trkpt>
      <trkpt lat="59.2907041323" lon="18.1540929287">
        <ele>36.4</ele>
        <time>2010-11-16T14:18:23Z</time>
      </trkpt>
      <trkpt lat="59.2907281045" lon="18.1540585629">
        <ele>36.4</ele>
        <time>2010-11-16T14:18:24Z</time>
      </trkpt>
      <trkpt lat="59.290814941" lon="18.1540172401">
        <ele>36.4</ele>
        <time>2010-11-16T14:18:26Z</time>
      </trkpt>
      <trkpt lat="59.2909113329" lon="18.1540444813">
        <ele>36.4</ele>
        <time>2010-11-16T14:18:28Z</time>
      </trkpt>
      <trkpt lat="59.2909674078" lon="18.1540839601">
        <ele>36.4</ele>
        <time>2010-11-16T14:18:29Z</time>
      </trkpt>
      <trkpt lat="59.2910822398" lon="18.154293759">
        <ele>36.4</ele>
        <time>2010-11-16T14:18:32Z</time>
      </trkpt>
      <trkpt lat="59.2911494626" lon="18.1544065794">
        <ele>36.4</ele>
        <time>2010-11-16T14:18:34Z</time>
      </trkpt>
      <trkpt lat="59.2911896119" lon="18.1544982774">
        <ele>36.4</ele>
        <time>2010-11-16T14:18:35Z</time>
      </trkpt>
      <trkpt lat="59.2912221337" lon="18.15457581">
        <ele>36.4</ele>
        <time>2010-11-16T14:18:36Z</time>
      </trkpt>
      <trkpt lat="59.2912526438" lon="18.1546549351">
        <ele>36.4</ele>
        <time>2010-11-16T14:18:37Z</time>
      </trkpt>
      <trkpt lat="59.2913222136" lon="18.1548182983">
        <ele>36.4</ele>
        <time>2010-11-16T14:18:39Z</time>
      </trkpt>
      <trkpt lat="59.2913481137" lon="18.1548839286">
        <ele>36.4</ele>
        <time>2010-11-16T14:18:40Z</time>
      </trkpt>
      <trkpt lat="59.2914367942" lon="18.155035641">
        <ele>36.4</ele>
        <time>2010-11-16T14:18:43Z</time>
      </trkpt>
      <trkpt lat="59.291511896" lon="18.1551451086">
        <ele>36.4</ele>
        <time>2010-11-16T14:18:45Z</time>
      </trkpt>
      <trkpt lat="59.2915495307" lon="18.1551783847">
        <ele>36.4</ele>
        <time>2010-11-16T14:18:46Z</time>
      </trkpt>
      <trkpt lat="59.2915945415" lon="18.1552160195">
        <ele>36.4</ele>
        <time>2010-11-16T14:18:47Z</time>
      </trkpt>
      <trkpt lat="59.2916685537" lon="18.1552981621">
        <ele>36.4</ele>
        <time>2010-11-16T14:18:49Z</time>
      </trkpt>
      <trkpt lat="59.2917449966" lon="18.1554347032">
        <ele>36.4</ele>
        <time>2010-11-16T14:18:52Z</time>
      </trkpt>
      <trkpt lat="59.2918010716" lon="18.1555419916">
        <ele>36.4</ele>
        <time>2010-11-16T14:18:54Z</time>
      </trkpt>
      <trkpt lat="59.2918247923" lon="18.155612651">
        <ele>36.4</ele>
        <time>2010-11-16T14:18:55Z</time>
      </trkpt>
      <trkpt lat="59.2918369461" lon="18.1556817178">
        <ele>36.4</ele>
        <time>2010-11-16T14:18:56Z</time>
      </trkpt>
      <trkpt lat="59.2918520335" lon="18.1558238749">
        <ele>36.4</ele>
        <time>2010-11-16T14:18:58Z</time>
      </trkpt>
      <trkpt lat="59.2918591581" lon="18.1560042534">
        <ele>36.4</ele>
        <time>2010-11-16T14:19:00Z</time>
      </trkpt>
      <trkpt lat="59.2918725692" lon="18.1561412136">
        <ele>36.4</ele>
        <time>2010-11-16T14:19:02Z</time>
      </trkpt>
      <trkpt lat="59.29187961" lon="18.1561960312">
        <ele>36.4</ele>
        <time>2010-11-16T14:19:03Z</time>
      </trkpt>
      <trkpt lat="59.2919372774" lon="18.1563706262">
        <ele>36.4</ele>
        <time>2010-11-16T14:19:06Z</time>
      </trkpt>
      <trkpt lat="59.2919820368" lon="18.1565120289">
        <ele>36.4</ele>
        <time>2010-11-16T14:19:08Z</time>
      </trkpt>
      <trkpt lat="59.2920271314" lon="18.1566421998">
        <ele>36.4</ele>
        <time>2010-11-16T14:19:10Z</time>
      </trkpt>
      <trkpt lat="59.2920679512" lon="18.15677455">
        <ele>36.4</ele>
        <time>2010-11-16T14:19:12Z</time>
      </trkpt>
      <trkpt lat="59.2921119562" lon="18.1569138571">
        <ele>36.4</ele>
        <time>2010-11-16T14:19:14Z</time>
      </trkpt>
      <trkpt lat="59.2921574699" lon="18.1570411782">
        <ele>36.4</ele>
        <time>2010-11-16T14:19:16Z</time>
      </trkpt>
      <trkpt lat="59.2921905784" lon="18.1571239076">
        <ele>36.4</ele>
        <time>2010-11-16T14:19:17Z</time>
      </trkpt>
      <trkpt lat="59.2922410375" lon="18.1572175334">
        <ele>36.4</ele>
        <time>2010-11-16T14:19:19Z</time>
      </trkpt>
      <trkpt lat="59.2922904907" lon="18.1572653102">
        <ele>36.4</ele>
        <time>2010-11-16T14:19:20Z</time>
      </trkpt>
      <trkpt lat="59.2924031434" lon="18.1572818225">
        <ele>36.4</ele>
        <time>2010-11-16T14:19:23Z</time>
      </trkpt>
      <trkpt lat="59.2924745572" lon="18.1572878575">
        <ele>36.4</ele>
        <time>2010-11-16T14:19:25Z</time>
      </trkpt>
      <trkpt lat="59.292552928" lon="18.1573049566">
        <ele>36.4</ele>
        <time>2010-11-16T14:19:27Z</time>
      </trkpt>
      <trkpt lat="59.2926669218" lon="18.1573567567">
        <ele>36.4</ele>
        <time>2010-11-16T14:19:30Z</time>
      </trkpt>
      <trkpt lat="59.2927238349" lon="18.1573848361">
        <ele>36.4</ele>
        <time>2010-11-16T14:19:31Z</time>
      </trkpt>
      <trkpt lat="59.2928055584" lon="18.1574090598">
        <ele>36.4</ele>
        <time>2010-11-16T14:19:33Z</time>
      </trkpt>
      <trkpt lat="59.2928808279" lon="18.157420543">
        <ele>36.4</ele>
        <time>2010-11-16T14:19:35Z</time>
      </trkpt>
      <trkpt lat="59.2929441951" lon="18.1575184436">
        <ele>36.4</ele>
        <time>2010-11-16T14:19:38Z</time>
      </trkpt>
      <trkpt lat="59.2929790638" lon="18.1576375504">
        <ele>36.4</ele>
        <time>2010-11-16T14:19:40Z</time>
      </trkpt>
      <trkpt lat="59.2930185425" lon="18.1577429947">
        <ele>36.4</ele>
        <time>2010-11-16T14:19:42Z</time>
      </trkpt>
      <trkpt lat="59.2930784731" lon="18.1578920249">
        <ele>36.4</ele>
        <time>2010-11-16T14:19:44Z</time>
      </trkpt>
      <trkpt lat="59.2931418403" lon="18.1580537955">
        <ele>36.4</ele>
        <time>2010-11-16T14:19:46Z</time>
      </trkpt>
      <trkpt lat="59.2932011003" lon="18.1582190866">
        <ele>36.4</ele>
        <time>2010-11-16T14:19:48Z</time>
      </trkpt>
      <trkpt lat="59.2932349632" lon="18.15828237">
        <ele>36.4</ele>
        <time>2010-11-16T14:19:49Z</time>
      </trkpt>
      <trkpt lat="59.2932834106" lon="18.1583743194">
        <ele>36.4</ele>
        <time>2010-11-16T14:19:51Z</time>
      </trkpt>
      <trkpt lat="59.2933397369" lon="18.1584718847">
        <ele>36.4</ele>
        <time>2010-11-16T14:19:53Z</time>
      </trkpt>
      <trkpt lat="59.2933659723" lon="18.1585256127">
        <ele>36.4</ele>
        <time>2010-11-16T14:19:54Z</time>
      </trkpt>
      <trkpt lat="59.2934371346" lon="18.1585774128">
        <ele>36.4</ele>
        <time>2010-11-16T14:19:56Z</time>
      </trkpt>
      <trkpt lat="59.2934881804" lon="18.1585796759">
        <ele>36.4</ele>
        <time>2010-11-16T14:19:58Z</time>
      </trkpt>
      <trkpt lat="59.2935182714" lon="18.1585721322">
        <ele>36.4</ele>
        <time>2010-11-16T14:19:59Z</time>
      </trkpt>
      <trkpt lat="59.2936108914" lon="18.1585473218">
        <ele>36.4</ele>
        <time>2010-11-16T14:20:03Z</time>
      </trkpt>
      <trkpt lat="59.2937012483" lon="18.1585303904">
        <ele>36.4</ele>
        <time>2010-11-16T14:20:06Z</time>
      </trkpt>
      <trkpt lat="59.2937864922" lon="18.1585298036">
        <ele>36.4</ele>
        <time>2010-11-16T14:20:08Z</time>
      </trkpt>
      <trkpt lat="59.293878274" lon="18.158546316">
        <ele>36.4</ele>
        <time>2010-11-16T14:20:10Z</time>
      </trkpt>
      <trkpt lat="59.2939636018" lon="18.158599122">
        <ele>36.4</ele>
        <time>2010-11-16T14:20:12Z</time>
      </trkpt>
      <trkpt lat="59.2940573952" lon="18.1586320628">
        <ele>36.4</ele>
        <time>2010-11-16T14:20:14Z</time>
      </trkpt>
      <trkpt lat="59.2941074352" lon="18.1586184841">
        <ele>36.4</ele>
        <time>2010-11-16T14:20:15Z</time>
      </trkpt>
      <trkpt lat="59.2941895778" lon="18.1585836993">
        <ele>36.4</ele>
        <time>2010-11-16T14:20:17Z</time>
      </trkpt>
      <trkpt lat="59.2942541184" lon="18.1585502555">
        <ele>36.4</ele>
        <time>2010-11-16T14:20:18Z</time>
      </trkpt>
      <trkpt lat="59.2943376021" lon="18.1584622455">
        <ele>36.4</ele>
        <time>2010-11-16T14:20:20Z</time>
      </trkpt>
      <trkpt lat="59.294374231" lon="18.1584271254">
        <ele>36.4</ele>
        <time>2010-11-16T14:20:21Z</time>
      </trkpt>
      <trkpt lat="59.2945140411" lon="18.1584200007">
        <ele>36.4</ele>
        <time>2010-11-16T14:20:24Z</time>
      </trkpt>
      <trkpt lat="59.294611355" lon="18.1584756566">
        <ele>36.4</ele>
        <time>2010-11-16T14:20:26Z</time>
      </trkpt>
      <trkpt lat="59.2946992811" lon="18.1585899019">
        <ele>36.4</ele>
        <time>2010-11-16T14:20:28Z</time>
      </trkpt>
      <trkpt lat="59.2947327249" lon="18.1586619024">
        <ele>36.4</ele>
        <time>2010-11-16T14:20:29Z</time>
      </trkpt>
      <trkpt lat="59.2947579544" lon="18.158735244">
        <ele>36.4</ele>
        <time>2010-11-16T14:20:30Z</time>
      </trkpt>
      <trkpt lat="59.2948034681" lon="18.1588608887">
        <ele>36.4</ele>
        <time>2010-11-16T14:20:32Z</time>
      </trkpt>
      <trkpt lat="59.2948280271" lon="18.1589333921">
        <ele>36.4</ele>
        <time>2010-11-16T14:20:33Z</time>
      </trkpt>
      <trkpt lat="59.2948747981" lon="18.159111759">
        <ele>36.4</ele>
        <time>2010-11-16T14:20:36Z</time>
      </trkpt>
      <trkpt lat="59.294890137" lon="18.1591581109">
        <ele>36.4</ele>
        <time>2010-11-16T14:20:37Z</time>
      </trkpt>
      <trkpt lat="59.2949208986" lon="18.1592913831">
        <ele>36.4</ele>
        <time>2010-11-16T14:20:40Z</time>
      </trkpt>
      <trkpt lat="59.2949778117" lon="18.1592940653">
        <ele>36.4</ele>
        <time>2010-11-16T14:20:43Z</time>
      </trkpt>
      <trkpt lat="59.2949429429" lon="18.1591767187">
        <ele>36.4</ele>
        <time>2010-11-16T14:20:46Z</time>
      </trkpt>
      <trkpt lat="59.2948985189" lon="18.1590816679">
        <ele>36.4</ele>
        <time>2010-11-16T14:20:48Z</time>
      </trkpt>
      <trkpt lat="59.2948736246" lon="18.1590296163">
        <ele>36.4</ele>
        <time>2010-11-16T14:20:49Z</time>
      </trkpt>
      <trkpt lat="59.2948349841" lon="18.1588967632">
        <ele>36.4</ele>
        <time>2010-11-16T14:20:51Z</time>
      </trkpt>
      <trkpt lat="59.294803552" lon="18.1587844458">
        <ele>36.4</ele>
        <time>2010-11-16T14:20:53Z</time>
      </trkpt>
      <trkpt lat="59.2947981875" lon="18.1587358307">
        <ele>36.4</ele>
        <time>2010-11-16T14:20:54Z</time>
      </trkpt>
      <trkpt lat="59.2947764784" lon="18.1586937536">
        <ele>36.4</ele>
        <time>2010-11-16T14:20:57Z</time>
      </trkpt>
      <trkpt lat="59.2947628997" lon="18.1586654228">
        <ele>36.4</ele>
        <time>2010-11-16T14:21:02Z</time>
      </trkpt>
      <trkpt lat="59.2947546017" lon="18.1585405325">
        <ele>36.4</ele>
        <time>2010-11-16T14:21:06Z</time>
      </trkpt>
      <trkpt lat="59.2947434537" lon="18.1584020635">
        <ele>36.4</ele>
        <time>2010-11-16T14:21:09Z</time>
      </trkpt>
      <trkpt lat="59.2947354071" lon="18.1583025703">
        <ele>36.4</ele>
        <time>2010-11-16T14:21:11Z</time>
      </trkpt>
      <trkpt lat="59.2947403524" lon="18.1581998921">
        <ele>36.2</ele>
        <time>2010-11-16T14:21:13Z</time>
      </trkpt>
      <trkpt lat="59.2947488181" lon="18.1580921008">
        <ele>35.8</ele>
        <time>2010-11-16T14:21:16Z</time>
      </trkpt>
      <trkpt lat="59.2947596308" lon="18.1579884167">
        <ele>35.6</ele>
        <time>2010-11-16T14:21:17Z</time>
      </trkpt>
      <trkpt lat="59.2947727904" lon="18.1578833915">
        <ele>35.4</ele>
        <time>2010-11-16T14:21:19Z</time>
      </trkpt>
      <trkpt lat="59.2947761431" lon="18.1577628598">
        <ele>35.2</ele>
        <time>2010-11-16T14:21:21Z</time>
      </trkpt>
      <trkpt lat="59.2947768975" lon="18.1576569964">
        <ele>35</ele>
        <time>2010-11-16T14:21:23Z</time>
      </trkpt>
      <trkpt lat="59.2947816752" lon="18.1575467744">
        <ele>35</ele>
        <time>2010-11-16T14:21:25Z</time>
      </trkpt>
      <trkpt lat="59.2947878778" lon="18.1574218003">
        <ele>34.8</ele>
        <time>2010-11-16T14:21:27Z</time>
      </trkpt>
      <trkpt lat="59.2947909791" lon="18.1573043699">
        <ele>34.8</ele>
        <time>2010-11-16T14:21:29Z</time>
      </trkpt>
      <trkpt lat="59.2947964273" lon="18.1571757077">
        <ele>34.6</ele>
        <time>2010-11-16T14:21:31Z</time>
      </trkpt>
      <trkpt lat="59.2948038872" lon="18.1570505659">
        <ele>34.6</ele>
        <time>2010-11-16T14:21:33Z</time>
      </trkpt>
      <trkpt lat="59.2948056474" lon="18.1568923995">
        <ele>34.6</ele>
        <time>2010-11-16T14:21:36Z</time>
      </trkpt>
      <trkpt lat="59.2947930746" lon="18.1567593787">
        <ele>34.6</ele>
        <time>2010-11-16T14:21:37Z</time>
      </trkpt>
      <trkpt lat="59.2947781548" lon="18.1566204906">
        <ele>34.6</ele>
        <time>2010-11-16T14:21:39Z</time>
      </trkpt>
      <trkpt lat="59.2947610557" lon="18.1564644197">
        <ele>34.6</ele>
        <time>2010-11-16T14:21:41Z</time>
      </trkpt>
      <trkpt lat="59.2947464712" lon="18.1563310636">
        <ele>34.8</ele>
        <time>2010-11-16T14:21:43Z</time>
      </trkpt>
      <trkpt lat="59.2947384246" lon="18.1561834584">
        <ele>35.2</ele>
        <time>2010-11-16T14:21:45Z</time>
      </trkpt>
      <trkpt lat="59.2947380893" lon="18.1560328356">
        <ele>35.4</ele>
        <time>2010-11-16T14:21:47Z</time>
      </trkpt>
      <trkpt lat="59.2947315514" lon="18.1558987252">
        <ele>35.6</ele>
        <time>2010-11-16T14:21:49Z</time>
      </trkpt>
      <trkpt lat="59.2947311323" lon="18.1557494436">
        <ele>35.8</ele>
        <time>2010-11-16T14:21:51Z</time>
      </trkpt>
      <trkpt lat="59.294742867" lon="18.1556346954">
        <ele>36</ele>
        <time>2010-11-16T14:21:53Z</time>
      </trkpt>
      <trkpt lat="59.2947504945" lon="18.1555951328">
        <ele>36</ele>
        <time>2010-11-16T14:21:54Z</time>
      </trkpt>
      <trkpt lat="59.2947728742" lon="18.1554282492">
        <ele>36.8</ele>
        <time>2010-11-16T14:21:57Z</time>
      </trkpt>
      <trkpt lat="59.294789638" lon="18.1553724257">
        <ele>37</ele>
        <time>2010-11-16T14:21:59Z</time>
      </trkpt>
      <trkpt lat="59.2948250934" lon="18.1553131657">
        <ele>37.6</ele>
        <time>2010-11-16T14:22:04Z</time>
      </trkpt>
      <trkpt lat="59.2948414381" lon="18.1553032751">
        <ele>37.8</ele>
        <time>2010-11-16T14:22:05Z</time>
      </trkpt>
      <trkpt lat="59.2949112594" lon="18.1552517264">
        <ele>38.2</ele>
        <time>2010-11-16T14:22:10Z</time>
      </trkpt>
      <trkpt lat="59.2949566054" lon="18.1552274189">
        <ele>38.6</ele>
        <time>2010-11-16T14:22:13Z</time>
      </trkpt>
      <trkpt lat="59.295025337" lon="18.1552068832">
        <ele>39.2</ele>
        <time>2010-11-16T14:22:17Z</time>
      </trkpt>
      <trkpt lat="59.2950459565" lon="18.1551964058">
        <ele>39.4</ele>
        <time>2010-11-16T14:22:18Z</time>
      </trkpt>
      <trkpt lat="59.2951150234" lon="18.1551581844">
        <ele>39.8</ele>
        <time>2010-11-16T14:22:21Z</time>
      </trkpt>
      <trkpt lat="59.2951913825" lon="18.1551341283">
        <ele>40</ele>
        <time>2010-11-16T14:22:24Z</time>
      </trkpt>
      <trkpt lat="59.2952643888" lon="18.1550937276">
        <ele>40.2</ele>
        <time>2010-11-16T14:22:27Z</time>
      </trkpt>
      <trkpt lat="59.2953477049" lon="18.1550631336">
        <ele>40.2</ele>
        <time>2010-11-16T14:22:30Z</time>
      </trkpt>
      <trkpt lat="59.2954178614" lon="18.1550296898">
        <ele>40.6</ele>
        <time>2010-11-16T14:22:33Z</time>
      </trkpt>
      <trkpt lat="59.2954937176" lon="18.1550026163">
        <ele>41.2</ele>
        <time>2010-11-16T14:22:36Z</time>
      </trkpt>
      <trkpt lat="59.2955736809" lon="18.1549759619">
        <ele>41.6</ele>
        <time>2010-11-16T14:22:39Z</time>
      </trkpt>
      <trkpt lat="59.295641239" lon="18.1549519058">
        <ele>41.8</ele>
        <time>2010-11-16T14:22:42Z</time>
      </trkpt>
      <trkpt lat="59.2956992418" lon="18.1549200546">
        <ele>42.2</ele>
        <time>2010-11-16T14:22:45Z</time>
      </trkpt>
      <trkpt lat="59.2957077075" lon="18.1548921429">
        <ele>42.6</ele>
        <time>2010-11-16T14:22:46Z</time>
      </trkpt>
      <trkpt lat="59.2957628604" lon="18.1548478864">
        <ele>43.2</ele>
        <time>2010-11-16T14:22:49Z</time>
      </trkpt>
      <trkpt lat="59.2958426561" lon="18.1548011992">
        <ele>43.6</ele>
        <time>2010-11-16T14:22:52Z</time>
      </trkpt>
      <trkpt lat="59.2959198534" lon="18.1547582001">
        <ele>43.8</ele>
        <time>2010-11-16T14:22:55Z</time>
      </trkpt>
      <trkpt lat="59.2959944523" lon="18.1546921507">
        <ele>44.2</ele>
        <time>2010-11-16T14:22:58Z</time>
      </trkpt>
      <trkpt lat="59.2960540476" lon="18.154644793">
        <ele>44.2</ele>
        <time>2010-11-16T14:23:00Z</time>
      </trkpt>
      <trkpt lat="59.2961083623" lon="18.1545732954">
        <ele>44.6</ele>
        <time>2010-11-16T14:23:03Z</time>
      </trkpt>
      <trkpt lat="59.2961359388" lon="18.1545221658">
        <ele>45</ele>
        <time>2010-11-16T14:23:05Z</time>
      </trkpt>
      <trkpt lat="59.296164102" lon="18.1544136202">
        <ele>45.4</ele>
        <time>2010-11-16T14:23:08Z</time>
      </trkpt>
      <trkpt lat="59.296204838" lon="18.1542320682">
        <ele>45.8</ele>
        <time>2010-11-16T14:23:11Z</time>
      </trkpt>
      <trkpt lat="59.2962155668" lon="18.154157134">
        <ele>46</ele>
        <time>2010-11-16T14:23:12Z</time>
      </trkpt>
      <trkpt lat="59.2962784311" lon="18.1539734028">
        <ele>46.2</ele>
        <time>2010-11-16T14:23:15Z</time>
      </trkpt>
      <trkpt lat="59.2963067619" lon="18.15392747">
        <ele>46.2</ele>
        <time>2010-11-16T14:23:16Z</time>
      </trkpt>
      <trkpt lat="59.2963348413" lon="18.1538800284">
        <ele>46.2</ele>
        <time>2010-11-16T14:23:17Z</time>
      </trkpt>
      <trkpt lat="59.2964008068" lon="18.1537776016">
        <ele>46.4</ele>
        <time>2010-11-16T14:23:19Z</time>
      </trkpt>
      <trkpt lat="59.2964688678" lon="18.1536860713">
        <ele>46.6</ele>
        <time>2010-11-16T14:23:21Z</time>
      </trkpt>
      <trkpt lat="59.2965035689" lon="18.1536346064">
        <ele>46.8</ele>
        <time>2010-11-16T14:23:22Z</time>
      </trkpt>
      <trkpt lat="59.2966049061" lon="18.1534922817">
        <ele>47.4</ele>
        <time>2010-11-16T14:23:25Z</time>
      </trkpt>
      <trkpt lat="59.296638266" lon="18.1534492826">
        <ele>47.6</ele>
        <time>2010-11-16T14:23:26Z</time>
      </trkpt>
      <trkpt lat="59.296704986" lon="18.1533702413">
        <ele>47.8</ele>
        <time>2010-11-16T14:23:28Z</time>
      </trkpt>
      <trkpt lat="59.2967406929" lon="18.1533339476">
        <ele>48</ele>
        <time>2010-11-16T14:23:29Z</time>
      </trkpt>
      <trkpt lat="59.2968292057" lon="18.1532386454">
        <ele>48.2</ele>
        <time>2010-11-16T14:23:32Z</time>
      </trkpt>
      <trkpt lat="59.2968922376" lon="18.1531643818">
        <ele>48.4</ele>
        <time>2010-11-16T14:23:35Z</time>
      </trkpt>
      <trkpt lat="59.296941607" lon="18.1530603624">
        <ele>49</ele>
        <time>2010-11-16T14:23:38Z</time>
      </trkpt>
      <trkpt lat="59.2969949159" lon="18.1529840871">
        <ele>49.4</ele>
        <time>2010-11-16T14:23:40Z</time>
      </trkpt>
      <trkpt lat="59.297049063" lon="18.152883672">
        <ele>49.8</ele>
        <time>2010-11-16T14:23:42Z</time>
      </trkpt>
      <trkpt lat="59.2970924812" lon="18.1527869449">
        <ele>50</ele>
        <time>2010-11-16T14:23:44Z</time>
      </trkpt>
      <trkpt lat="59.2971149447" lon="18.1527392518">
        <ele>50</ele>
        <time>2010-11-16T14:23:45Z</time>
      </trkpt>
      <trkpt lat="59.2971872805" lon="18.1526402616">
        <ele>50.4</ele>
        <time>2010-11-16T14:23:48Z</time>
      </trkpt>
      <trkpt lat="59.2972315369" lon="18.1525580352">
        <ele>50.4</ele>
        <time>2010-11-16T14:23:50Z</time>
      </trkpt>
      <trkpt lat="59.2972865222" lon="18.1525189755">
        <ele>50.6</ele>
        <time>2010-11-16T14:23:52Z</time>
      </trkpt>
      <trkpt lat="59.2973557567" lon="18.152487711">
        <ele>50.6</ele>
        <time>2010-11-16T14:23:54Z</time>
      </trkpt>
      <trkpt lat="59.2974559204" lon="18.1524209911">
        <ele>50.6</ele>
        <time>2010-11-16T14:23:56Z</time>
      </trkpt>
      <trkpt lat="59.2975330339" lon="18.1523610605">
        <ele>51.2</ele>
        <time>2010-11-16T14:23:58Z</time>
      </trkpt>
      <trkpt lat="59.2976394002" lon="18.1523236772">
        <ele>51.4</ele>
        <time>2010-11-16T14:24:00Z</time>
      </trkpt>
      <trkpt lat="59.2977468561" lon="18.1522800075">
        <ele>51.8</ele>
        <time>2010-11-16T14:24:02Z</time>
      </trkpt>
      <trkpt lat="59.2977968961" lon="18.1522491621">
        <ele>51.8</ele>
        <time>2010-11-16T14:24:03Z</time>
      </trkpt>
      <trkpt lat="59.2978899352" lon="18.1521692826">
        <ele>52</ele>
        <time>2010-11-16T14:24:05Z</time>
      </trkpt>
      <trkpt lat="59.2979411486" lon="18.1521200809">
        <ele>52.2</ele>
        <time>2010-11-16T14:24:06Z</time>
      </trkpt>
      <trkpt lat="59.2980818807" lon="18.1519779239">
        <ele>52.4</ele>
        <time>2010-11-16T14:24:09Z</time>
      </trkpt>
      <trkpt lat="59.2981448287" lon="18.1519122936">
        <ele>52.4</ele>
        <time>2010-11-16T14:24:10Z</time>
      </trkpt>
      <trkpt lat="59.2982231157" lon="18.1515182605">
        <ele>52.6</ele>
        <time>2010-11-16T14:24:13Z</time>
      </trkpt>
      <trkpt lat="59.2982108781" lon="18.1514185997">
        <ele>52.6</ele>
        <time>2010-11-16T14:24:14Z</time>
      </trkpt>
      <trkpt lat="59.2981624307" lon="18.151145685">
        <ele>52.6</ele>
        <time>2010-11-16T14:24:17Z</time>
      </trkpt>
      <trkpt lat="59.2981330103" lon="18.1508669868">
        <ele>52.8</ele>
        <time>2010-11-16T14:24:20Z</time>
      </trkpt>
      <trkpt lat="59.2981449126" lon="18.1507783063">
        <ele>52.8</ele>
        <time>2010-11-16T14:24:21Z</time>
      </trkpt>
      <trkpt lat="59.2982480099" lon="18.1503595466">
        <ele>52.8</ele>
        <time>2010-11-16T14:24:26Z</time>
      </trkpt>
      <trkpt lat="59.29827391" lon="18.1502207424">
        <ele>52.8</ele>
        <time>2010-11-16T14:24:28Z</time>
      </trkpt>
      <trkpt lat="59.2982470041" lon="18.1501144599">
        <ele>52.8</ele>
        <time>2010-11-16T14:24:30Z</time>
      </trkpt>
      <trkpt lat="59.2981930247" lon="18.1500669345">
        <ele>53</ele>
        <time>2010-11-16T14:24:32Z</time>
      </trkpt>
      <trkpt lat="59.2981538812" lon="18.1500577144">
        <ele>53</ele>
        <time>2010-11-16T14:24:34Z</time>
      </trkpt>
      <trkpt lat="59.2981293222" lon="18.1500342451">
        <ele>53</ele>
        <time>2010-11-16T14:24:35Z</time>
      </trkpt>
      <trkpt lat="59.2980929448" lon="18.1499984544">
        <ele>53</ele>
        <time>2010-11-16T14:24:38Z</time>
      </trkpt>
      <trkpt lat="59.2980707328" lon="18.1499961912">
        <ele>53</ele>
        <time>2010-11-16T14:24:40Z</time>
      </trkpt>
      <trkpt lat="59.2980040966" lon="18.1499804333">
        <ele>53</ele>
        <time>2010-11-16T14:24:43Z</time>
      </trkpt>
      <trkpt lat="59.2979624386" lon="18.1497831234">
        <ele>53</ele>
        <time>2010-11-16T14:24:46Z</time>
      </trkpt>
      <trkpt lat="59.2979309227" lon="18.1495652778">
        <ele>53</ele>
        <time>2010-11-16T14:24:48Z</time>
      </trkpt>
      <trkpt lat="59.2978325192" lon="18.1492915249">
        <ele>52.6</ele>
        <time>2010-11-16T14:24:50Z</time>
      </trkpt>
      <trkpt lat="59.297691368" lon="18.1491323526">
        <ele>52.2</ele>
        <time>2010-11-16T14:24:52Z</time>
      </trkpt>
      <trkpt lat="59.2976181102" lon="18.1490836538">
        <ele>52.2</ele>
        <time>2010-11-16T14:24:53Z</time>
      </trkpt>
      <trkpt lat="59.2974977461" lon="18.148993716">
        <ele>51.8</ele>
        <time>2010-11-16T14:24:56Z</time>
      </trkpt>
      <trkpt lat="59.2974303556" lon="18.1488668979">
        <ele>51.8</ele>
        <time>2010-11-16T14:24:57Z</time>
      </trkpt>
      <trkpt lat="59.2974092332" lon="18.148794143">
        <ele>51.6</ele>
        <time>2010-11-16T14:24:58Z</time>
      </trkpt>
      <trkpt lat="59.2973508114" lon="18.1485576058">
        <ele>51.4</ele>
        <time>2010-11-16T14:25:00Z</time>
      </trkpt>
      <trkpt lat="59.2973039565" lon="18.1484044684">
        <ele>51.4</ele>
        <time>2010-11-16T14:25:01Z</time>
      </trkpt>
      <trkpt lat="59.2971886216" lon="18.1482215754">
        <ele>51.2</ele>
        <time>2010-11-16T14:25:03Z</time>
      </trkpt>
      <trkpt lat="59.2970746278" lon="18.1480843637">
        <ele>50.6</ele>
        <time>2010-11-16T14:25:06Z</time>
      </trkpt>
      <trkpt lat="59.2970110091" lon="18.1480098486">
        <ele>50.6</ele>
        <time>2010-11-16T14:25:07Z</time>
      </trkpt>
      <trkpt lat="59.2968395155" lon="18.1477177394">
        <ele>50</ele>
        <time>2010-11-16T14:25:09Z</time>
      </trkpt>
      <trkpt lat="59.2967649166" lon="18.1476314896">
        <ele>50</ele>
        <time>2010-11-16T14:25:10Z</time>
      </trkpt>
      <trkpt lat="59.2965907407" lon="18.1474434836">
        <ele>49.8</ele>
        <time>2010-11-16T14:25:12Z</time>
      </trkpt>
      <trkpt lat="59.2964127091" lon="18.1473151567">
        <ele>49.6</ele>
        <time>2010-11-16T14:25:14Z</time>
      </trkpt>
      <trkpt lat="59.296230319" lon="18.1471965528">
        <ele>49.4</ele>
        <time>2010-11-16T14:25:16Z</time>
      </trkpt>
      <trkpt lat="59.2959615953" lon="18.146974181">
        <ele>48.8</ele>
        <time>2010-11-16T14:25:19Z</time>
      </trkpt>
      <trkpt lat="59.2958523791" lon="18.1469449282">
        <ele>48.6</ele>
        <time>2010-11-16T14:25:20Z</time>
      </trkpt>
      <trkpt lat="59.2956839867" lon="18.1469818086">
        <ele>48.4</ele>
        <time>2010-11-16T14:25:22Z</time>
      </trkpt>
      <trkpt lat="59.2955311847" lon="18.1469973151">
        <ele>48</ele>
        <time>2010-11-16T14:25:24Z</time>
      </trkpt>
      <trkpt lat="59.2953753652" lon="18.1469452635">
        <ele>47.8</ele>
        <time>2010-11-16T14:25:26Z</time>
      </trkpt>
      <trkpt lat="59.2952723516" lon="18.1469238896">
        <ele>47.6</ele>
        <time>2010-11-16T14:25:28Z</time>
      </trkpt>
      <trkpt lat="59.2951902928" lon="18.1469236382">
        <ele>47.4</ele>
        <time>2010-11-16T14:25:30Z</time>
      </trkpt>
      <trkpt lat="59.2951161968" lon="18.1469072096">
        <ele>47.4</ele>
        <time>2010-11-16T14:25:32Z</time>
      </trkpt>
      <trkpt lat="59.2950754608" lon="18.1469036054">
        <ele>47.2</ele>
        <time>2010-11-16T14:25:33Z</time>
      </trkpt>
      <trkpt lat="59.2949907198" lon="18.1469069582">
        <ele>47.2</ele>
        <time>2010-11-16T14:25:35Z</time>
      </trkpt>
      <trkpt lat="59.2949116785" lon="18.1469182737">
        <ele>47.2</ele>
        <time>2010-11-16T14:25:37Z</time>
      </trkpt>
      <trkpt lat="59.2948669191" lon="18.1469299246">
        <ele>47</ele>
        <time>2010-11-16T14:25:38Z</time>
      </trkpt>
      <trkpt lat="59.2947180566" lon="18.1469183576">
        <ele>47</ele>
        <time>2010-11-16T14:25:41Z</time>
      </trkpt>
      <trkpt lat="59.2946065773" lon="18.1468862549">
        <ele>47</ele>
        <time>2010-11-16T14:25:43Z</time>
      </trkpt>
      <trkpt lat="59.2945619856" lon="18.1468480334">
        <ele>47</ele>
        <time>2010-11-16T14:25:44Z</time>
      </trkpt>
      <trkpt lat="59.2944888116" lon="18.1466992547">
        <ele>47</ele>
        <time>2010-11-16T14:25:46Z</time>
      </trkpt>
      <trkpt lat="59.2943814395" lon="18.1466548306">
        <ele>46.8</ele>
        <time>2010-11-16T14:25:48Z</time>
      </trkpt>
      <trkpt lat="59.2942887357" lon="18.146694477">
        <ele>46.8</ele>
        <time>2010-11-16T14:25:50Z</time>
      </trkpt>
      <trkpt lat="59.2942111193" lon="18.1467461933">
        <ele>46.8</ele>
        <time>2010-11-16T14:25:52Z</time>
      </trkpt>
      <trkpt lat="59.2941513563" lon="18.1467489594">
        <ele>46.8</ele>
        <time>2010-11-16T14:25:53Z</time>
      </trkpt>
      <trkpt lat="59.2940276395" lon="18.1467696627">
        <ele>46.8</ele>
        <time>2010-11-16T14:25:55Z</time>
      </trkpt>
      <trkpt lat="59.2938998155" lon="18.1467330338">
        <ele>46.8</ele>
        <time>2010-11-16T14:25:57Z</time>
      </trkpt>
      <trkpt lat="59.2938561458" lon="18.1467115761">
        <ele>46.8</ele>
        <time>2010-11-16T14:25:58Z</time>
      </trkpt>
      <trkpt lat="59.2936721631" lon="18.146686598">
        <ele>46.8</ele>
        <time>2010-11-16T14:26:01Z</time>
      </trkpt>
      <trkpt lat="59.2936108914" lon="18.1467037809">
        <ele>46.8</ele>
        <time>2010-11-16T14:26:02Z</time>
      </trkpt>
      <trkpt lat="59.2935058662" lon="18.1467769549">
        <ele>46.4</ele>
        <time>2010-11-16T14:26:04Z</time>
      </trkpt>
      <trkpt lat="59.2934146711" lon="18.1468555771">
        <ele>46.2</ele>
        <time>2010-11-16T14:26:06Z</time>
      </trkpt>
      <trkpt lat="59.293368403" lon="18.1467820679">
        <ele>45.8</ele>
        <time>2010-11-16T14:26:09Z</time>
      </trkpt>
      <trkpt lat="59.2933776231" lon="18.1467311897">
        <ele>45.6</ele>
        <time>2010-11-16T14:26:10Z</time>
      </trkpt>
      <trkpt lat="59.2933961471" lon="18.1466794734">
        <ele>45.6</ele>
        <time>2010-11-16T14:26:11Z</time>
      </trkpt>
      <trkpt lat="59.2934233883" lon="18.1465736938">
        <ele>45.4</ele>
        <time>2010-11-16T14:26:13Z</time>
      </trkpt>
      <trkpt lat="59.2934583408" lon="18.1464932276">
        <ele>45.2</ele>
        <time>2010-11-16T14:26:15Z</time>
      </trkpt>
      <trkpt lat="59.2935067044" lon="18.1463999371">
        <ele>45.2</ele>
        <time>2010-11-16T14:26:17Z</time>
      </trkpt>
      <trkpt lat="59.2935543974" lon="18.1463044672">
        <ele>45</ele>
        <time>2010-11-16T14:26:19Z</time>
      </trkpt>
      <trkpt lat="59.2936183513" lon="18.1461738772">
        <ele>45</ele>
        <time>2010-11-16T14:26:21Z</time>
      </trkpt>
      <trkpt lat="59.2937072833" lon="18.1460894715">
        <ele>45</ele>
        <time>2010-11-16T14:26:23Z</time>
      </trkpt>
      <trkpt lat="59.293753719" lon="18.1460276131">
        <ele>45</ele>
        <time>2010-11-16T14:26:24Z</time>
      </trkpt>
      <trkpt lat="59.293902833" lon="18.1454119625">
        <ele>44</ele>
        <time>2010-11-16T14:26:29Z</time>
      </trkpt>
      <trkpt lat="59.2940772603" lon="18.1452086176">
        <ele>43.6</ele>
        <time>2010-11-16T14:26:32Z</time>
      </trkpt>
      <trkpt lat="59.2941858059" lon="18.1451155785">
        <ele>43</ele>
        <time>2010-11-16T14:26:34Z</time>
      </trkpt>
      <trkpt lat="59.2943365125" lon="18.1450108886">
        <ele>42.6</ele>
        <time>2010-11-16T14:26:36Z</time>
      </trkpt>
      <trkpt lat="59.2943842893" lon="18.1449674703">
        <ele>42.4</ele>
        <time>2010-11-16T14:26:37Z</time>
      </trkpt>
      <trkpt lat="59.2943977842" lon="18.144776363">
        <ele>41.8</ele>
        <time>2010-11-16T14:26:40Z</time>
      </trkpt>
      <trkpt lat="59.2944252768" lon="18.1446659734">
        <ele>41.4</ele>
        <time>2010-11-16T14:26:42Z</time>
      </trkpt>
      <trkpt lat="59.2944586368" lon="18.1446199568">
        <ele>41.2</ele>
        <time>2010-11-16T14:26:43Z</time>
      </trkpt>
      <trkpt lat="59.2945329842" lon="18.1445259957">
        <ele>40.6</ele>
        <time>2010-11-16T14:26:45Z</time>
      </trkpt>
      <trkpt lat="59.2946196531" lon="18.1443832519">
        <ele>40</ele>
        <time>2010-11-16T14:26:48Z</time>
      </trkpt>
      <trkpt lat="59.2946395182" lon="18.1442768018">
        <ele>39.6</ele>
        <time>2010-11-16T14:26:50Z</time>
      </trkpt>
      <trkpt lat="59.2946132828" lon="18.1442052204">
        <ele>39.4</ele>
        <time>2010-11-16T14:26:52Z</time>
      </trkpt>
      <trkpt lat="59.2945579623" lon="18.1441483911">
        <ele>38.6</ele>
        <time>2010-11-16T14:26:55Z</time>
      </trkpt>
      <trkpt lat="59.2945274522" lon="18.1441214852">
        <ele>38.4</ele>
        <time>2010-11-16T14:26:56Z</time>
      </trkpt>
      <trkpt lat="59.294471964" lon="18.1440460481">
        <ele>38</ele>
        <time>2010-11-16T14:26:58Z</time>
      </trkpt>
      <trkpt lat="59.2943961916" lon="18.1439810884">
        <ele>37.6</ele>
        <time>2010-11-16T14:27:00Z</time>
      </trkpt>
      <trkpt lat="59.2942950221" lon="18.143950243">
        <ele>37.4</ele>
        <time>2010-11-16T14:27:02Z</time>
      </trkpt>
      <trkpt lat="59.2941986302" lon="18.1439018794">
        <ele>37.2</ele>
        <time>2010-11-16T14:27:04Z</time>
      </trkpt>
      <trkpt lat="59.294145489" lon="18.1438746382">
        <ele>37</ele>
        <time>2010-11-16T14:27:05Z</time>
      </trkpt>
      <trkpt lat="59.2940368596" lon="18.1437403602">
        <ele>36.8</ele>
        <time>2010-11-16T14:27:08Z</time>
      </trkpt>
      <trkpt lat="59.2939957044" lon="18.1436604807">
        <ele>36.8</ele>
        <time>2010-11-16T14:27:10Z</time>
      </trkpt>
      <trkpt lat="59.2939791083" lon="18.1436247738">
        <ele>36.6</ele>
        <time>2010-11-16T14:27:12Z</time>
      </trkpt>
      <trkpt lat="59.2939373664" lon="18.1435090197">
        <ele>36.6</ele>
        <time>2010-11-16T14:27:14Z</time>
      </trkpt>
      <trkpt lat="59.2938945349" lon="18.1433858058">
        <ele>36.4</ele>
        <time>2010-11-16T14:27:18Z</time>
      </trkpt>
      <trkpt lat="59.2938272282" lon="18.1432522821">
        <ele>36.4</ele>
        <time>2010-11-16T14:27:21Z</time>
      </trkpt>
      <trkpt lat="59.2937730812" lon="18.1431280624">
        <ele>36.4</ele>
        <time>2010-11-16T14:27:24Z</time>
      </trkpt>
      <trkpt lat="59.2937377095" lon="18.1430411421">
        <ele>36.4</ele>
        <time>2010-11-16T14:27:28Z</time>
      </trkpt>
      <trkpt lat="59.2936959677" lon="18.1429311716">
        <ele>36.2</ele>
        <time>2010-11-16T14:27:33Z</time>
      </trkpt>
      <trkpt lat="59.2936848198" lon="18.1429004938">
        <ele>36.2</ele>
        <time>2010-11-16T14:27:34Z</time>
      </trkpt>
      <trkpt lat="59.2936558184" lon="18.1428395574">
        <ele>36.2</ele>
        <time>2010-11-16T14:27:36Z</time>
      </trkpt>
      <trkpt lat="59.2936269008" lon="18.1427481947">
        <ele>36.2</ele>
        <time>2010-11-16T14:27:39Z</time>
      </trkpt>
      <trkpt lat="59.2936112267" lon="18.1426476119">
        <ele>36.2</ele>
        <time>2010-11-16T14:27:42Z</time>
      </trkpt>
      <trkpt lat="59.2935849075" lon="18.1426576702">
        <ele>36.2</ele>
        <time>2010-11-16T14:27:44Z</time>
      </trkpt>
      <trkpt lat="59.29363654" lon="18.1427595102">
        <ele>36.2</ele>
        <time>2010-11-16T14:27:47Z</time>
      </trkpt>
      <trkpt lat="59.2936964706" lon="18.1428016712">
        <ele>36.2</ele>
        <time>2010-11-16T14:27:49Z</time>
      </trkpt>
      <trkpt lat="59.2937448342" lon="18.1427609352">
        <ele>36.2</ele>
        <time>2010-11-16T14:27:51Z</time>
      </trkpt>
      <trkpt lat="59.2937926948" lon="18.1427389746">
        <ele>36.4</ele>
        <time>2010-11-16T14:27:54Z</time>
      </trkpt>
      <trkpt lat="59.293812979" lon="18.1427412377">
        <ele>36.8</ele>
        <time>2010-11-16T14:27:56Z</time>
      </trkpt>
      <trkpt lat="59.2938586604" lon="18.1427711611">
        <ele>37.2</ele>
        <time>2010-11-16T14:27:59Z</time>
      </trkpt>
      <trkpt lat="59.2939179204" lon="18.1427312632">
        <ele>37.6</ele>
        <time>2010-11-16T14:28:03Z</time>
      </trkpt>
      <trkpt lat="59.2939625959" lon="18.1426861686">
        <ele>37.8</ele>
        <time>2010-11-16T14:28:06Z</time>
      </trkpt>
      <trkpt lat="59.2940066009" lon="18.1427194448">
        <ele>38</ele>
        <time>2010-11-16T14:28:09Z</time>
      </trkpt>
      <trkpt lat="59.2940517793" lon="18.1427761064">
        <ele>38</ele>
        <time>2010-11-16T14:28:12Z</time>
      </trkpt>
      <trkpt lat="59.2941021546" lon="18.1427900204">
        <ele>38.6</ele>
        <time>2010-11-16T14:28:15Z</time>
      </trkpt>
      <trkpt lat="59.2941149789" lon="18.1427913615">
        <ele>38.8</ele>
        <time>2010-11-16T14:28:16Z</time>
      </trkpt>
      <trkpt lat="59.2941687068" lon="18.1427994919">
        <ele>39.4</ele>
        <time>2010-11-16T14:28:21Z</time>
      </trkpt>
      <trkpt lat="59.2941920923" lon="18.1427972288">
        <ele>39.6</ele>
        <time>2010-11-16T14:28:22Z</time>
      </trkpt>
      <trkpt lat="59.2942590637" lon="18.1428103884">
        <ele>39.8</ele>
        <time>2010-11-16T14:28:26Z</time>
      </trkpt>
      <trkpt lat="59.294298291" lon="18.1428282418">
        <ele>40</ele>
        <time>2010-11-16T14:28:29Z</time>
      </trkpt>
      <trkpt lat="59.2943424636" lon="18.1428566565">
        <ele>40.6</ele>
        <time>2010-11-16T14:28:32Z</time>
      </trkpt>
      <trkpt lat="59.2943813556" lon="18.1428616018">
        <ele>41.2</ele>
        <time>2010-11-16T14:28:35Z</time>
      </trkpt>
      <trkpt lat="59.2943903243" lon="18.1428604283">
        <ele>41.2</ele>
        <time>2010-11-16T14:28:36Z</time>
      </trkpt>
      <trkpt lat="59.2944155538" lon="18.1428188541">
        <ele>41.8</ele>
        <time>2010-11-16T14:28:41Z</time>
      </trkpt>
      <trkpt lat="59.2944417053" lon="18.1428702351">
        <ele>42.6</ele>
        <time>2010-11-16T14:28:46Z</time>
      </trkpt>
      <trkpt lat="59.2944683598" lon="18.1428823889">
        <ele>43.2</ele>
        <time>2010-11-16T14:28:50Z</time>
      </trkpt>
      <trkpt lat="59.2945106045" lon="18.1429330994">
        <ele>44.2</ele>
        <time>2010-11-16T14:28:56Z</time>
      </trkpt>
      <trkpt lat="59.2945415338" lon="18.1429091272">
        <ele>44.8</ele>
        <time>2010-11-16T14:28:59Z</time>
      </trkpt>
      <trkpt lat="59.2945482393" lon="18.1428993203">
        <ele>45</ele>
        <time>2010-11-16T14:29:00Z</time>
      </trkpt>
      <trkpt lat="59.2946013805" lon="18.1428743423">
        <ele>45.6</ele>
        <time>2010-11-16T14:29:05Z</time>
      </trkpt>
      <trkpt lat="59.2946381771" lon="18.1428685588">
        <ele>46.6</ele>
        <time>2010-11-16T14:29:09Z</time>
      </trkpt>
      <trkpt lat="59.2946749736" lon="18.1428917766">
        <ele>47</ele>
        <time>2010-11-16T14:29:12Z</time>
      </trkpt>
      <trkpt lat="59.2947226666" lon="18.1429210295">
        <ele>47.6</ele>
        <time>2010-11-16T14:29:15Z</time>
      </trkpt>
      <trkpt lat="59.2947765622" lon="18.1429307525">
        <ele>48.2</ele>
        <time>2010-11-16T14:29:18Z</time>
      </trkpt>
      <trkpt lat="59.2948405999" lon="18.142929579">
        <ele>48.8</ele>
        <time>2010-11-16T14:29:21Z</time>
      </trkpt>
      <trkpt lat="59.2949647359" lon="18.14297174">
        <ele>49.8</ele>
        <time>2010-11-16T14:29:27Z</time>
      </trkpt>
      <trkpt lat="59.2950255885" lon="18.142991186">
        <ele>50</ele>
        <time>2010-11-16T14:29:30Z</time>
      </trkpt>
      <trkpt lat="59.2950385804" lon="18.142988839">
        <ele>50</ele>
        <time>2010-11-16T14:29:31Z</time>
      </trkpt>
      <trkpt lat="59.2950920569" lon="18.1430025853">
        <ele>51.6</ele>
        <time>2010-11-16T14:29:39Z</time>
      </trkpt>
      <trkpt lat="59.295130027" lon="18.1430132304">
        <ele>52</ele>
        <time>2010-11-16T14:29:45Z</time>
      </trkpt>
      <trkpt lat="59.2951890355" lon="18.1430294074">
        <ele>53.8</ele>
        <time>2010-11-16T14:29:54Z</time>
      </trkpt>
      <trkpt lat="59.2952135945" lon="18.1430469256">
        <ele>53.8</ele>
        <time>2010-11-16T14:29:56Z</time>
      </trkpt>
      <trkpt lat="59.295280063" lon="18.1431001507">
        <ele>54</ele>
        <time>2010-11-16T14:29:57Z</time>
      </trkpt>
      <trkpt lat="59.2953274207" lon="18.1431263022">
        <ele>54.2</ele>
        <time>2010-11-16T14:29:59Z</time>
      </trkpt>
      <trkpt lat="59.2953846691" lon="18.1431414734">
        <ele>54.2</ele>
        <time>2010-11-16T14:30:02Z</time>
      </trkpt>
      <trkpt lat="59.2954428395" lon="18.143150023">
        <ele>54.4</ele>
        <time>2010-11-16T14:30:05Z</time>
      </trkpt>
      <trkpt lat="59.2954899457" lon="18.1431630987">
        <ele>54.4</ele>
        <time>2010-11-16T14:30:07Z</time>
      </trkpt>
      <trkpt lat="59.2955554084" lon="18.1432112947">
        <ele>54.6</ele>
        <time>2010-11-16T14:30:16Z</time>
      </trkpt>
      <trkpt lat="59.2956424125" lon="18.1432456604">
        <ele>56</ele>
        <time>2010-11-16T14:30:28Z</time>
      </trkpt>
      <trkpt lat="59.2957097192" lon="18.1432864803">
        <ele>56.2</ele>
        <time>2010-11-16T14:30:31Z</time>
      </trkpt>
      <trkpt lat="59.2957303386" lon="18.1432919285">
        <ele>56.2</ele>
        <time>2010-11-16T14:30:32Z</time>
      </trkpt>
      <trkpt lat="59.295796388" lon="18.1433520268">
        <ele>56.4</ele>
        <time>2010-11-16T14:30:36Z</time>
      </trkpt>
      <trkpt lat="59.2958534687" lon="18.1434713012">
        <ele>56.4</ele>
        <time>2010-11-16T14:30:37Z</time>
      </trkpt>
      <trkpt lat="59.2959207754" lon="18.143576494">
        <ele>56.6</ele>
        <time>2010-11-16T14:30:39Z</time>
      </trkpt>
      <trkpt lat="59.2960123058" lon="18.1436586367">
        <ele>56.8</ele>
        <time>2010-11-16T14:30:41Z</time>
      </trkpt>
      <trkpt lat="59.2961003157" lon="18.143757124">
        <ele>57.2</ele>
        <time>2010-11-16T14:30:43Z</time>
      </trkpt>
      <trkpt lat="59.2961504395" lon="18.1438007937">
        <ele>57.4</ele>
        <time>2010-11-16T14:30:44Z</time>
      </trkpt>
      <trkpt lat="59.2962837117" lon="18.143826107">
        <ele>57.8</ele>
        <time>2010-11-16T14:30:47Z</time>
      </trkpt>
      <trkpt lat="59.2963474979" lon="18.1438406077">
        <ele>58</ele>
        <time>2010-11-16T14:30:50Z</time>
      </trkpt>
      <trkpt lat="59.2964117871" lon="18.1438302142">
        <ele>58.2</ele>
        <time>2010-11-16T14:30:52Z</time>
      </trkpt>
      <trkpt lat="59.2964728912" lon="18.1437933338">
        <ele>58.4</ele>
        <time>2010-11-16T14:30:54Z</time>
      </trkpt>
      <trkpt lat="59.2964986236" lon="18.1437684395">
        <ele>58.4</ele>
        <time>2010-11-16T14:30:55Z</time>
      </trkpt>
      <trkpt lat="59.2965308101" lon="18.1437479877">
        <ele>58.4</ele>
        <time>2010-11-16T14:30:57Z</time>
      </trkpt>
      <trkpt lat="59.2965867174" lon="18.1437214171">
        <ele>58.6</ele>
        <time>2010-11-16T14:31:01Z</time>
      </trkpt>
      <trkpt lat="59.296651258" lon="18.1437023902">
        <ele>58.6</ele>
        <time>2010-11-16T14:31:04Z</time>
      </trkpt>
      <trkpt lat="59.2966719613" lon="18.143671461">
        <ele>58.6</ele>
        <time>2010-11-16T14:31:06Z</time>
      </trkpt>
      <trkpt lat="59.2966794212" lon="18.1436660127">
        <ele>58.8</ele>
        <time>2010-11-16T14:31:10Z</time>
      </trkpt>
      <trkpt lat="59.2967047345" lon="18.1436508415">
        <ele>58.8</ele>
        <time>2010-11-16T14:31:13Z</time>
      </trkpt>
      <trkpt lat="59.2967405252" lon="18.1436528531">
        <ele>58.8</ele>
        <time>2010-11-16T14:31:17Z</time>
      </trkpt>
      <trkpt lat="59.296788805" lon="18.1436400288">
        <ele>58.8</ele>
        <time>2010-11-16T14:31:23Z</time>
      </trkpt>
      <trkpt lat="59.2968338996" lon="18.1436574632">
        <ele>58.8</ele>
        <time>2010-11-16T14:31:27Z</time>
      </trkpt>
      <trkpt lat="59.2968506634" lon="18.1436720477">
        <ele>58.8</ele>
        <time>2010-11-16T14:31:28Z</time>
      </trkpt>
      <trkpt lat="59.2969074927" lon="18.1437227582">
        <ele>58.8</ele>
        <time>2010-11-16T14:31:30Z</time>
      </trkpt>
      <trkpt lat="59.2969801637" lon="18.1438395181">
        <ele>58.8</ele>
        <time>2010-11-16T14:31:32Z</time>
      </trkpt>
      <trkpt lat="59.2970375798" lon="18.1440041386">
        <ele>58.8</ele>
        <time>2010-11-16T14:31:34Z</time>
      </trkpt>
      <trkpt lat="59.2971203091" lon="18.1441297833">
        <ele>58.6</ele>
        <time>2010-11-16T14:31:36Z</time>
      </trkpt>
      <trkpt lat="59.2971439461" lon="18.1441814996">
        <ele>58.4</ele>
        <time>2010-11-16T14:31:38Z</time>
      </trkpt>
      <trkpt lat="59.2972314531" lon="18.1441939048">
        <ele>57.8</ele>
        <time>2010-11-16T14:31:42Z</time>
      </trkpt>
      <trkpt lat="59.2972510668" lon="18.1442307852">
        <ele>57.6</ele>
        <time>2010-11-16T14:31:43Z</time>
      </trkpt>
      <trkpt lat="59.2973299404" lon="18.1442709345">
        <ele>57.4</ele>
        <time>2010-11-16T14:31:47Z</time>
      </trkpt>
      <trkpt lat="59.2973781364" lon="18.1442793164">
        <ele>57.2</ele>
        <time>2010-11-16T14:31:49Z</time>
      </trkpt>
      <trkpt lat="59.2974316129" lon="18.1442890394">
        <ele>57.2</ele>
        <time>2010-11-16T14:31:52Z</time>
      </trkpt>
      <trkpt lat="59.297447287" lon="18.1442853513">
        <ele>57</ele>
        <time>2010-11-16T14:31:53Z</time>
      </trkpt>
      <trkpt lat="59.2975004283" lon="18.1442897099">
        <ele>57</ele>
        <time>2010-11-16T14:31:56Z</time>
      </trkpt>
      <trkpt lat="59.2975072176" lon="18.1443147718">
        <ele>57</ele>
        <time>2010-11-16T14:31:57Z</time>
      </trkpt>
      <trkpt lat="59.2975588501" lon="18.1443306136">
        <ele>57</ele>
        <time>2010-11-16T14:32:00Z</time>
      </trkpt>
      <trkpt lat="59.2976120752" lon="18.1443364809">
        <ele>56.8</ele>
        <time>2010-11-16T14:32:03Z</time>
      </trkpt>
      <trkpt lat="59.2976300124" lon="18.1443366486">
        <ele>56.8</ele>
        <time>2010-11-16T14:32:04Z</time>
      </trkpt>
      <trkpt lat="59.2977186091" lon="18.14439616">
        <ele>56.8</ele>
        <time>2010-11-16T14:32:08Z</time>
      </trkpt>
      <trkpt lat="59.2977859996" lon="18.1444622094">
        <ele>56.8</ele>
        <time>2010-11-16T14:32:10Z</time>
      </trkpt>
      <trkpt lat="59.2978393085" lon="18.1444828289">
        <ele>56.8</ele>
        <time>2010-11-16T14:32:12Z</time>
      </trkpt>
      <trkpt lat="59.2978910248" lon="18.1444990898">
        <ele>56.8</ele>
        <time>2010-11-16T14:32:15Z</time>
      </trkpt>
      <trkpt lat="59.2979088783" lon="18.1445161888">
        <ele>56.8</ele>
        <time>2010-11-16T14:32:16Z</time>
      </trkpt>
      <trkpt lat="59.2979481056" lon="18.1445614511">
        <ele>56.8</ele>
        <time>2010-11-16T14:32:19Z</time>
      </trkpt>
      <trkpt lat="59.2979665457" lon="18.1445868483">
        <ele>56.8</ele>
        <time>2010-11-16T14:32:20Z</time>
      </trkpt>
      <trkpt lat="59.2980199384" lon="18.1446928793">
        <ele>56.8</ele>
        <time>2010-11-16T14:32:23Z</time>
      </trkpt>
      <trkpt lat="59.2980835571" lon="18.144775441">
        <ele>56.8</ele>
        <time>2010-11-16T14:32:27Z</time>
      </trkpt>
      <trkpt lat="59.2981337646" lon="18.1448506267">
        <ele>56.8</ele>
        <time>2010-11-16T14:32:30Z</time>
      </trkpt>
      <trkpt lat="59.2981765123" lon="18.1449013372">
        <ele>56.8</ele>
        <time>2010-11-16T14:32:33Z</time>
      </trkpt>
      <trkpt lat="59.2982076092" lon="18.1449728348">
        <ele>56.8</ele>
        <time>2010-11-16T14:32:35Z</time>
      </trkpt>
      <trkpt lat="59.2982657796" lon="18.1450135708">
        <ele>56.8</ele>
        <time>2010-11-16T14:32:37Z</time>
      </trkpt>
      <trkpt lat="59.298316071" lon="18.145052379">
        <ele>56.8</ele>
        <time>2010-11-16T14:32:39Z</time>
      </trkpt>
      <trkpt lat="59.298330404" lon="18.145067215">
        <ele>56.8</ele>
        <time>2010-11-16T14:32:41Z</time>
      </trkpt>
      <trkpt lat="59.298361417" lon="18.1450937856">
        <ele>56.8</ele>
        <time>2010-11-16T14:32:44Z</time>
      </trkpt>
      <trkpt lat="59.2984300648" lon="18.145181125">
        <ele>56.8</ele>
        <time>2010-11-16T14:32:48Z</time>
      </trkpt>
      <trkpt lat="59.2985106987" lon="18.145245498">
        <ele>56.8</ele>
        <time>2010-11-16T14:32:51Z</time>
      </trkpt>
      <trkpt lat="59.2985628341" lon="18.1452872398">
        <ele>56.8</ele>
        <time>2010-11-16T14:32:54Z</time>
      </trkpt>
      <trkpt lat="59.2986194119" lon="18.1452989745">
        <ele>56.8</ele>
        <time>2010-11-16T14:32:57Z</time>
      </trkpt>
      <trkpt lat="59.2986479942" lon="18.1452992259">
        <ele>56.8</ele>
        <time>2010-11-16T14:33:00Z</time>
      </trkpt>
      <trkpt lat="59.2986629978" lon="18.1453076917">
        <ele>56.8</ele>
        <time>2010-11-16T14:33:02Z</time>
      </trkpt>
      <trkpt lat="59.2986946814" lon="18.145333927">
        <ele>56.8</ele>
        <time>2010-11-16T14:33:05Z</time>
      </trkpt>
      <trkpt lat="59.2987190727" lon="18.1453459969">
        <ele>56.8</ele>
        <time>2010-11-16T14:33:07Z</time>
      </trkpt>
      <trkpt lat="59.2987616528" lon="18.1453602462">
        <ele>56.8</ele>
        <time>2010-11-16T14:33:11Z</time>
      </trkpt>
      <trkpt lat="59.2988119442" lon="18.1453570611">
        <ele>56.8</ele>
        <time>2010-11-16T14:33:15Z</time>
      </trkpt>
      <trkpt lat="59.2988248523" lon="18.1453540436">
        <ele>56.8</ele>
        <time>2010-11-16T14:33:16Z</time>
      </trkpt>
      <trkpt lat="59.2988372575" lon="18.1453460808">
        <ele>56.8</ele>
        <time>2010-11-16T14:33:17Z</time>
      </trkpt>
      <trkpt lat="59.2988867945" lon="18.145329317">
        <ele>56.8</ele>
        <time>2010-11-16T14:33:21Z</time>
      </trkpt>
      <trkpt lat="59.298901882" lon="18.1453279759">
        <ele>56.8</ele>
        <time>2010-11-16T14:33:22Z</time>
      </trkpt>
      <trkpt lat="59.2989588789" lon="18.1453630122">
        <ele>56.8</ele>
        <time>2010-11-16T14:33:25Z</time>
      </trkpt>
      <trkpt lat="59.2990147861" lon="18.1453801113">
        <ele>56.8</ele>
        <time>2010-11-16T14:33:28Z</time>
      </trkpt>
      <trkpt lat="59.2990686818" lon="18.145401988">
        <ele>56.8</ele>
        <time>2010-11-16T14:33:31Z</time>
      </trkpt>
      <trkpt lat="59.2990849427" lon="18.1454343422">
        <ele>56.8</ele>
        <time>2010-11-16T14:33:35Z</time>
      </trkpt>
      <trkpt lat="59.2990958391" lon="18.1454334202">
        <ele>56.8</ele>
        <time>2010-11-16T14:33:37Z</time>
      </trkpt>
      <trkpt lat="59.299146382" lon="18.1454339231">
        <ele>57.6</ele>
        <time>2010-11-16T14:33:42Z</time>
      </trkpt>
      <trkpt lat="59.2991758863" lon="18.1454873996">
        <ele>58</ele>
        <time>2010-11-16T14:33:46Z</time>
      </trkpt>
      <trkpt lat="59.2991967572" lon="18.14549092">
        <ele>58.2</ele>
        <time>2010-11-16T14:33:48Z</time>
      </trkpt>
      <trkpt lat="59.2992280217" lon="18.1454853041">
        <ele>58.4</ele>
        <time>2010-11-16T14:33:51Z</time>
      </trkpt>
      <trkpt lat="59.2992756309" lon="18.1454679536">
        <ele>59.2</ele>
        <time>2010-11-16T14:33:55Z</time>
      </trkpt>
      <trkpt lat="59.2992932329" lon="18.1454698814">
        <ele>59.4</ele>
        <time>2010-11-16T14:33:57Z</time>
      </trkpt>
      <trkpt lat="59.2993299456" lon="18.1454812808">
        <ele>60.2</ele>
        <time>2010-11-16T14:34:03Z</time>
      </trkpt>
      <trkpt lat="59.2993708493" lon="18.1454864776">
        <ele>60.6</ele>
        <time>2010-11-16T14:34:09Z</time>
      </trkpt>
      <trkpt lat="59.2994079811" lon="18.1454501001">
        <ele>60.8</ele>
        <time>2010-11-16T14:34:15Z</time>
      </trkpt>
      <trkpt lat="59.2994179555" lon="18.1454326658">
        <ele>61.6</ele>
        <time>2010-11-16T14:34:21Z</time>
      </trkpt>
      <trkpt lat="59.2994445262" lon="18.1453968751">
        <ele>62.2</ele>
        <time>2010-11-16T14:34:25Z</time>
      </trkpt>
      <trkpt lat="59.2994949852" lon="18.1453407164">
        <ele>62.6</ele>
        <time>2010-11-16T14:34:30Z</time>
      </trkpt>
      <trkpt lat="59.299506636" lon="18.1453143134">
        <ele>62.6</ele>
        <time>2010-11-16T14:34:31Z</time>
      </trkpt>
      <trkpt lat="59.2995144312" lon="18.1452603339">
        <ele>62.6</ele>
        <time>2010-11-16T14:34:33Z</time>
      </trkpt>
      <trkpt lat="59.2995270041" lon="18.1451714858">
        <ele>62.8</ele>
        <time>2010-11-16T14:34:38Z</time>
      </trkpt>
      <trkpt lat="59.2995270041" lon="18.1451558955">
        <ele>62.8</ele>
        <time>2010-11-16T14:34:39Z</time>
      </trkpt>
      <trkpt lat="59.2995314465" lon="18.1451373715">
        <ele>62.8</ele>
        <time>2010-11-16T14:34:40Z</time>
      </trkpt>
      <trkpt lat="59.2995423429" lon="18.1450520437">
        <ele>63</ele>
        <time>2010-11-16T14:34:43Z</time>
      </trkpt>
      <trkpt lat="59.2995368947" lon="18.1450240482">
        <ele>63</ele>
        <time>2010-11-16T14:34:44Z</time>
      </trkpt>
      <trkpt lat="59.2995510601" lon="18.1449666322">
        <ele>63</ele>
        <time>2010-11-16T14:34:58Z</time>
      </trkpt>
      <trkpt lat="59.2995824084" lon="18.1448308454">
        <ele>63</ele>
        <time>2010-11-16T14:35:01Z</time>
      </trkpt>
      <trkpt lat="59.2996064645" lon="18.1447029376">
        <ele>63</ele>
        <time>2010-11-16T14:35:03Z</time>
      </trkpt>
      <trkpt lat="59.299616858" lon="18.1445705874">
        <ele>63</ele>
        <time>2010-11-16T14:35:05Z</time>
      </trkpt>
      <trkpt lat="59.2996270839" lon="18.144428598">
        <ele>63</ele>
        <time>2010-11-16T14:35:07Z</time>
      </trkpt>
      <trkpt lat="59.2996161037" lon="18.1443042106">
        <ele>63</ele>
        <time>2010-11-16T14:35:09Z</time>
      </trkpt>
      <trkpt lat="59.299621971" lon="18.144174375">
        <ele>63</ele>
        <time>2010-11-16T14:35:11Z</time>
      </trkpt>
      <trkpt lat="59.2996253237" lon="18.1440625604">
        <ele>63</ele>
        <time>2010-11-16T14:35:13Z</time>
      </trkpt>
      <trkpt lat="59.2996327836" lon="18.1439462196">
        <ele>63</ele>
        <time>2010-11-16T14:35:15Z</time>
      </trkpt>
      <trkpt lat="59.299644183" lon="18.1438098461">
        <ele>63</ele>
        <time>2010-11-16T14:35:17Z</time>
      </trkpt>
      <trkpt lat="59.2996337895" lon="18.1437556152">
        <ele>63</ele>
        <time>2010-11-16T14:35:18Z</time>
      </trkpt>
      <trkpt lat="59.2995901198" lon="18.1436284618">
        <ele>63</ele>
        <time>2010-11-16T14:35:21Z</time>
      </trkpt>
      <trkpt lat="59.2996018544" lon="18.1435261188">
        <ele>63</ele>
        <time>2010-11-16T14:35:23Z</time>
      </trkpt>
      <trkpt lat="59.2996303529" lon="18.1434252007">
        <ele>63</ele>
        <time>2010-11-16T14:35:25Z</time>
      </trkpt>
      <trkpt lat="59.2996073027" lon="18.1431553874">
        <ele>63</ele>
        <time>2010-11-16T14:35:30Z</time>
      </trkpt>
      <trkpt lat="59.2996352144" lon="18.143030078">
        <ele>63</ele>
        <time>2010-11-16T14:35:33Z</time>
      </trkpt>
      <trkpt lat="59.2996417523" lon="18.14291709">
        <ele>63</ele>
        <time>2010-11-16T14:35:35Z</time>
      </trkpt>
      <trkpt lat="59.2996704184" lon="18.1428051916">
        <ele>63</ele>
        <time>2010-11-16T14:35:37Z</time>
      </trkpt>
      <trkpt lat="59.2996860087" lon="18.1426787087">
        <ele>63</ele>
        <time>2010-11-16T14:35:39Z</time>
      </trkpt>
      <trkpt lat="59.2996946421" lon="18.1425237274">
        <ele>63</ele>
        <time>2010-11-16T14:35:41Z</time>
      </trkpt>
      <trkpt lat="59.2997110706" lon="18.1423852584">
        <ele>63</ele>
        <time>2010-11-16T14:35:43Z</time>
      </trkpt>
      <trkpt lat="59.2997636251" lon="18.1422394972">
        <ele>62.8</ele>
        <time>2010-11-16T14:35:45Z</time>
      </trkpt>
      <trkpt lat="59.2997994996" lon="18.1421022855">
        <ele>62.6</ele>
        <time>2010-11-16T14:35:47Z</time>
      </trkpt>
      <trkpt lat="59.2998291716" lon="18.1419857771">
        <ele>62.2</ele>
        <time>2010-11-16T14:35:49Z</time>
      </trkpt>
      <trkpt lat="59.2998621124" lon="18.1418793269">
        <ele>62</ele>
        <time>2010-11-16T14:35:51Z</time>
      </trkpt>
      <trkpt lat="59.2998866714" lon="18.1417774868">
        <ele>61.8</ele>
        <time>2010-11-16T14:35:53Z</time>
      </trkpt>
      <trkpt lat="59.299868315" lon="18.1416884711">
        <ele>61.6</ele>
        <time>2010-11-16T14:35:55Z</time>
      </trkpt>
      <trkpt lat="59.2998512998" lon="18.1416362518">
        <ele>61.6</ele>
        <time>2010-11-16T14:35:57Z</time>
      </trkpt>
      <trkpt lat="59.2998306803" lon="18.1414922508">
        <ele>61.4</ele>
        <time>2010-11-16T14:36:00Z</time>
      </trkpt>
      <trkpt lat="59.2998330272" lon="18.1413853816">
        <ele>61.4</ele>
        <time>2010-11-16T14:36:03Z</time>
      </trkpt>
      <trkpt lat="59.2998381402" lon="18.1412796858">
        <ele>61.2</ele>
        <time>2010-11-16T14:36:06Z</time>
      </trkpt>
      <trkpt lat="59.2998290039" lon="18.1412062604">
        <ele>61.2</ele>
        <time>2010-11-16T14:36:08Z</time>
      </trkpt>
      <trkpt lat="59.2998246453" lon="18.1411637641">
        <ele>61.2</ele>
        <time>2010-11-16T14:36:11Z</time>
      </trkpt>
      <trkpt lat="59.2998293392" lon="18.1410471719">
        <ele>61.2</ele>
        <time>2010-11-16T14:36:16Z</time>
      </trkpt>
      <trkpt lat="59.2998279981" lon="18.141003586">
        <ele>61.2</ele>
        <time>2010-11-16T14:36:18Z</time>
      </trkpt>
      <trkpt lat="59.2998500425" lon="18.1408403066">
        <ele>61</ele>
        <time>2010-11-16T14:36:46Z</time>
      </trkpt>
      <trkpt lat="59.2998619448" lon="18.1407439148">
        <ele>61</ele>
        <time>2010-11-16T14:36:49Z</time>
      </trkpt>
      <trkpt lat="59.299875272" lon="18.1406343633">
        <ele>61</ele>
        <time>2010-11-16T14:36:51Z</time>
      </trkpt>
      <trkpt lat="59.2998643755" lon="18.1404991633">
        <ele>61</ele>
        <time>2010-11-16T14:36:54Z</time>
      </trkpt>
      <trkpt lat="59.2998588435" lon="18.1403803917">
        <ele>61</ele>
        <time>2010-11-16T14:36:56Z</time>
      </trkpt>
      <trkpt lat="59.2998570833" lon="18.1402755342">
        <ele>61.2</ele>
        <time>2010-11-16T14:36:58Z</time>
      </trkpt>
      <trkpt lat="59.2998751044" lon="18.1401492189">
        <ele>61.6</ele>
        <time>2010-11-16T14:37:00Z</time>
      </trkpt>
      <trkpt lat="59.2998847436" lon="18.1400239934">
        <ele>61.8</ele>
        <time>2010-11-16T14:37:02Z</time>
      </trkpt>
      <trkpt lat="59.2998838215" lon="18.1399195549">
        <ele>62.2</ele>
        <time>2010-11-16T14:37:04Z</time>
      </trkpt>
      <trkpt lat="59.2998721707" lon="18.1397617237">
        <ele>62.4</ele>
        <time>2010-11-16T14:37:07Z</time>
      </trkpt>
      <trkpt lat="59.2998791277" lon="18.13964027">
        <ele>62.6</ele>
        <time>2010-11-16T14:37:09Z</time>
      </trkpt>
      <trkpt lat="59.2999011721" lon="18.1394783317">
        <ele>62.6</ele>
        <time>2010-11-16T14:37:11Z</time>
      </trkpt>
      <trkpt lat="59.2999427463" lon="18.1393313131">
        <ele>62.8</ele>
        <time>2010-11-16T14:37:13Z</time>
      </trkpt>
      <trkpt lat="59.2999537266" lon="18.1392824467">
        <ele>62.8</ele>
        <time>2010-11-16T14:37:14Z</time>
      </trkpt>
      <trkpt lat="59.2999410699" lon="18.1391148087">
        <ele>62.8</ele>
        <time>2010-11-16T14:37:17Z</time>
      </trkpt>
      <trkpt lat="59.2999227136" lon="18.1389920138">
        <ele>62.8</ele>
        <time>2010-11-16T14:37:19Z</time>
      </trkpt>
      <trkpt lat="59.2999135773" lon="18.1389301554">
        <ele>62.8</ele>
        <time>2010-11-16T14:37:20Z</time>
      </trkpt>
      <trkpt lat="59.2999058659" lon="18.1388067738">
        <ele>63</ele>
        <time>2010-11-16T14:37:22Z</time>
      </trkpt>
      <trkpt lat="59.2998891021" lon="18.1387213623">
        <ele>63</ele>
        <time>2010-11-16T14:37:23Z</time>
      </trkpt>
      <trkpt lat="59.2998485337" lon="18.1385528861">
        <ele>63</ele>
        <time>2010-11-16T14:37:26Z</time>
      </trkpt>
      <trkpt lat="59.2998228013" lon="18.1384150038">
        <ele>63</ele>
        <time>2010-11-16T14:37:28Z</time>
      </trkpt>
      <trkpt lat="59.29981509" lon="18.1382977411">
        <ele>62.4</ele>
        <time>2010-11-16T14:37:31Z</time>
      </trkpt>
      <trkpt lat="59.299814168" lon="18.1382634591">
        <ele>62.4</ele>
        <time>2010-11-16T14:37:32Z</time>
      </trkpt>
      <trkpt lat="59.2997798022" lon="18.1381386526">
        <ele>62</ele>
        <time>2010-11-16T14:37:36Z</time>
      </trkpt>
      <trkpt lat="59.2997673131" lon="18.1379933104">
        <ele>61.6</ele>
        <time>2010-11-16T14:37:39Z</time>
      </trkpt>
      <trkpt lat="59.2997565843" lon="18.1379482996">
        <ele>61.4</ele>
        <time>2010-11-16T14:37:42Z</time>
      </trkpt>
      <trkpt lat="59.2997463584" lon="18.1378892911">
        <ele>61.4</ele>
        <time>2010-11-16T14:37:46Z</time>
      </trkpt>
      <trkpt lat="59.2997348752" lon="18.1377903008">
        <ele>61.2</ele>
        <time>2010-11-16T14:37:51Z</time>
      </trkpt>
      <trkpt lat="59.2997243978" lon="18.137697597">
        <ele>61.2</ele>
        <time>2010-11-16T14:37:56Z</time>
      </trkpt>
      <trkpt lat="59.2997044489" lon="18.1376203997">
        <ele>61.2</ele>
        <time>2010-11-16T14:37:59Z</time>
      </trkpt>
      <trkpt lat="59.2996884395" lon="18.1375435377">
        <ele>61</ele>
        <time>2010-11-16T14:38:03Z</time>
      </trkpt>
      <trkpt lat="59.2996720947" lon="18.1374603054">
        <ele>61</ele>
        <time>2010-11-16T14:38:06Z</time>
      </trkpt>
      <trkpt lat="59.2996592704" lon="18.1373885564">
        <ele>61</ele>
        <time>2010-11-16T14:38:09Z</time>
      </trkpt>
      <trkpt lat="59.2996246532" lon="18.1372909072">
        <ele>61</ele>
        <time>2010-11-16T14:38:16Z</time>
      </trkpt>
      <trkpt lat="59.2996213843" lon="18.1372681923">
        <ele>61</ele>
        <time>2010-11-16T14:38:17Z</time>
      </trkpt>
      <trkpt lat="59.2996250723" lon="18.1371075951">
        <ele>61</ele>
        <time>2010-11-16T14:38:21Z</time>
      </trkpt>
      <trkpt lat="59.2996280898" lon="18.1370729778">
        <ele>61</ele>
        <time>2010-11-16T14:38:22Z</time>
      </trkpt>
      <trkpt lat="59.2996551633" lon="18.1367597462">
        <ele>61</ele>
        <time>2010-11-16T14:38:28Z</time>
      </trkpt>
      <trkpt lat="59.2996744417" lon="18.1366021665">
        <ele>61</ele>
        <time>2010-11-16T14:38:32Z</time>
      </trkpt>
      <trkpt lat="59.2996870145" lon="18.1364643681">
        <ele>61</ele>
        <time>2010-11-16T14:38:33Z</time>
      </trkpt>
      <trkpt lat="59.2996880204" lon="18.1362792119">
        <ele>61</ele>
        <time>2010-11-16T14:38:36Z</time>
      </trkpt>
      <trkpt lat="59.2996782135" lon="18.1361317743">
        <ele>61</ele>
        <time>2010-11-16T14:38:37Z</time>
      </trkpt>
      <trkpt lat="59.2996652216" lon="18.1360176966">
        <ele>61</ele>
        <time>2010-11-16T14:38:39Z</time>
      </trkpt>
      <trkpt lat="59.2996713404" lon="18.1358831671">
        <ele>61</ele>
        <time>2010-11-16T14:38:41Z</time>
      </trkpt>
      <trkpt lat="59.2996713404" lon="18.1356846837">
        <ele>61</ele>
        <time>2010-11-16T14:38:43Z</time>
      </trkpt>
      <trkpt lat="59.2996708375" lon="18.1355811673">
        <ele>61</ele>
        <time>2010-11-16T14:38:44Z</time>
      </trkpt>
      <trkpt lat="59.2996765372" lon="18.1353274472">
        <ele>61</ele>
        <time>2010-11-16T14:38:47Z</time>
      </trkpt>
      <trkpt lat="59.2996819854" lon="18.1352468971">
        <ele>61</ele>
        <time>2010-11-16T14:38:48Z</time>
      </trkpt>
      <trkpt lat="59.2997490406" lon="18.1350189932">
        <ele>61</ele>
        <time>2010-11-16T14:38:51Z</time>
      </trkpt>
      <trkpt lat="59.2997745216" lon="18.1349526086">
        <ele>61</ele>
        <time>2010-11-16T14:38:52Z</time>
      </trkpt>
      <trkpt lat="59.2997906986" lon="18.1347320808">
        <ele>61</ele>
        <time>2010-11-16T14:38:56Z</time>
      </trkpt>
      <trkpt lat="59.2998065404" lon="18.1345820448">
        <ele>61</ele>
        <time>2010-11-16T14:38:58Z</time>
      </trkpt>
      <trkpt lat="59.2998134136" lon="18.1345295741">
        <ele>61</ele>
        <time>2010-11-16T14:38:59Z</time>
      </trkpt>
      <trkpt lat="59.2998326081" lon="18.1344408098">
        <ele>61</ele>
        <time>2010-11-16T14:39:02Z</time>
      </trkpt>
      <trkpt lat="59.2998328596" lon="18.1342632811">
        <ele>61</ele>
        <time>2010-11-16T14:39:05Z</time>
      </trkpt>
      <trkpt lat="59.2998276628" lon="18.1341633689">
        <ele>61</ele>
        <time>2010-11-16T14:39:08Z</time>
      </trkpt>
      <trkpt lat="59.2998498748" lon="18.1340524763">
        <ele>61</ele>
        <time>2010-11-16T14:39:12Z</time>
      </trkpt>
      <trkpt lat="59.2998653814" lon="18.1338371453">
        <ele>61</ele>
        <time>2010-11-16T14:39:22Z</time>
      </trkpt>
      <trkpt lat="59.2998418282" lon="18.1335870294">
        <ele>61</ele>
        <time>2010-11-16T14:39:30Z</time>
      </trkpt>
      <trkpt lat="59.2998335301" lon="18.1334957505">
        <ele>61</ele>
        <time>2010-11-16T14:39:33Z</time>
      </trkpt>
      <trkpt lat="59.2998265732" lon="18.1334592055">
        <ele>61</ele>
        <time>2010-11-16T14:39:34Z</time>
      </trkpt>
      <trkpt lat="59.2998209573" lon="18.1333307109">
        <ele>61</ele>
        <time>2010-11-16T14:39:38Z</time>
      </trkpt>
      <trkpt lat="59.2997973203" lon="18.1332441259">
        <ele>61</ele>
        <time>2010-11-16T14:39:42Z</time>
      </trkpt>
      <trkpt lat="59.29978634" lon="18.1331898112">
        <ele>61</ele>
        <time>2010-11-16T14:39:44Z</time>
      </trkpt>
      <trkpt lat="59.2997818138" lon="18.1330971912">
        <ele>61</ele>
        <time>2010-11-16T14:39:46Z</time>
      </trkpt>
      <trkpt lat="59.2997433409" lon="18.1329619073">
        <ele>61</ele>
        <time>2010-11-16T14:39:50Z</time>
      </trkpt>
      <trkpt lat="59.29972708" lon="18.1329246917">
        <ele>61</ele>
        <time>2010-11-16T14:39:52Z</time>
      </trkpt>
      <trkpt lat="59.2997254875" lon="18.1329044075">
        <ele>61</ele>
        <time>2010-11-16T14:39:54Z</time>
      </trkpt>
      <trkpt lat="59.2996880204" lon="18.1328143859">
        <ele>61</ele>
        <time>2010-11-16T14:39:59Z</time>
      </trkpt>
      <trkpt lat="59.2996754475" lon="18.1327881505">
        <ele>61</ele>
        <time>2010-11-16T14:40:00Z</time>
      </trkpt>
      <trkpt lat="59.2996560853" lon="18.1327490071">
        <ele>61</ele>
        <time>2010-11-16T14:40:02Z</time>
      </trkpt>
      <trkpt lat="59.2995990884" lon="18.1326979613">
        <ele>61</ele>
        <time>2010-11-16T14:40:07Z</time>
      </trkpt>
      <trkpt lat="59.2995985855" lon="18.1326306546">
        <ele>61</ele>
        <time>2010-11-16T14:40:11Z</time>
      </trkpt>
      <trkpt lat="59.2996033632" lon="18.1326008151">
        <ele>61</ele>
        <time>2010-11-16T14:40:13Z</time>
      </trkpt>
      <trkpt lat="59.2996125833" lon="18.1324898387">
        <ele>61</ele>
        <time>2010-11-16T14:40:18Z</time>
      </trkpt>
      <trkpt lat="59.2995954842" lon="18.1323182612">
        <ele>61</ele>
        <time>2010-11-16T14:40:22Z</time>
      </trkpt>
      <trkpt lat="59.2995893654" lon="18.1322674669">
        <ele>61</ele>
        <time>2010-11-16T14:40:23Z</time>
      </trkpt>
      <trkpt lat="59.2995826599" lon="18.1322138228">
        <ele>61</ele>
        <time>2010-11-16T14:40:26Z</time>
      </trkpt>
      <trkpt lat="59.2995149341" lon="18.1320962247">
        <ele>61</ele>
        <time>2010-11-16T14:40:30Z</time>
      </trkpt>
      <trkpt lat="59.299495991" lon="18.1319934626">
        <ele>61</ele>
        <time>2010-11-16T14:40:33Z</time>
      </trkpt>
      <trkpt lat="59.2994993438" lon="18.1319619467">
        <ele>61</ele>
        <time>2010-11-16T14:40:34Z</time>
      </trkpt>
      <trkpt lat="59.2995410018" lon="18.1318116592">
        <ele>61</ele>
        <time>2010-11-16T14:40:37Z</time>
      </trkpt>
      <trkpt lat="59.2995619566" lon="18.1317289298">
        <ele>61</ele>
        <time>2010-11-16T14:40:38Z</time>
      </trkpt>
      <trkpt lat="59.2995839172" lon="18.1314715217">
        <ele>61</ele>
        <time>2010-11-16T14:40:41Z</time>
      </trkpt>
      <trkpt lat="59.2995736912" lon="18.1312890477">
        <ele>61</ele>
        <time>2010-11-16T14:40:43Z</time>
      </trkpt>
      <trkpt lat="59.299568243" lon="18.1311492376">
        <ele>61</ele>
        <time>2010-11-16T14:40:45Z</time>
      </trkpt>
      <trkpt lat="59.2995875214" lon="18.1309877184">
        <ele>61</ele>
        <time>2010-11-16T14:40:47Z</time>
      </trkpt>
      <trkpt lat="59.2995876052" lon="18.1308640016">
        <ele>61</ele>
        <time>2010-11-16T14:40:49Z</time>
      </trkpt>
      <trkpt lat="59.2995958195" lon="18.130749421">
        <ele>60.6</ele>
        <time>2010-11-16T14:40:51Z</time>
      </trkpt>
      <trkpt lat="59.2996248208" lon="18.1306566334">
        <ele>60.4</ele>
        <time>2010-11-16T14:40:53Z</time>
      </trkpt>
      <trkpt lat="59.2996325322" lon="18.1306138019">
        <ele>60.2</ele>
        <time>2010-11-16T14:40:54Z</time>
      </trkpt>
      <trkpt lat="59.2996661436" lon="18.1304622571">
        <ele>59.8</ele>
        <time>2010-11-16T14:40:58Z</time>
      </trkpt>
      <trkpt lat="59.2996884395" lon="18.1303812041">
        <ele>59.6</ele>
        <time>2010-11-16T14:41:01Z</time>
      </trkpt>
      <trkpt lat="59.2997004256" lon="18.1302906796">
        <ele>59.4</ele>
        <time>2010-11-16T14:41:04Z</time>
      </trkpt>
      <trkpt lat="59.2997064605" lon="18.1302551404">
        <ele>59.4</ele>
        <time>2010-11-16T14:41:06Z</time>
      </trkpt>
      <trkpt lat="59.2997326959" lon="18.1301503666">
        <ele>59.2</ele>
        <time>2010-11-16T14:41:10Z</time>
      </trkpt>
      <trkpt lat="59.2997596856" lon="18.1300474369">
        <ele>59.2</ele>
        <time>2010-11-16T14:41:13Z</time>
      </trkpt>
      <trkpt lat="59.2998079653" lon="18.1299243068">
        <ele>59</ele>
        <time>2010-11-16T14:41:16Z</time>
      </trkpt>
      <trkpt lat="59.2998264893" lon="18.1298637056">
        <ele>58.6</ele>
        <time>2010-11-16T14:41:17Z</time>
      </trkpt>
      <trkpt lat="59.2998406548" lon="18.1298445111">
        <ele>58.4</ele>
        <time>2010-11-16T14:41:18Z</time>
      </trkpt>
      <trkpt lat="59.2998709972" lon="18.1292357337">
        <ele>57.6</ele>
        <time>2010-11-16T14:41:26Z</time>
      </trkpt>
      <trkpt lat="59.2998462706" lon="18.1290732087">
        <ele>57.2</ele>
        <time>2010-11-16T14:41:28Z</time>
      </trkpt>
      <trkpt lat="59.2998462706" lon="18.1289945864">
        <ele>56.8</ele>
        <time>2010-11-16T14:41:30Z</time>
      </trkpt>
      <trkpt lat="59.2998108152" lon="18.1288359171">
        <ele>56.4</ele>
        <time>2010-11-16T14:41:32Z</time>
      </trkpt>
      <trkpt lat="59.2997649662" lon="18.1286956041">
        <ele>56.2</ele>
        <time>2010-11-16T14:41:34Z</time>
      </trkpt>
      <trkpt lat="59.2997379765" lon="18.1286184068">
        <ele>56</ele>
        <time>2010-11-16T14:41:36Z</time>
      </trkpt>
      <trkpt lat="59.2997114897" lon="18.1284641798">
        <ele>55.8</ele>
        <time>2010-11-16T14:41:38Z</time>
      </trkpt>
      <trkpt lat="59.2997165188" lon="18.1284262098">
        <ele>55.4</ele>
        <time>2010-11-16T14:41:39Z</time>
      </trkpt>
      <trkpt lat="59.2997311871" lon="18.1282795265">
        <ele>54.8</ele>
        <time>2010-11-16T14:41:42Z</time>
      </trkpt>
      <trkpt lat="59.2997481186" lon="18.1282480106">
        <ele>54.6</ele>
        <time>2010-11-16T14:41:43Z</time>
      </trkpt>
      <trkpt lat="59.2997950572" lon="18.1281969648">
        <ele>54.2</ele>
        <time>2010-11-16T14:41:45Z</time>
      </trkpt>
      <trkpt lat="59.2998270761" lon="18.1281113018">
        <ele>54</ele>
        <time>2010-11-16T14:41:47Z</time>
      </trkpt>
      <trkpt lat="59.2998245615" lon="18.1280399718">
        <ele>53.8</ele>
        <time>2010-11-16T14:41:48Z</time>
      </trkpt>
      <trkpt lat="59.2998108152" lon="18.1279238825">
        <ele>53.4</ele>
        <time>2010-11-16T14:41:51Z</time>
      </trkpt>
      <trkpt lat="59.2997959792" lon="18.1278994074">
        <ele>53.2</ele>
        <time>2010-11-16T14:41:52Z</time>
      </trkpt>
      <trkpt lat="59.2997286726" lon="18.1278062006">
        <ele>52.4</ele>
        <time>2010-11-16T14:41:54Z</time>
      </trkpt>
      <trkpt lat="59.2996874336" lon="18.127733781">
        <ele>52.2</ele>
        <time>2010-11-16T14:41:56Z</time>
      </trkpt>
      <trkpt lat="59.2996415846" lon="18.1276451843">
        <ele>51.8</ele>
        <time>2010-11-16T14:41:59Z</time>
      </trkpt>
      <trkpt lat="59.2995925505" lon="18.1275376446">
        <ele>51.4</ele>
        <time>2010-11-16T14:42:03Z</time>
      </trkpt>
      <trkpt lat="59.2995630462" lon="18.1274907897">
        <ele>50.8</ele>
        <time>2010-11-16T14:42:06Z</time>
      </trkpt>
      <trkpt lat="59.2994996791" lon="18.127426752">
        <ele>49.8</ele>
        <time>2010-11-16T14:42:12Z</time>
      </trkpt>
      <trkpt lat="59.2994419278" lon="18.1273733593">
        <ele>49.4</ele>
        <time>2010-11-16T14:42:16Z</time>
      </trkpt>
      <trkpt lat="59.2994127588" lon="18.127342933">
        <ele>49.2</ele>
        <time>2010-11-16T14:42:17Z</time>
      </trkpt>
      <trkpt lat="59.2993581926" lon="18.1271775581">
        <ele>49</ele>
        <time>2010-11-16T14:42:21Z</time>
      </trkpt>
      <trkpt lat="59.2993335498" lon="18.1270400112">
        <ele>49</ele>
        <time>2010-11-16T14:42:23Z</time>
      </trkpt>
      <trkpt lat="59.2993028721" lon="18.1269475588">
        <ele>49</ele>
        <time>2010-11-16T14:42:25Z</time>
      </trkpt>
      <trkpt lat="59.2992530836" lon="18.1267549427">
        <ele>48.2</ele>
        <time>2010-11-16T14:42:28Z</time>
      </trkpt>
      <trkpt lat="59.299234811" lon="18.1266295495">
        <ele>48</ele>
        <time>2010-11-16T14:42:31Z</time>
      </trkpt>
      <trkpt lat="59.2992158679" lon="18.1265022285">
        <ele>47.6</ele>
        <time>2010-11-16T14:42:32Z</time>
      </trkpt>
      <trkpt lat="59.2991942426" lon="18.1263669446">
        <ele>47.4</ele>
        <time>2010-11-16T14:42:34Z</time>
      </trkpt>
      <trkpt lat="59.2991781494" lon="18.1262102031">
        <ele>47.2</ele>
        <time>2010-11-16T14:42:36Z</time>
      </trkpt>
      <trkpt lat="59.2991581166" lon="18.1260463369">
        <ele>47.2</ele>
        <time>2010-11-16T14:42:38Z</time>
      </trkpt>
      <trkpt lat="59.2991554344" lon="18.1259756775">
        <ele>47</ele>
        <time>2010-11-16T14:42:39Z</time>
      </trkpt>
      <trkpt lat="59.2991508244" lon="18.125834191">
        <ele>47</ele>
        <time>2010-11-16T14:42:43Z</time>
      </trkpt>
      <trkpt lat="59.2991847711" lon="18.125681389">
        <ele>46.8</ele>
        <time>2010-11-16T14:42:48Z</time>
      </trkpt>
      <trkpt lat="59.2992286922" lon="18.1256043593">
        <ele>46.6</ele>
        <time>2010-11-16T14:42:49Z</time>
      </trkpt>
      <trkpt lat="59.2992453722" lon="18.1255141701">
        <ele>46.2</ele>
        <time>2010-11-16T14:42:52Z</time>
      </trkpt>
      <trkpt lat="59.299258448" lon="18.125452144">
        <ele>45.6</ele>
        <time>2010-11-16T14:42:54Z</time>
      </trkpt>
      <trkpt lat="59.2992742898" lon="18.1254241485">
        <ele>45.6</ele>
        <time>2010-11-16T14:42:56Z</time>
      </trkpt>
      <trkpt lat="59.2993639761" lon="18.1252557561">
        <ele>45.2</ele>
        <time>2010-11-16T14:42:59Z</time>
      </trkpt>
      <trkpt lat="59.2994353061" lon="18.1251680814">
        <ele>44.8</ele>
        <time>2010-11-16T14:43:02Z</time>
      </trkpt>
      <trkpt lat="59.2994958234" lon="18.1251044628">
        <ele>44.4</ele>
        <time>2010-11-16T14:43:04Z</time>
      </trkpt>
      <trkpt lat="59.2995684945" lon="18.1250156985">
        <ele>43.8</ele>
        <time>2010-11-16T14:43:07Z</time>
      </trkpt>
      <trkpt lat="59.2995986693" lon="18.1249312928">
        <ele>43.6</ele>
        <time>2010-11-16T14:43:09Z</time>
      </trkpt>
      <trkpt lat="59.2996161875" lon="18.1247493217">
        <ele>42.6</ele>
        <time>2010-11-16T14:43:13Z</time>
      </trkpt>
      <trkpt lat="59.2996359688" lon="18.124641279">
        <ele>42</ele>
        <time>2010-11-16T14:43:14Z</time>
      </trkpt>
      <trkpt lat="59.2996777106" lon="18.1245303027">
        <ele>41.2</ele>
        <time>2010-11-16T14:43:18Z</time>
      </trkpt>
      <trkpt lat="59.2996901158" lon="18.1244943443">
        <ele>41</ele>
        <time>2010-11-16T14:43:19Z</time>
      </trkpt>
      <trkpt lat="59.299739569" lon="18.1243583061">
        <ele>40.2</ele>
        <time>2010-11-16T14:43:22Z</time>
      </trkpt>
      <trkpt lat="59.299786843" lon="18.1241914225">
        <ele>39.4</ele>
        <time>2010-11-16T14:43:24Z</time>
      </trkpt>
      <trkpt lat="59.2999034352" lon="18.1240423923">
        <ele>38.4</ele>
        <time>2010-11-16T14:43:28Z</time>
      </trkpt>
      <trkpt lat="59.2999688978" lon="18.1239765944">
        <ele>38</ele>
        <time>2010-11-16T14:43:29Z</time>
      </trkpt>
      <trkpt lat="59.3000763538" lon="18.1238734132">
        <ele>37.2</ele>
        <time>2010-11-16T14:43:32Z</time>
      </trkpt>
      <trkpt lat="59.3001154973" lon="18.1238220321">
        <ele>36.8</ele>
        <time>2010-11-16T14:43:33Z</time>
      </trkpt>
      <trkpt lat="59.3001642799" lon="18.1237284901">
        <ele>36.2</ele>
        <time>2010-11-16T14:43:34Z</time>
      </trkpt>
      <trkpt lat="59.3002066085" lon="18.1236305057">
        <ele>35.8</ele>
        <time>2010-11-16T14:43:37Z</time>
      </trkpt>
      <trkpt lat="59.3002506135" lon="18.1234735127">
        <ele>34.6</ele>
        <time>2010-11-16T14:43:39Z</time>
      </trkpt>
      <trkpt lat="59.300297133" lon="18.1233030249">
        <ele>33.8</ele>
        <time>2010-11-16T14:43:42Z</time>
      </trkpt>
      <trkpt lat="59.3003218596" lon="18.1231541623">
        <ele>33.2</ele>
        <time>2010-11-16T14:43:44Z</time>
      </trkpt>
      <trkpt lat="59.3003491846" lon="18.1229906315">
        <ele>32.6</ele>
        <time>2010-11-16T14:43:46Z</time>
      </trkpt>
      <trkpt lat="59.3003646911" lon="18.1228221553">
        <ele>32</ele>
        <time>2010-11-16T14:43:49Z</time>
      </trkpt>
      <trkpt lat="59.300371229" lon="18.122656026">
        <ele>31.6</ele>
        <time>2010-11-16T14:43:51Z</time>
      </trkpt>
      <trkpt lat="59.3003451613" lon="18.1225033916">
        <ele>31</ele>
        <time>2010-11-16T14:43:52Z</time>
      </trkpt>
      <trkpt lat="59.3003257991" lon="18.122439773">
        <ele>30.6</ele>
        <time>2010-11-16T14:43:54Z</time>
      </trkpt>
      <trkpt lat="59.3002787767" lon="18.1223287128">
        <ele>30</ele>
        <time>2010-11-16T14:43:56Z</time>
      </trkpt>
      <trkpt lat="59.3002636892" lon="18.1222911619">
        <ele>29.8</ele>
        <time>2010-11-16T14:43:57Z</time>
      </trkpt>
      <trkpt lat="59.3002841411" lon="18.1221095261">
        <ele>29</ele>
        <time>2010-11-16T14:43:59Z</time>
      </trkpt>
      <trkpt lat="59.3002983903" lon="18.1220314068">
        <ele>29</ele>
        <time>2010-11-16T14:44:01Z</time>
      </trkpt>
      <trkpt lat="59.3002544692" lon="18.1217779382">
        <ele>28.2</ele>
        <time>2010-11-16T14:44:04Z</time>
      </trkpt>
      <trkpt lat="59.3002015794" lon="18.12166319">
        <ele>27.8</ele>
        <time>2010-11-16T14:44:06Z</time>
      </trkpt>
      <trkpt lat="59.3001575744" lon="18.1215561531">
        <ele>27.2</ele>
        <time>2010-11-16T14:44:08Z</time>
      </trkpt>
      <trkpt lat="59.3001299141" lon="18.1214227971">
        <ele>27</ele>
        <time>2010-11-16T14:44:09Z</time>
      </trkpt>
      <trkpt lat="59.3001201073" lon="18.1213518024">
        <ele>26.8</ele>
        <time>2010-11-16T14:44:10Z</time>
      </trkpt>
      <trkpt lat="59.3000912736" lon="18.1212089748">
        <ele>26.4</ele>
        <time>2010-11-16T14:44:13Z</time>
      </trkpt>
      <trkpt lat="59.3000824726" lon="18.1210899518">
        <ele>26.2</ele>
        <time>2010-11-16T14:44:14Z</time>
      </trkpt>
      <trkpt lat="59.3000818858" lon="18.1209390776">
        <ele>26.2</ele>
        <time>2010-11-16T14:44:16Z</time>
      </trkpt>
      <trkpt lat="59.3000988173" lon="18.1207939869">
        <ele>26</ele>
        <time>2010-11-16T14:44:19Z</time>
      </trkpt>
      <trkpt lat="59.3001038464" lon="18.1206452082">
        <ele>25.8</ele>
        <time>2010-11-16T14:44:21Z</time>
      </trkpt>
      <trkpt lat="59.300127651" lon="18.1203432083">
        <ele>25</ele>
        <time>2010-11-16T14:44:24Z</time>
      </trkpt>
      <trkpt lat="59.3001475999" lon="18.1201225967">
        <ele>24.6</ele>
        <time>2010-11-16T14:44:28Z</time>
      </trkpt>
      <trkpt lat="59.3001571553" lon="18.1200119557">
        <ele>24.2</ele>
        <time>2010-11-16T14:44:30Z</time>
      </trkpt>
      <trkpt lat="59.3001852347" lon="18.1198980456">
        <ele>24.2</ele>
        <time>2010-11-16T14:44:32Z</time>
      </trkpt>
      <trkpt lat="59.3001982266" lon="18.1198521128">
        <ele>24</ele>
        <time>2010-11-16T14:44:33Z</time>
      </trkpt>
      <trkpt lat="59.3002268927" lon="18.1197439863">
        <ele>23.8</ele>
        <time>2010-11-16T14:44:34Z</time>
      </trkpt>
      <trkpt lat="59.3002508649" lon="18.1195940341">
        <ele>23.8</ele>
        <time>2010-11-16T14:44:37Z</time>
      </trkpt>
      <trkpt lat="59.3002759268" lon="18.1193704888">
        <ele>23.6</ele>
        <time>2010-11-16T14:44:39Z</time>
      </trkpt>
      <trkpt lat="59.3002978036" lon="18.1192536452">
        <ele>23.6</ele>
        <time>2010-11-16T14:44:42Z</time>
      </trkpt>
      <trkpt lat="59.3003303254" lon="18.119165719">
        <ele>23.6</ele>
        <time>2010-11-16T14:44:44Z</time>
      </trkpt>
      <trkpt lat="59.3003586562" lon="18.119112494">
        <ele>23.4</ele>
        <time>2010-11-16T14:44:46Z</time>
      </trkpt>
      <trkpt lat="59.3004336742" lon="18.1189680738">
        <ele>23.4</ele>
        <time>2010-11-16T14:44:49Z</time>
      </trkpt>
      <trkpt lat="59.300490252" lon="18.1188621266">
        <ele>23.4</ele>
        <time>2010-11-16T14:44:52Z</time>
      </trkpt>
      <trkpt lat="59.3005437285" lon="18.1187574367">
        <ele>23.4</ele>
        <time>2010-11-16T14:44:54Z</time>
      </trkpt>
      <trkpt lat="59.3005762503" lon="18.1186435267">
        <ele>23.4</ele>
        <time>2010-11-16T14:44:56Z</time>
      </trkpt>
      <trkpt lat="59.3006096941" lon="18.1184795767">
        <ele>23.4</ele>
        <time>2010-11-16T14:44:58Z</time>
      </trkpt>
      <trkpt lat="59.3006113705" lon="18.1183361624">
        <ele>23.4</ele>
        <time>2010-11-16T14:45:01Z</time>
      </trkpt>
      <trkpt lat="59.3006242786" lon="18.1182212465">
        <ele>23.4</ele>
        <time>2010-11-16T14:45:03Z</time>
      </trkpt>
      <trkpt lat="59.3006473288" lon="18.1180497529">
        <ele>23.4</ele>
        <time>2010-11-16T14:45:06Z</time>
      </trkpt>
      <trkpt lat="59.3006784257" lon="18.1179554565">
        <ele>23.4</ele>
        <time>2010-11-16T14:45:08Z</time>
      </trkpt>
      <trkpt lat="59.3007070918" lon="18.1178454021">
        <ele>23.4</ele>
        <time>2010-11-16T14:45:09Z</time>
      </trkpt>
      <trkpt lat="59.3007529408" lon="18.1177007305">
        <ele>23.4</ele>
        <time>2010-11-16T14:45:12Z</time>
      </trkpt>
      <trkpt lat="59.3007925033" lon="18.1175161611">
        <ele>23.2</ele>
        <time>2010-11-16T14:45:14Z</time>
      </trkpt>
      <trkpt lat="59.3008064173" lon="18.1172792048">
        <ele>22.8</ele>
        <time>2010-11-16T14:45:16Z</time>
      </trkpt>
      <trkpt lat="59.3007873065" lon="18.1171256484">
        <ele>22.6</ele>
        <time>2010-11-16T14:45:17Z</time>
      </trkpt>
      <trkpt lat="59.3007601492" lon="18.116904953">
        <ele>22.2</ele>
        <time>2010-11-16T14:45:19Z</time>
      </trkpt>
      <trkpt lat="59.3007834509" lon="18.1166642248">
        <ele>22</ele>
        <time>2010-11-16T14:45:22Z</time>
      </trkpt>
      <trkpt lat="59.3008075069" lon="18.1165417652">
        <ele>22</ele>
        <time>2010-11-16T14:45:23Z</time>
      </trkpt>
      <trkpt lat="59.3008405316" lon="18.1162785736">
        <ele>21.8</ele>
        <time>2010-11-16T14:45:25Z</time>
      </trkpt>
      <trkpt lat="59.3008557867" lon="18.1161789966">
        <ele>21.8</ele>
        <time>2010-11-16T14:45:26Z</time>
      </trkpt>
      <trkpt lat="59.300896858" lon="18.1159817705">
        <ele>21.8</ele>
        <time>2010-11-16T14:45:28Z</time>
      </trkpt>
      <trkpt lat="59.3009099337" lon="18.1157836224">
        <ele>21.6</ele>
        <time>2010-11-16T14:45:30Z</time>
      </trkpt>
      <trkpt lat="59.3009255241" lon="18.1156187504">
        <ele>21.6</ele>
        <time>2010-11-16T14:45:32Z</time>
      </trkpt>
      <trkpt lat="59.3009266975" lon="18.1155489292">
        <ele>21.6</ele>
        <time>2010-11-16T14:45:33Z</time>
      </trkpt>
      <trkpt lat="59.3009268652" lon="18.1153894216">
        <ele>21.6</ele>
        <time>2010-11-16T14:45:34Z</time>
      </trkpt>
      <trkpt lat="59.3009382646" lon="18.115234105">
        <ele>21.4</ele>
        <time>2010-11-16T14:45:37Z</time>
      </trkpt>
      <trkpt lat="59.3009486581" lon="18.1151701511">
        <ele>21.4</ele>
        <time>2010-11-16T14:45:38Z</time>
      </trkpt>
      <trkpt lat="59.3009442995" lon="18.1150515472">
        <ele>21</ele>
        <time>2010-11-16T14:45:40Z</time>
      </trkpt>
      <trkpt lat="59.3009336545" lon="18.1148972365">
        <ele>20.6</ele>
        <time>2010-11-16T14:45:43Z</time>
      </trkpt>
      <trkpt lat="59.3009267814" lon="18.1147910378">
        <ele>20.4</ele>
        <time>2010-11-16T14:45:45Z</time>
      </trkpt>
      <trkpt lat="59.3009341574" lon="18.1146571788">
        <ele>20</ele>
        <time>2010-11-16T14:45:48Z</time>
      </trkpt>
      <trkpt lat="59.3009516756" lon="18.1145541653">
        <ele>19.8</ele>
        <time>2010-11-16T14:45:50Z</time>
      </trkpt>
      <trkpt lat="59.3009569562" lon="18.1144474637">
        <ele>19.8</ele>
        <time>2010-11-16T14:45:52Z</time>
      </trkpt>
      <trkpt lat="59.3009581297" lon="18.1143110064">
        <ele>19.6</ele>
        <time>2010-11-16T14:45:55Z</time>
      </trkpt>
      <trkpt lat="59.3009589679" lon="18.114129203">
        <ele>19.6</ele>
        <time>2010-11-16T14:45:58Z</time>
      </trkpt>
      <trkpt lat="59.3009651705" lon="18.1139641633">
        <ele>19.4</ele>
        <time>2010-11-16T14:46:00Z</time>
      </trkpt>
      <trkpt lat="59.3009692776" lon="18.1137584715">
        <ele>19.4</ele>
        <time>2010-11-16T14:46:02Z</time>
      </trkpt>
      <trkpt lat="59.3009749773" lon="18.1135513548">
        <ele>19.4</ele>
        <time>2010-11-16T14:46:04Z</time>
      </trkpt>
      <trkpt lat="59.3009886398" lon="18.1133357723">
        <ele>19.4</ele>
        <time>2010-11-16T14:46:06Z</time>
      </trkpt>
      <trkpt lat="59.3010018832" lon="18.1131194355">
        <ele>19.4</ele>
        <time>2010-11-16T14:46:08Z</time>
      </trkpt>
      <trkpt lat="59.3010170544" lon="18.1129053617">
        <ele>19.2</ele>
        <time>2010-11-16T14:46:10Z</time>
      </trkpt>
      <trkpt lat="59.3010173059" lon="18.1127934634">
        <ele>19</ele>
        <time>2010-11-16T14:46:11Z</time>
      </trkpt>
      <trkpt lat="59.3010217483" lon="18.1125717621">
        <ele>18.6</ele>
        <time>2010-11-16T14:46:13Z</time>
      </trkpt>
      <trkpt lat="59.3010343211" lon="18.1124256656">
        <ele>18.4</ele>
        <time>2010-11-16T14:46:14Z</time>
      </trkpt>
      <trkpt lat="59.3010608079" lon="18.1122910523">
        <ele>18.2</ele>
        <time>2010-11-16T14:46:15Z</time>
      </trkpt>
      <trkpt lat="59.3011147036" lon="18.1120967598">
        <ele>18</ele>
        <time>2010-11-16T14:46:18Z</time>
      </trkpt>
      <trkpt lat="59.3011431182" lon="18.1120115997">
        <ele>18</ele>
        <time>2010-11-16T14:46:19Z</time>
      </trkpt>
      <trkpt lat="59.3012504903" lon="18.1117880545">
        <ele>17.8</ele>
        <time>2010-11-16T14:46:22Z</time>
      </trkpt>
      <trkpt lat="59.301322407" lon="18.111662326">
        <ele>17.6</ele>
        <time>2010-11-16T14:46:23Z</time>
      </trkpt>
      <trkpt lat="59.3014068128" lon="18.1115198337">
        <ele>17.6</ele>
        <time>2010-11-16T14:46:26Z</time>
      </trkpt>
      <trkpt lat="59.3014338025" lon="18.1114292253">
        <ele>17.6</ele>
        <time>2010-11-16T14:46:27Z</time>
      </trkpt>
      <trkpt lat="59.3014337187" lon="18.111263599">
        <ele>17.2</ele>
        <time>2010-11-16T14:46:28Z</time>
      </trkpt>
      <trkpt lat="59.3014205591" lon="18.1110652832">
        <ele>16.8</ele>
        <time>2010-11-16T14:46:31Z</time>
      </trkpt>
      <trkpt lat="59.301423828" lon="18.1109796202">
        <ele>16.6</ele>
        <time>2010-11-16T14:46:32Z</time>
      </trkpt>
      <trkpt lat="59.301428941" lon="18.1108964718">
        <ele>16.4</ele>
        <time>2010-11-16T14:46:33Z</time>
      </trkpt>
      <trkpt lat="59.3014001911" lon="18.1106528938">
        <ele>16.2</ele>
        <time>2010-11-16T14:46:36Z</time>
      </trkpt>
      <trkpt lat="59.3013916415" lon="18.1105241478">
        <ele>16</ele>
        <time>2010-11-16T14:46:38Z</time>
      </trkpt>
      <trkpt lat="59.3013892108" lon="18.1103583538">
        <ele>15.8</ele>
        <time>2010-11-16T14:46:40Z</time>
      </trkpt>
      <trkpt lat="59.3013904681" lon="18.1102767979">
        <ele>15.8</ele>
        <time>2010-11-16T14:46:41Z</time>
      </trkpt>
      <trkpt lat="59.3013832596" lon="18.1100432782">
        <ele>15.6</ele>
        <time>2010-11-16T14:46:44Z</time>
      </trkpt>
      <trkpt lat="59.3013793201" lon="18.1099008697">
        <ele>15.6</ele>
        <time>2010-11-16T14:46:46Z</time>
      </trkpt>
      <trkpt lat="59.301379404" lon="18.1097659211">
        <ele>15.4</ele>
        <time>2010-11-16T14:46:48Z</time>
      </trkpt>
      <trkpt lat="59.3013814994" lon="18.109639522">
        <ele>15.4</ele>
        <time>2010-11-16T14:46:50Z</time>
      </trkpt>
      <trkpt lat="59.3013800745" lon="18.1095082615">
        <ele>15.4</ele>
        <time>2010-11-16T14:46:52Z</time>
      </trkpt>
      <trkpt lat="59.3013758836" lon="18.1093891547">
        <ele>15.4</ele>
        <time>2010-11-16T14:46:54Z</time>
      </trkpt>
      <trkpt lat="59.3013727823" lon="18.1092770049">
        <ele>15.4</ele>
        <time>2010-11-16T14:46:56Z</time>
      </trkpt>
      <trkpt lat="59.3013748777" lon="18.1091827923">
        <ele>15.2</ele>
        <time>2010-11-16T14:46:58Z</time>
      </trkpt>
      <trkpt lat="59.3013820023" lon="18.1090876577">
        <ele>15.2</ele>
        <time>2010-11-16T14:47:00Z</time>
      </trkpt>
      <trkpt lat="59.3013949105" lon="18.1089926908">
        <ele>15.2</ele>
        <time>2010-11-16T14:47:02Z</time>
      </trkpt>
      <trkpt lat="59.3014403404" lon="18.1089144039">
        <ele>15.2</ele>
        <time>2010-11-16T14:47:04Z</time>
      </trkpt>
      <trkpt lat="59.3014897936" lon="18.108884229">
        <ele>15.2</ele>
        <time>2010-11-16T14:47:07Z</time>
      </trkpt>
      <trkpt lat="59.3015441083" lon="18.1088506176">
        <ele>15.2</ele>
        <time>2010-11-16T14:47:09Z</time>
      </trkpt>
      <trkpt lat="59.301598423" lon="18.1088154136">
        <ele>15.2</ele>
        <time>2010-11-16T14:47:11Z</time>
      </trkpt>
      <trkpt lat="59.3016603652" lon="18.1087751805">
        <ele>15.2</ele>
        <time>2010-11-16T14:47:13Z</time>
      </trkpt>
      <trkpt lat="59.3017189547" lon="18.1087185189">
        <ele>15.2</ele>
        <time>2010-11-16T14:47:15Z</time>
      </trkpt>
      <trkpt lat="59.3017812322" lon="18.1086481947">
        <ele>15.2</ele>
        <time>2010-11-16T14:47:17Z</time>
      </trkpt>
      <trkpt lat="59.3018296796" lon="18.1085894376">
        <ele>15.2</ele>
        <time>2010-11-16T14:47:18Z</time>
      </trkpt>
      <trkpt lat="59.3019049491" lon="18.1084985778">
        <ele>15.2</ele>
        <time>2010-11-16T14:47:20Z</time>
      </trkpt>
      <trkpt lat="59.3019797995" lon="18.1083265812">
        <ele>15.2</ele>
        <time>2010-11-16T14:47:22Z</time>
      </trkpt>
      <trkpt lat="59.3020458488" lon="18.1081223143">
        <ele>15.2</ele>
        <time>2010-11-16T14:47:25Z</time>
      </trkpt>
      <trkpt lat="59.3020658816" lon="18.1080237432">
        <ele>15.2</ele>
        <time>2010-11-16T14:47:26Z</time>
      </trkpt>
      <trkpt lat="59.3020867525" lon="18.1078500702">
        <ele>15.2</ele>
        <time>2010-11-16T14:47:28Z</time>
      </trkpt>
      <trkpt lat="59.3020992415" lon="18.1078058138">
        <ele>15.2</ele>
        <time>2010-11-16T14:47:29Z</time>
      </trkpt>
      <trkpt lat="59.3021043545" lon="18.1077746331">
        <ele>15.2</ele>
        <time>2010-11-16T14:47:30Z</time>
      </trkpt>
      <trkpt lat="59.3021062823" lon="18.1077436201">
        <ele>15.2</ele>
        <time>2010-11-16T14:47:32Z</time>
      </trkpt>
      <trkpt lat="59.3021436656" lon="18.1076213282">
        <ele>15.2</ele>
        <time>2010-11-16T14:47:36Z</time>
      </trkpt>
      <trkpt lat="59.3021497006" lon="18.1076059893">
        <ele>15.2</ele>
        <time>2010-11-16T14:47:37Z</time>
      </trkpt>
      <trkpt lat="59.3021875868" lon="18.1074796741">
        <ele>15.2</ele>
        <time>2010-11-16T14:47:39Z</time>
      </trkpt>
      <trkpt lat="59.3022191027" lon="18.1073565439">
        <ele>15.2</ele>
        <time>2010-11-16T14:47:41Z</time>
      </trkpt>
      <trkpt lat="59.3022457571" lon="18.1072306478">
        <ele>15.2</ele>
        <time>2010-11-16T14:47:44Z</time>
      </trkpt>
      <trkpt lat="59.3022616828" lon="18.1071003093">
        <ele>15.2</ele>
        <time>2010-11-16T14:47:46Z</time>
      </trkpt>
      <trkpt lat="59.3022971382" lon="18.1069450765">
        <ele>15.2</ele>
        <time>2010-11-16T14:47:48Z</time>
      </trkpt>
      <trkpt lat="59.3023285703" lon="18.1067910171">
        <ele>15.2</ele>
        <time>2010-11-16T14:47:49Z</time>
      </trkpt>
      <trkpt lat="59.3023611759" lon="18.1066558171">
        <ele>15.2</ele>
        <time>2010-11-16T14:47:52Z</time>
      </trkpt>
      <trkpt lat="59.3023902611" lon="18.1065098044">
        <ele>15.2</ele>
        <time>2010-11-16T14:47:54Z</time>
      </trkpt>
      <trkpt lat="59.3024210227" lon="18.1063282524">
        <ele>15.2</ele>
        <time>2010-11-16T14:47:56Z</time>
      </trkpt>
      <trkpt lat="59.3024459169" lon="18.1062261609">
        <ele>15.4</ele>
        <time>2010-11-16T14:47:58Z</time>
      </trkpt>
      <trkpt lat="59.3024717332" lon="18.1061186211">
        <ele>15.8</ele>
        <time>2010-11-16T14:48:00Z</time>
      </trkpt>
      <trkpt lat="59.3025030815" lon="18.1060120034">
        <ele>16</ele>
        <time>2010-11-16T14:48:02Z</time>
      </trkpt>
      <trkpt lat="59.3025340107" lon="18.1059120911">
        <ele>16.4</ele>
        <time>2010-11-16T14:48:04Z</time>
      </trkpt>
      <trkpt lat="59.3025649399" lon="18.105823243">
        <ele>16.8</ele>
        <time>2010-11-16T14:48:06Z</time>
      </trkpt>
      <trkpt lat="59.3025900018" lon="18.105726432">
        <ele>17.2</ele>
        <time>2010-11-16T14:48:08Z</time>
      </trkpt>
      <trkpt lat="59.3026114594" lon="18.1056266874">
        <ele>17.6</ele>
        <time>2010-11-16T14:48:10Z</time>
      </trkpt>
      <trkpt lat="59.3026350126" lon="18.1055465565">
        <ele>18</ele>
        <time>2010-11-16T14:48:12Z</time>
      </trkpt>
      <trkpt lat="59.3026490104" lon="18.1054999531">
        <ele>18.6</ele>
        <time>2010-11-16T14:48:14Z</time>
      </trkpt>
      <trkpt lat="59.3027221005" lon="18.1055370849">
        <ele>19.6</ele>
        <time>2010-11-16T14:48:18Z</time>
      </trkpt>
      <trkpt lat="59.3027889043" lon="18.1056121029">
        <ele>20.2</ele>
        <time>2010-11-16T14:48:20Z</time>
      </trkpt>
      <trkpt lat="59.3028799317" lon="18.1057283599">
        <ele>20.8</ele>
        <time>2010-11-16T14:48:22Z</time>
      </trkpt>
      <trkpt lat="59.3029489147" lon="18.1058827545">
        <ele>21.4</ele>
        <time>2010-11-16T14:48:24Z</time>
      </trkpt>
      <trkpt lat="59.3030374276" lon="18.106034383">
        <ele>21.8</ele>
        <time>2010-11-16T14:48:26Z</time>
      </trkpt>
      <trkpt lat="59.3030892277" lon="18.106090877">
        <ele>22</ele>
        <time>2010-11-16T14:48:27Z</time>
      </trkpt>
      <trkpt lat="59.303159971" lon="18.106121471">
        <ele>22.6</ele>
        <time>2010-11-16T14:48:29Z</time>
      </trkpt>
      <trkpt lat="59.3032498249" lon="18.106007058">
        <ele>23.2</ele>
        <time>2010-11-16T14:48:31Z</time>
      </trkpt>
      <trkpt lat="59.3033106775" lon="18.1058892923">
        <ele>23.6</ele>
        <time>2010-11-16T14:48:33Z</time>
      </trkpt>
      <trkpt lat="59.3033390922" lon="18.1058247517">
        <ele>23.8</ele>
        <time>2010-11-16T14:48:34Z</time>
      </trkpt>
      <trkpt lat="59.3034233303" lon="18.1056571137">
        <ele>24.2</ele>
        <time>2010-11-16T14:48:36Z</time>
      </trkpt>
      <trkpt lat="59.303459121" lon="18.1055575367">
        <ele>24.6</ele>
        <time>2010-11-16T14:48:38Z</time>
      </trkpt>
      <trkpt lat="59.303521147" lon="18.1054235102">
        <ele>24.8</ele>
        <time>2010-11-16T14:48:39Z</time>
      </trkpt>
      <trkpt lat="59.3035452869" lon="18.1053525155">
        <ele>24.8</ele>
        <time>2010-11-16T14:48:41Z</time>
      </trkpt>
      <trkpt lat="59.3036126774" lon="18.1051979532">
        <ele>25</ele>
        <time>2010-11-16T14:48:43Z</time>
      </trkpt>
      <trkpt lat="59.3036690876" lon="18.1050614959">
        <ele>25.2</ele>
        <time>2010-11-16T14:48:44Z</time>
      </trkpt>
      <trkpt lat="59.3036890365" lon="18.1050008948">
        <ele>25.2</ele>
        <time>2010-11-16T14:48:46Z</time>
      </trkpt>
      <trkpt lat="59.3038018569" lon="18.1048695504">
        <ele>25.4</ele>
        <time>2010-11-16T14:48:49Z</time>
      </trkpt>
      <trkpt lat="59.3038820717" lon="18.1046853162">
        <ele>25.4</ele>
        <time>2010-11-16T14:48:53Z</time>
      </trkpt>
      <trkpt lat="59.3039254899" lon="18.1045351964">
        <ele>25.4</ele>
        <time>2010-11-16T14:48:55Z</time>
      </trkpt>
      <trkpt lat="59.3039565868" lon="18.1043762756">
        <ele>25.6</ele>
        <time>2010-11-16T14:48:57Z</time>
      </trkpt>
      <trkpt lat="59.3040007594" lon="18.1042430034">
        <ele>25.6</ele>
        <time>2010-11-16T14:48:59Z</time>
      </trkpt>
      <trkpt lat="59.304044932" lon="18.1041211305">
        <ele>25.6</ele>
        <time>2010-11-16T14:49:01Z</time>
      </trkpt>
      <trkpt lat="59.3040638751" lon="18.1040672349">
        <ele>25.6</ele>
        <time>2010-11-16T14:49:02Z</time>
      </trkpt>
      <trkpt lat="59.3041080477" lon="18.1038982558">
        <ele>25.6</ele>
        <time>2010-11-16T14:49:04Z</time>
      </trkpt>
      <trkpt lat="59.3041568303" lon="18.1037774726">
        <ele>25.6</ele>
        <time>2010-11-16T14:49:07Z</time>
      </trkpt>
      <trkpt lat="59.3041989913" lon="18.1036830086">
        <ele>25.2</ele>
        <time>2010-11-16T14:49:09Z</time>
      </trkpt>
      <trkpt lat="59.3042424095" lon="18.1035878741">
        <ele>25</ele>
        <time>2010-11-16T14:49:11Z</time>
      </trkpt>
      <trkpt lat="59.304281553" lon="18.1034729582">
        <ele>24.6</ele>
        <time>2010-11-16T14:49:13Z</time>
      </trkpt>
      <trkpt lat="59.3043149968" lon="18.1033603893">
        <ele>24.4</ele>
        <time>2010-11-16T14:49:14Z</time>
      </trkpt>
      <trkpt lat="59.3043714908" lon="18.1031777477">
        <ele>24.2</ele>
        <time>2010-11-16T14:49:18Z</time>
      </trkpt>
      <trkpt lat="59.304425135" lon="18.1030450622">
        <ele>24.2</ele>
        <time>2010-11-16T14:49:20Z</time>
      </trkpt>
      <trkpt lat="59.3044905138" lon="18.1029167353">
        <ele>24</ele>
        <time>2010-11-16T14:49:22Z</time>
      </trkpt>
      <trkpt lat="59.3045477622" lon="18.1027545456">
        <ele>24</ele>
        <time>2010-11-16T14:49:24Z</time>
      </trkpt>
      <trkpt lat="59.304573327" lon="18.102701572">
        <ele>24</ele>
        <time>2010-11-16T14:49:25Z</time>
      </trkpt>
      <trkpt lat="59.3046028312" lon="18.1026397135">
        <ele>24</ele>
        <time>2010-11-16T14:49:26Z</time>
      </trkpt>
      <trkpt lat="59.3046428129" lon="18.1024465946">
        <ele>23.8</ele>
        <time>2010-11-16T14:49:28Z</time>
      </trkpt>
      <trkpt lat="59.3046602473" lon="18.1022887634">
        <ele>23.8</ele>
        <time>2010-11-16T14:49:31Z</time>
      </trkpt>
      <trkpt lat="59.3046736583" lon="18.1022313474">
        <ele>23.8</ele>
        <time>2010-11-16T14:49:32Z</time>
      </trkpt>
      <trkpt lat="59.3047313258" lon="18.1020878492">
        <ele>23.8</ele>
        <time>2010-11-16T14:49:34Z</time>
      </trkpt>
      <trkpt lat="59.3047926813" lon="18.1019047885">
        <ele>23.8</ele>
        <time>2010-11-16T14:49:38Z</time>
      </trkpt>
      <trkpt lat="59.304831238" lon="18.1017782219">
        <ele>23.4</ele>
        <time>2010-11-16T14:49:40Z</time>
      </trkpt>
      <trkpt lat="59.3048707168" lon="18.1016398367">
        <ele>23</ele>
        <time>2010-11-16T14:49:42Z</time>
      </trkpt>
      <trkpt lat="59.3049156437" lon="18.1015100849">
        <ele>22.8</ele>
        <time>2010-11-16T14:49:44Z</time>
      </trkpt>
      <trkpt lat="59.3049565474" lon="18.1013814227">
        <ele>22.4</ele>
        <time>2010-11-16T14:49:46Z</time>
      </trkpt>
      <trkpt lat="59.3050003848" lon="18.1012564486">
        <ele>22.4</ele>
        <time>2010-11-16T14:49:48Z</time>
      </trkpt>
      <trkpt lat="59.3050475749" lon="18.1011421195">
        <ele>22.2</ele>
        <time>2010-11-16T14:49:50Z</time>
      </trkpt>
      <trkpt lat="59.3050963575" lon="18.1009998786">
        <ele>22</ele>
        <time>2010-11-16T14:49:52Z</time>
      </trkpt>
      <trkpt lat="59.3051389376" lon="18.1008595656">
        <ele>22</ele>
        <time>2010-11-16T14:49:54Z</time>
      </trkpt>
      <trkpt lat="59.3051887261" lon="18.100689916">
        <ele>21.8</ele>
        <time>2010-11-16T14:49:56Z</time>
      </trkpt>
      <trkpt lat="59.3052251873" lon="18.1005798616">
        <ele>21.8</ele>
        <time>2010-11-16T14:49:58Z</time>
      </trkpt>
      <trkpt lat="59.3052559489" lon="18.1004896724">
        <ele>21.8</ele>
        <time>2010-11-16T14:49:59Z</time>
      </trkpt>
      <trkpt lat="59.30531194" lon="18.1003188492">
        <ele>21.4</ele>
        <time>2010-11-16T14:50:02Z</time>
      </trkpt>
      <trkpt lat="59.3053570346" lon="18.100184655">
        <ele>21</ele>
        <time>2010-11-16T14:50:04Z</time>
      </trkpt>
      <trkpt lat="59.3054006205" lon="18.1000520534">
        <ele>20.8</ele>
        <time>2010-11-16T14:50:06Z</time>
      </trkpt>
      <trkpt lat="59.3054216591" lon="18.0999834056">
        <ele>20.6</ele>
        <time>2010-11-16T14:50:07Z</time>
      </trkpt>
      <trkpt lat="59.305486032" lon="18.0998098165">
        <ele>20.4</ele>
        <time>2010-11-16T14:50:10Z</time>
      </trkpt>
      <trkpt lat="59.3055029635" lon="18.0997085631">
        <ele>20.2</ele>
        <time>2010-11-16T14:50:12Z</time>
      </trkpt>
      <trkpt lat="59.305529115" lon="18.0996025321">
        <ele>20</ele>
        <time>2010-11-16T14:50:14Z</time>
      </trkpt>
      <trkpt lat="59.3055343956" lon="18.0995473792">
        <ele>20</ele>
        <time>2010-11-16T14:50:15Z</time>
      </trkpt>
      <trkpt lat="59.3055192244" lon="18.0993265161">
        <ele>19.6</ele>
        <time>2010-11-16T14:50:18Z</time>
      </trkpt>
      <trkpt lat="59.3055122674" lon="18.0992759732">
        <ele>19.2</ele>
        <time>2010-11-16T14:50:19Z</time>
      </trkpt>
      <trkpt lat="59.3055141114" lon="18.0991426172">
        <ele>18.6</ele>
        <time>2010-11-16T14:50:23Z</time>
      </trkpt>
      <trkpt lat="59.3055426937" lon="18.0990376758">
        <ele>18.4</ele>
        <time>2010-11-16T14:50:25Z</time>
      </trkpt>
      <trkpt lat="59.3055804961" lon="18.098900045">
        <ele>18</ele>
        <time>2010-11-16T14:50:27Z</time>
      </trkpt>
      <trkpt lat="59.3056137722" lon="18.0987645097">
        <ele>17.6</ele>
        <time>2010-11-16T14:50:28Z</time>
      </trkpt>
      <trkpt lat="59.3056639798" lon="18.0986049183">
        <ele>17.2</ele>
        <time>2010-11-16T14:50:31Z</time>
      </trkpt>
      <trkpt lat="59.3057045482" lon="18.0984542118">
        <ele>16.8</ele>
        <time>2010-11-16T14:50:33Z</time>
      </trkpt>
      <trkpt lat="59.3057412609" lon="18.0983195985">
        <ele>16.6</ele>
        <time>2010-11-16T14:50:34Z</time>
      </trkpt>
      <trkpt lat="59.3057827513" lon="18.0981752621">
        <ele>16.2</ele>
        <time>2010-11-16T14:50:37Z</time>
      </trkpt>
      <trkpt lat="59.3058252475" lon="18.0980450912">
        <ele>15.6</ele>
        <time>2010-11-16T14:50:39Z</time>
      </trkpt>
      <trkpt lat="59.3058688334" lon="18.097923889">
        <ele>15.2</ele>
        <time>2010-11-16T14:50:41Z</time>
      </trkpt>
      <trkpt lat="59.3059137604" lon="18.0977980766">
        <ele>14.8</ele>
        <time>2010-11-16T14:50:43Z</time>
      </trkpt>
      <trkpt lat="59.305956089" lon="18.0976868488">
        <ele>14.6</ele>
        <time>2010-11-16T14:50:45Z</time>
      </trkpt>
      <trkpt lat="59.3059954839" lon="18.0975672391">
        <ele>14.4</ele>
        <time>2010-11-16T14:50:47Z</time>
      </trkpt>
      <trkpt lat="59.306031107" lon="18.0974469588">
        <ele>14.2</ele>
        <time>2010-11-16T14:50:48Z</time>
      </trkpt>
      <trkpt lat="59.3060714239" lon="18.0973130999">
        <ele>14</ele>
        <time>2010-11-16T14:50:51Z</time>
      </trkpt>
      <trkpt lat="59.3061098969" lon="18.0971924844">
        <ele>13.4</ele>
        <time>2010-11-16T14:50:53Z</time>
      </trkpt>
      <trkpt lat="59.3061417481" lon="18.0970610562">
        <ele>13</ele>
        <time>2010-11-16T14:50:54Z</time>
      </trkpt>
      <trkpt lat="59.3061743537" lon="18.0969248503">
        <ele>12.8</ele>
        <time>2010-11-16T14:50:57Z</time>
      </trkpt>
      <trkpt lat="59.3062074622" lon="18.096792081">
        <ele>12.4</ele>
        <time>2010-11-16T14:50:58Z</time>
      </trkpt>
      <trkpt lat="59.3062467733" lon="18.096644811">
        <ele>12.2</ele>
        <time>2010-11-16T14:51:01Z</time>
      </trkpt>
      <trkpt lat="59.306284408" lon="18.0965078508">
        <ele>12</ele>
        <time>2010-11-16T14:51:03Z</time>
      </trkpt>
      <trkpt lat="59.3063243059" lon="18.0963903365">
        <ele>12</ele>
        <time>2010-11-16T14:51:04Z</time>
      </trkpt>
      <trkpt lat="59.3063686461" lon="18.0962534601">
        <ele>11.8</ele>
        <time>2010-11-16T14:51:07Z</time>
      </trkpt>
      <trkpt lat="59.3064059456" lon="18.0961096267">
        <ele>11.8</ele>
        <time>2010-11-16T14:51:09Z</time>
      </trkpt>
      <trkpt lat="59.3064349469" lon="18.0959703195">
        <ele>11.6</ele>
        <time>2010-11-16T14:51:10Z</time>
      </trkpt>
      <trkpt lat="59.3064547282" lon="18.0958156735">
        <ele>11.6</ele>
        <time>2010-11-16T14:51:13Z</time>
      </trkpt>
      <trkpt lat="59.306451124" lon="18.095660776">
        <ele>11.6</ele>
        <time>2010-11-16T14:51:14Z</time>
      </trkpt>
      <trkpt lat="59.3064313427" lon="18.095502358">
        <ele>11.4</ele>
        <time>2010-11-16T14:51:16Z</time>
      </trkpt>
      <trkpt lat="59.3064171773" lon="18.0954243226">
        <ele>11.2</ele>
        <time>2010-11-16T14:51:18Z</time>
      </trkpt>
      <trkpt lat="59.3063611024" lon="18.0952126796">
        <ele>10.6</ele>
        <time>2010-11-16T14:51:21Z</time>
      </trkpt>
      <trkpt lat="59.3063254793" lon="18.0950766413">
        <ele>10.4</ele>
        <time>2010-11-16T14:51:22Z</time>
      </trkpt>
      <trkpt lat="59.306290443" lon="18.0949214924">
        <ele>10.2</ele>
        <time>2010-11-16T14:51:24Z</time>
      </trkpt>
      <trkpt lat="59.3062618607" lon="18.0948085044">
        <ele>10</ele>
        <time>2010-11-16T14:51:26Z</time>
      </trkpt>
      <trkpt lat="59.3062132457" lon="18.0946417884">
        <ele>9.8</ele>
        <time>2010-11-16T14:51:28Z</time>
      </trkpt>
      <trkpt lat="59.3061772035" lon="18.094494686">
        <ele>9.8</ele>
        <time>2010-11-16T14:51:31Z</time>
      </trkpt>
      <trkpt lat="59.3061405746" lon="18.0943495115">
        <ele>9.6</ele>
        <time>2010-11-16T14:51:33Z</time>
      </trkpt>
      <trkpt lat="59.3061205419" lon="18.0942777625">
        <ele>9.6</ele>
        <time>2010-11-16T14:51:34Z</time>
      </trkpt>
      <trkpt lat="59.3060745252" lon="18.0940514512">
        <ele>9.6</ele>
        <time>2010-11-16T14:51:37Z</time>
      </trkpt>
      <trkpt lat="59.3060383154" lon="18.0939062766">
        <ele>9.4</ele>
        <time>2010-11-16T14:51:39Z</time>
      </trkpt>
      <trkpt lat="59.3060031115" lon="18.0937562406">
        <ele>9.4</ele>
        <time>2010-11-16T14:51:41Z</time>
      </trkpt>
      <trkpt lat="59.3059662311" lon="18.0935995829">
        <ele>9.4</ele>
        <time>2010-11-16T14:51:43Z</time>
      </trkpt>
      <trkpt lat="59.3059322006" lon="18.0934485411">
        <ele>9.4</ele>
        <time>2010-11-16T14:51:45Z</time>
      </trkpt>
      <trkpt lat="59.3059216394" lon="18.0933705056">
        <ele>9.4</ele>
        <time>2010-11-16T14:51:46Z</time>
      </trkpt>
      <trkpt lat="59.3059097371" lon="18.093200353">
        <ele>9.4</ele>
        <time>2010-11-16T14:51:48Z</time>
      </trkpt>
      <trkpt lat="59.3059021934" lon="18.0930292785">
        <ele>9.4</ele>
        <time>2010-11-16T14:51:49Z</time>
      </trkpt>
      <trkpt lat="59.3058932247" lon="18.0929397598">
        <ele>9.4</ele>
        <time>2010-11-16T14:51:51Z</time>
      </trkpt>
      <trkpt lat="59.3058587751" lon="18.0927773185">
        <ele>9.4</ele>
        <time>2010-11-16T14:51:53Z</time>
      </trkpt>
      <trkpt lat="59.3058225653" lon="18.0926182301">
        <ele>9.4</ele>
        <time>2010-11-16T14:51:54Z</time>
      </trkpt>
      <trkpt lat="59.3057753752" lon="18.0924706248">
        <ele>9.4</ele>
        <time>2010-11-16T14:51:57Z</time>
      </trkpt>
      <trkpt lat="59.3057324599" lon="18.0923151406">
        <ele>9.4</ele>
        <time>2010-11-16T14:51:59Z</time>
      </trkpt>
      <trkpt lat="59.3056925621" lon="18.0921584829">
        <ele>9.4</ele>
        <time>2010-11-16T14:52:01Z</time>
      </trkpt>
      <trkpt lat="59.3056529995" lon="18.091996796">
        <ele>9.4</ele>
        <time>2010-11-16T14:52:03Z</time>
      </trkpt>
      <trkpt lat="59.3056320447" lon="18.091926388">
        <ele>9.4</ele>
        <time>2010-11-16T14:52:04Z</time>
      </trkpt>
      <trkpt lat="59.3055933204" lon="18.0917843987">
        <ele>9.4</ele>
        <time>2010-11-16T14:52:06Z</time>
      </trkpt>
      <trkpt lat="59.305574042" lon="18.0916997415">
        <ele>9.4</ele>
        <time>2010-11-16T14:52:07Z</time>
      </trkpt>
      <trkpt lat="59.3055298694" lon="18.0915436705">
        <ele>9.4</ele>
        <time>2010-11-16T14:52:09Z</time>
      </trkpt>
      <trkpt lat="59.3054893848" lon="18.0913752781">
        <ele>9.4</ele>
        <time>2010-11-16T14:52:10Z</time>
      </trkpt>
      <trkpt lat="59.3054672566" lon="18.0912877711">
        <ele>9.4</ele>
        <time>2010-11-16T14:52:12Z</time>
      </trkpt>
      <trkpt lat="59.3054482297" lon="18.091207221">
        <ele>9.4</ele>
        <time>2010-11-16T14:52:13Z</time>
      </trkpt>
      <trkpt lat="59.3053895564" lon="18.090954842">
        <ele>9.4</ele>
        <time>2010-11-16T14:52:16Z</time>
      </trkpt>
      <trkpt lat="59.3053579566" lon="18.0907981005">
        <ele>9.4</ele>
        <time>2010-11-16T14:52:17Z</time>
      </trkpt>
      <trkpt lat="59.3053474792" lon="18.0907488149">
        <ele>9.4</ele>
        <time>2010-11-16T14:52:18Z</time>
      </trkpt>
      <trkpt lat="59.3052869619" lon="18.0904826058">
        <ele>9.4</ele>
        <time>2010-11-16T14:52:22Z</time>
      </trkpt>
      <trkpt lat="59.3052334016" lon="18.090365343">
        <ele>9.4</ele>
        <time>2010-11-16T14:52:24Z</time>
      </trkpt>
      <trkpt lat="59.3051689448" lon="18.0903618226">
        <ele>9.4</ele>
        <time>2010-11-16T14:52:26Z</time>
      </trkpt>
      <trkpt lat="59.3051138757" lon="18.0903852081">
        <ele>9.4</ele>
        <time>2010-11-16T14:52:27Z</time>
      </trkpt>
      <trkpt lat="59.3050616564" lon="18.0904203283">
        <ele>9.4</ele>
        <time>2010-11-16T14:52:28Z</time>
      </trkpt>
      <trkpt lat="59.304966019" lon="18.0904596394">
        <ele>9.6</ele>
        <time>2010-11-16T14:52:30Z</time>
      </trkpt>
      <trkpt lat="59.3049215111" lon="18.0904803427">
        <ele>9.8</ele>
        <time>2010-11-16T14:52:32Z</time>
      </trkpt>
      <trkpt lat="59.3048044159" lon="18.0905495772">
        <ele>10.2</ele>
        <time>2010-11-16T14:52:34Z</time>
      </trkpt>
      <trkpt lat="59.3047257099" lon="18.0906017126">
        <ele>10.4</ele>
        <time>2010-11-16T14:52:36Z</time>
      </trkpt>
      <trkpt lat="59.3046109617" lon="18.0906381738">
        <ele>10.6</ele>
        <time>2010-11-16T14:52:39Z</time>
      </trkpt>
      <trkpt lat="59.3044788629" lon="18.0906302949">
        <ele>11.4</ele>
        <time>2010-11-16T14:52:43Z</time>
      </trkpt>
      <trkpt lat="59.3044317567" lon="18.090535747">
        <ele>12</ele>
        <time>2010-11-16T14:52:46Z</time>
      </trkpt>
      <trkpt lat="59.3044108857" lon="18.0904487429">
        <ele>12.8</ele>
        <time>2010-11-16T14:52:49Z</time>
      </trkpt>
      <trkpt lat="59.3043957983" lon="18.0903887285">
        <ele>13.4</ele>
        <time>2010-11-16T14:52:52Z</time>
      </trkpt>
      <trkpt lat="59.3043688924" lon="18.0902951027">
        <ele>14.2</ele>
        <time>2010-11-16T14:52:56Z</time>
      </trkpt>
      <trkpt lat="59.3043580798" lon="18.0902943483">
        <ele>15.8</ele>
        <time>2010-11-16T14:53:03Z</time>
      </trkpt>
      <trkpt lat="59.3043964689" lon="18.090297282">
        <ele>19.6</ele>
        <time>2010-11-16T14:53:28Z</time>
      </trkpt>
      <trkpt lat="59.304420022" lon="18.0903466514">
        <ele>19.8</ele>
        <time>2010-11-16T14:53:33Z</time>
      </trkpt>
      <trkpt lat="59.3044265599" lon="18.0904448034">
        <ele>19.8</ele>
        <time>2010-11-16T14:53:34Z</time>
      </trkpt>
      <trkpt lat="59.3044461735" lon="18.0905732979">
        <ele>19.8</ele>
        <time>2010-11-16T14:53:37Z</time>
      </trkpt>
      <trkpt lat="59.3044474308" lon="18.0906924047">
        <ele>19.8</ele>
        <time>2010-11-16T14:53:38Z</time>
      </trkpt>
      <trkpt lat="59.3044258893" lon="18.0908127688">
        <ele>19.8</ele>
        <time>2010-11-16T14:53:40Z</time>
      </trkpt>
      <trkpt lat="59.3043970556" lon="18.0908629764">
        <ele>20</ele>
        <time>2010-11-16T14:53:41Z</time>
      </trkpt>
      <trkpt lat="59.3043382985" lon="18.0908774771">
        <ele>20</ele>
        <time>2010-11-16T14:53:43Z</time>
      </trkpt>
      <trkpt lat="59.3042913598" lon="18.0908201449">
        <ele>20</ele>
        <time>2010-11-16T14:53:45Z</time>
      </trkpt>
      <trkpt lat="59.304225981" lon="18.0907558557">
        <ele>20</ele>
        <time>2010-11-16T14:53:47Z</time>
      </trkpt>
      <trkpt lat="59.3041682297" lon="18.0906655827">
        <ele>20</ele>
        <time>2010-11-16T14:53:49Z</time>
      </trkpt>
      <trkpt lat="59.3041364623" lon="18.090588553">
        <ele>20</ele>
        <time>2010-11-16T14:53:51Z</time>
      </trkpt>
      <trkpt lat="59.3041239733" lon="18.0904621539">
        <ele>20</ele>
        <time>2010-11-16T14:53:53Z</time>
      </trkpt>
      <trkpt lat="59.3041187765" lon="18.090400547">
        <ele>20</ele>
        <time>2010-11-16T14:53:54Z</time>
      </trkpt>
      <trkpt lat="59.3041028509" lon="18.0902808534">
        <ele>20.2</ele>
        <time>2010-11-16T14:53:56Z</time>
      </trkpt>
      <trkpt lat="59.3040997496" lon="18.0902314841">
        <ele>20.6</ele>
        <time>2010-11-16T14:53:58Z</time>
      </trkpt>
      <trkpt lat="59.30406991" lon="18.0902433025">
        <ele>21.2</ele>
        <time>2010-11-16T14:54:03Z</time>
      </trkpt>
      <trkpt lat="59.3039787988" lon="18.0902758243">
        <ele>21.4</ele>
        <time>2010-11-16T14:54:07Z</time>
      </trkpt>
      <trkpt lat="59.3039795532" lon="18.0902521035">
        <ele>21.6</ele>
        <time>2010-11-16T14:54:09Z</time>
      </trkpt>
    </trkseg>
  </trk>
</gpx>